Time,TemperatureF,DewpointF,PressureIn,WindDirection,WindDirectionDegrees,WindSpeedMPH,WindSpeedGustMPH,Humidity,HourlyPrecipIn,Conditions,Clouds,dailyrainin,SoftwareType,DateUTC
2013-04-07 00:00:00,52.9,50.3,29.91,SW,225,9.0,9.0,91,0.00,,,0.00,VWS V14.01,2013-04-07 07:00:00,
2013-04-07 00:01:00,52.9,50.3,29.91,SW,225,9.0,9.0,91,0.00,,,0.00,VWS V14.01,2013-04-07 07:01:00,
2013-04-07 00:02:00,52.9,50.6,29.91,SW,225,11.0,11.0,92,0.00,,,0.00,VWS V14.01,2013-04-07 07:02:00,
2013-04-07 00:03:00,52.9,50.6,29.91,SW,225,9.8,9.8,92,0.00,,,0.00,VWS V14.01,2013-04-07 07:03:00,
2013-04-07 00:04:00,52.9,50.6,29.91,SSW,202,12.3,12.3,92,0.00,,,0.00,VWS V14.01,2013-04-07 07:04:00,
2013-04-07 00:05:00,52.7,50.5,29.91,SW,225,8.7,8.7,92,0.00,,,0.00,VWS V14.01,2013-04-07 07:05:00,
2013-04-07 00:06:00,52.7,50.5,29.91,WSW,248,11.0,11.0,92,0.00,,,0.00,VWS V14.01,2013-04-07 07:06:00,
2013-04-07 00:07:00,52.7,50.5,29.91,WSW,248,7.4,7.4,92,0.00,,,0.00,VWS V14.01,2013-04-07 07:07:00,
2013-04-07 00:08:00,52.7,50.5,29.91,WSW,248,7.8,7.8,92,0.00,,,0.00,VWS V14.01,2013-04-07 07:08:00,
2013-04-07 00:09:00,52.7,50.5,29.91,WSW,248,5.6,5.6,92,0.00,,,0.00,VWS V14.01,2013-04-07 07:09:00,
2013-04-07 00:10:00,52.7,50.7,29.91,West,270,9.8,9.8,93,0.00,,,0.00,VWS V14.01,2013-04-07 07:10:00,
2013-04-07 00:11:00,52.7,50.7,29.91,WSW,248,7.4,7.4,93,0.00,,,0.00,VWS V14.01,2013-04-07 07:11:00,
2013-04-07 00:12:00,52.7,50.7,29.91,WSW,248,6.0,6.0,93,0.00,,,0.00,VWS V14.01,2013-04-07 07:12:00,
2013-04-07 00:13:00,52.7,50.7,29.91,WSW,248,10.1,10.1,93,0.00,,,0.00,VWS V14.01,2013-04-07 07:13:00,
2013-04-07 00:14:00,52.7,50.7,29.91,WSW,248,6.5,6.5,93,0.00,,,0.00,VWS V14.01,2013-04-07 07:14:00,
2013-04-07 00:15:00,52.7,50.7,29.91,SW,225,7.8,7.8,93,0.00,,,0.00,VWS V14.01,2013-04-07 07:15:00,
2013-04-07 00:16:00,52.7,50.7,29.91,WSW,248,7.8,7.8,93,0.00,,,0.00,VWS V14.01,2013-04-07 07:16:00,
2013-04-07 00:17:00,52.7,50.7,29.91,South,180,5.6,5.6,93,0.00,,,0.00,VWS V14.01,2013-04-07 07:17:00,
2013-04-07 00:18:00,52.5,50.6,29.91,WSW,248,8.1,8.1,93,0.00,,,0.00,VWS V14.01,2013-04-07 07:18:00,
2013-04-07 00:19:00,52.5,50.6,29.91,SSW,202,8.5,8.5,93,0.00,,,0.00,VWS V14.01,2013-04-07 07:19:00,
2013-04-07 00:20:00,52.5,50.6,29.91,SW,225,8.1,8.1,93,0.00,,,0.00,VWS V14.01,2013-04-07 07:20:00,
2013-04-07 00:21:00,52.5,50.6,29.91,SSW,202,9.0,9.0,93,0.00,,,0.00,VWS V14.01,2013-04-07 07:21:00,
2013-04-07 00:22:00,52.5,50.6,29.91,WSW,248,9.6,9.6,93,0.00,,,0.00,VWS V14.01,2013-04-07 07:22:00,
2013-04-07 00:23:00,52.5,50.6,29.91,WSW,248,8.5,8.5,93,0.00,,,0.00,VWS V14.01,2013-04-07 07:23:00,
2013-04-07 00:24:00,52.5,50.6,29.91,West,270,8.7,8.7,93,0.00,,,0.00,VWS V14.01,2013-04-07 07:24:00,
2013-04-07 00:25:00,52.5,50.8,29.91,West,270,6.0,6.0,94,0.00,,,0.00,VWS V14.01,2013-04-07 07:25:00,
2013-04-07 00:26:00,52.5,50.8,29.91,SSW,202,7.6,7.6,94,0.00,,,0.00,VWS V14.01,2013-04-07 07:26:00,
2013-04-07 00:27:00,52.7,51.0,29.91,SSW,202,6.5,6.5,94,0.00,,,0.00,VWS V14.01,2013-04-07 07:27:00,
2013-04-07 00:28:00,52.7,51.0,29.91,SW,225,10.3,10.3,94,0.00,,,0.00,VWS V14.01,2013-04-07 07:28:00,
2013-04-07 00:29:00,52.7,51.0,29.91,SSW,202,7.4,7.4,94,0.00,,,0.00,VWS V14.01,2013-04-07 07:29:00,
2013-04-07 00:30:00,52.7,51.0,29.91,West,270,9.2,9.2,94,0.00,,,0.00,VWS V14.01,2013-04-07 07:30:00,
2013-04-07 00:31:00,52.7,51.0,29.91,West,270,9.2,9.2,94,0.00,,,0.00,VWS V14.01,2013-04-07 07:31:00,
2013-04-07 00:32:00,52.7,51.0,29.91,WSW,248,12.8,12.8,94,0.00,,,0.00,VWS V14.01,2013-04-07 07:32:00,
2013-04-07 00:33:00,52.7,51.0,29.91,SW,225,10.3,10.3,94,0.00,,,0.00,VWS V14.01,2013-04-07 07:33:00,
2013-04-07 00:34:00,52.7,51.0,29.91,WSW,248,7.8,7.8,94,0.00,,,0.00,VWS V14.01,2013-04-07 07:34:00,
2013-04-07 00:35:00,52.7,51.0,29.91,SW,225,7.6,7.6,94,0.00,,,0.00,VWS V14.01,2013-04-07 07:35:00,
2013-04-07 00:36:00,52.7,51.0,29.91,SW,225,6.0,6.0,94,0.00,,,0.00,VWS V14.01,2013-04-07 07:36:00,
2013-04-07 00:37:00,52.7,51.0,29.91,West,270,8.1,8.1,94,0.00,,,0.00,VWS V14.01,2013-04-07 07:37:00,
2013-04-07 00:38:00,52.7,51.0,29.91,SW,225,8.7,8.7,94,0.00,,,0.00,VWS V14.01,2013-04-07 07:38:00,
2013-04-07 00:39:00,52.7,51.0,29.91,SSW,202,7.4,7.4,94,0.00,,,0.00,VWS V14.01,2013-04-07 07:39:00,
2013-04-07 00:40:00,52.7,51.0,29.91,SSW,202,7.2,7.2,94,0.00,,,0.00,VWS V14.01,2013-04-07 07:40:00,
2013-04-07 00:41:00,52.7,51.0,29.91,SW,225,7.6,7.6,94,0.00,,,0.00,VWS V14.01,2013-04-07 07:41:00,
2013-04-07 00:42:00,52.7,51.0,29.91,WSW,248,7.6,7.6,94,0.00,,,0.00,VWS V14.01,2013-04-07 07:42:00,
2013-04-07 00:43:00,52.7,51.0,29.91,WSW,248,11.2,11.2,94,0.00,,,0.00,VWS V14.01,2013-04-07 07:43:00,
2013-04-07 00:44:00,52.7,51.0,29.91,SW,225,10.7,10.7,94,0.00,,,0.00,VWS V14.01,2013-04-07 07:44:00,
2013-04-07 00:45:00,52.7,51.0,29.91,SSW,202,8.5,8.5,94,0.00,,,0.00,VWS V14.01,2013-04-07 07:45:00,
2013-04-07 00:46:00,52.7,51.0,29.91,SSW,202,8.5,8.5,94,0.00,,,0.00,VWS V14.01,2013-04-07 07:46:00,
2013-04-07 00:47:00,52.7,51.0,29.91,West,270,13.0,13.0,94,0.00,,,0.00,VWS V14.01,2013-04-07 07:47:00,
2013-04-07 00:48:00,52.7,51.0,29.91,SW,225,12.1,12.1,94,0.00,,,0.00,VWS V14.01,2013-04-07 07:48:00,
2013-04-07 00:49:00,52.7,51.0,29.91,WSW,248,8.1,8.1,94,0.00,,,0.00,VWS V14.01,2013-04-07 07:49:00,
2013-04-07 00:50:00,52.7,51.0,29.91,SSW,202,11.9,11.9,94,0.00,,,0.00,VWS V14.01,2013-04-07 07:50:00,
2013-04-07 00:51:00,52.7,51.0,29.91,SSW,202,10.1,10.1,94,0.00,,,0.00,VWS V14.01,2013-04-07 07:51:00,
2013-04-07 00:52:00,52.7,51.3,29.91,WSW,248,2.7,2.7,95,0.00,,,0.00,VWS V14.01,2013-04-07 07:52:00,
2013-04-07 00:54:00,52.7,51.3,29.91,SW,225,6.5,6.5,95,0.00,,,0.00,VWS V14.01,2013-04-07 07:54:00,
2013-04-07 00:55:00,52.7,51.3,29.91,SSW,202,8.5,8.5,95,0.00,,,0.00,VWS V14.01,2013-04-07 07:55:00,
2013-04-07 00:56:00,52.7,51.3,29.91,WSW,248,8.1,8.1,95,0.00,,,0.00,VWS V14.01,2013-04-07 07:56:00,
2013-04-07 00:57:00,52.7,51.3,29.91,WSW,248,8.5,8.5,95,0.00,,,0.00,VWS V14.01,2013-04-07 07:57:00,
2013-04-07 00:58:00,52.7,51.3,29.91,WSW,248,8.1,8.1,95,0.00,,,0.00,VWS V14.01,2013-04-07 07:58:00,
2013-04-07 00:59:00,52.7,51.3,29.91,WSW,248,3.1,3.1,95,0.00,,,0.00,VWS V14.01,2013-04-07 07:59:00,
2013-04-07 01:00:00,52.7,51.3,29.91,SSW,202,8.5,8.5,95,0.00,,,0.00,VWS V14.01,2013-04-07 08:00:00,
2013-04-07 01:01:00,52.7,51.3,29.91,SSW,202,8.5,8.5,95,0.00,,,0.00,VWS V14.01,2013-04-07 08:01:00,
2013-04-07 01:02:00,52.7,51.3,29.91,SW,225,12.1,12.1,95,0.00,,,0.00,VWS V14.01,2013-04-07 08:02:00,
2013-04-07 01:03:00,52.7,51.3,29.91,SW,225,12.1,12.1,95,0.00,,,0.00,VWS V14.01,2013-04-07 08:03:00,
2013-04-07 01:04:00,52.9,51.2,29.91,West,270,10.5,10.5,94,0.00,,,0.00,VWS V14.01,2013-04-07 08:04:00,
2013-04-07 01:05:00,52.9,51.2,29.91,SW,225,7.8,7.8,94,0.00,,,0.00,VWS V14.01,2013-04-07 08:05:00,
2013-04-07 01:06:00,52.9,51.2,29.91,SW,225,7.8,7.8,94,0.00,,,0.00,VWS V14.01,2013-04-07 08:06:00,
2013-04-07 01:07:00,52.9,51.2,29.91,WSW,248,6.3,6.3,94,0.00,,,0.00,VWS V14.01,2013-04-07 08:07:00,
2013-04-07 01:08:00,52.9,51.2,29.91,West,270,4.0,4.0,94,0.00,,,0.00,VWS V14.01,2013-04-07 08:08:00,
2013-04-07 01:09:00,52.9,51.2,29.91,SSW,202,6.0,6.0,94,0.00,,,0.00,VWS V14.01,2013-04-07 08:09:00,
2013-04-07 01:10:00,52.9,51.2,29.91,WSW,248,4.3,4.3,94,0.00,,,0.00,VWS V14.01,2013-04-07 08:10:00,
2013-04-07 01:11:00,52.9,51.2,29.91,WSW,248,3.6,3.6,94,0.00,,,0.00,VWS V14.01,2013-04-07 08:11:00,
2013-04-07 01:12:00,52.9,51.2,29.91,SW,225,3.1,3.1,94,0.00,,,0.00,VWS V14.01,2013-04-07 08:12:00,
2013-04-07 01:13:00,52.9,51.2,29.91,SW,225,3.1,3.1,94,0.00,,,0.00,VWS V14.01,2013-04-07 08:13:00,
2013-04-07 01:14:00,52.9,51.2,29.91,WSW,248,3.6,3.6,94,0.00,,,0.00,VWS V14.01,2013-04-07 08:14:00,
2013-04-07 01:15:00,52.9,51.2,29.91,SSW,202,3.1,3.1,94,0.00,,,0.00,VWS V14.01,2013-04-07 08:15:00,
2013-04-07 01:16:00,52.9,51.2,29.91,SW,225,3.6,3.6,94,0.00,,,0.00,VWS V14.01,2013-04-07 08:16:00,
2013-04-07 01:17:00,52.9,51.2,29.91,West,270,3.6,3.6,94,0.00,,,0.00,VWS V14.01,2013-04-07 08:17:00,
2013-04-07 01:18:00,52.9,51.2,29.91,SW,225,3.8,3.8,94,0.00,,,0.00,VWS V14.01,2013-04-07 08:18:00,
2013-04-07 01:19:00,52.9,51.2,29.91,NW,315,3.4,3.4,94,0.00,,,0.00,VWS V14.01,2013-04-07 08:19:00,
2013-04-07 01:20:00,52.9,51.2,29.91,WSW,248,3.4,3.4,94,0.00,,,0.00,VWS V14.01,2013-04-07 08:20:00,
2013-04-07 01:21:00,52.9,51.2,29.91,WSW,248,6.0,6.0,94,0.00,,,0.00,VWS V14.01,2013-04-07 08:21:00,
2013-04-07 01:22:00,52.9,51.2,29.91,WNW,292,3.8,3.8,94,0.00,,,0.00,VWS V14.01,2013-04-07 08:22:00,
2013-04-07 01:23:00,52.9,51.2,29.91,WSW,248,7.4,7.4,94,0.00,,,0.00,VWS V14.01,2013-04-07 08:23:00,
2013-04-07 01:24:00,52.9,51.2,29.91,WSW,248,4.0,4.0,94,0.00,,,0.00,VWS V14.01,2013-04-07 08:24:00,
2013-04-07 01:25:00,52.9,51.2,29.91,West,270,6.3,6.3,94,0.00,,,0.00,VWS V14.01,2013-04-07 08:25:00,
2013-04-07 01:26:00,52.9,51.2,29.91,West,270,6.3,6.3,94,0.00,,,0.00,VWS V14.01,2013-04-07 08:26:00,
2013-04-07 01:27:00,52.9,51.2,29.91,WSW,248,7.2,7.2,94,0.00,,,0.00,VWS V14.01,2013-04-07 08:27:00,
2013-04-07 01:28:00,52.9,51.2,29.91,WSW,248,4.0,4.0,94,0.00,,,0.00,VWS V14.01,2013-04-07 08:28:00,
2013-04-07 01:29:00,52.9,51.2,29.91,WSW,248,8.1,8.1,94,0.00,,,0.00,VWS V14.01,2013-04-07 08:29:00,
2013-04-07 01:30:00,52.9,51.2,29.91,SW,225,7.6,7.6,94,0.00,,,0.00,VWS V14.01,2013-04-07 08:30:00,
2013-04-07 01:31:00,52.9,51.2,29.91,West,270,3.4,3.4,94,0.00,,,0.00,VWS V14.01,2013-04-07 08:31:00,
2013-04-07 01:32:00,52.9,51.2,29.91,SW,225,6.5,6.5,94,0.00,,,0.00,VWS V14.01,2013-04-07 08:32:00,
2013-04-07 01:33:00,52.9,51.2,29.91,SSW,202,8.1,8.1,94,0.00,,,0.00,VWS V14.01,2013-04-07 08:33:00,
2013-04-07 01:34:00,52.9,51.2,29.91,SW,225,11.9,11.9,94,0.00,,,0.00,VWS V14.01,2013-04-07 08:34:00,
2013-04-07 01:35:00,52.9,51.2,29.91,WSW,248,7.8,7.8,94,0.00,,,0.00,VWS V14.01,2013-04-07 08:35:00,
2013-04-07 01:36:00,52.9,51.2,29.91,South,180,10.1,10.1,94,0.00,,,0.00,VWS V14.01,2013-04-07 08:36:00,
2013-04-07 01:37:00,52.9,51.2,29.91,WSW,248,6.0,6.0,94,0.00,,,0.00,VWS V14.01,2013-04-07 08:37:00,
2013-04-07 01:38:00,52.9,51.2,29.91,SW,225,10.7,10.7,94,0.00,,,0.00,VWS V14.01,2013-04-07 08:38:00,
2013-04-07 01:39:00,52.9,51.2,29.91,WSW,248,5.6,5.6,94,0.00,,,0.00,VWS V14.01,2013-04-07 08:39:00,
2013-04-07 01:40:00,52.9,51.2,29.91,WSW,248,9.6,9.6,94,0.00,,,0.00,VWS V14.01,2013-04-07 08:40:00,
2013-04-07 01:41:00,52.9,51.2,29.91,WSW,248,9.6,9.6,94,0.00,,,0.00,VWS V14.01,2013-04-07 08:41:00,
2013-04-07 01:42:00,52.9,51.2,29.91,SSW,202,6.0,6.0,94,0.00,,,0.00,VWS V14.01,2013-04-07 08:42:00,
2013-04-07 01:43:00,52.9,51.2,29.91,WSW,248,9.8,9.8,94,0.00,,,0.00,VWS V14.01,2013-04-07 08:43:00,
2013-04-07 01:44:00,52.9,51.2,29.91,WSW,248,7.2,7.2,94,0.00,,,0.00,VWS V14.01,2013-04-07 08:44:00,
2013-04-07 01:45:00,52.9,51.2,29.91,WSW,248,8.7,8.7,94,0.00,,,0.00,VWS V14.01,2013-04-07 08:45:00,
2013-04-07 01:46:00,52.9,51.2,29.91,WSW,248,8.7,8.7,94,0.00,,,0.00,VWS V14.01,2013-04-07 08:46:00,
2013-04-07 01:47:00,52.9,51.2,29.91,SW,225,10.3,10.3,94,0.00,,,0.00,VWS V14.01,2013-04-07 08:47:00,
2013-04-07 01:49:00,52.9,51.2,29.91,WSW,248,7.6,7.6,94,0.00,,,0.00,VWS V14.01,2013-04-07 08:49:00,
2013-04-07 01:50:00,52.9,51.2,29.91,WSW,248,10.3,10.3,94,0.00,,,0.00,VWS V14.01,2013-04-07 08:50:00,
2013-04-07 01:51:00,52.9,51.2,29.91,WSW,248,8.7,8.7,94,0.00,,,0.00,VWS V14.01,2013-04-07 08:51:00,
2013-04-07 01:52:00,52.9,51.2,29.91,West,270,11.0,11.0,94,0.00,,,0.00,VWS V14.01,2013-04-07 08:52:00,
2013-04-07 01:53:00,53.1,51.4,29.91,WSW,248,9.2,9.2,94,0.00,,,0.00,VWS V14.01,2013-04-07 08:53:00,
2013-04-07 01:54:00,53.1,51.4,29.91,WSW,248,7.6,7.6,94,0.00,,,0.00,VWS V14.01,2013-04-07 08:54:00,
2013-04-07 01:55:00,53.1,51.4,29.91,WSW,248,5.6,5.6,94,0.00,,,0.00,VWS V14.01,2013-04-07 08:55:00,
2013-04-07 01:56:00,53.1,51.4,29.91,WSW,248,5.6,5.6,94,0.00,,,0.00,VWS V14.01,2013-04-07 08:56:00,
2013-04-07 01:57:00,53.1,51.4,29.91,West,270,11.0,11.0,94,0.00,,,0.00,VWS V14.01,2013-04-07 08:57:00,
2013-04-07 01:58:00,53.1,51.4,29.91,SW,225,6.3,6.3,94,0.00,,,0.00,VWS V14.01,2013-04-07 08:58:00,
2013-04-07 01:59:00,53.1,51.4,29.91,WSW,248,7.4,7.4,94,0.00,,,0.00,VWS V14.01,2013-04-07 08:59:00,
2013-04-07 02:00:00,53.1,51.4,29.91,SSW,202,7.8,7.8,94,0.00,,,0.00,VWS V14.01,2013-04-07 09:00:00,
2013-04-07 02:01:00,53.1,51.4,29.91,SSW,202,7.8,7.8,94,0.00,,,0.00,VWS V14.01,2013-04-07 09:01:00,
2013-04-07 02:02:00,53.1,51.1,29.91,WSW,248,7.8,7.8,93,0.00,,,0.00,VWS V14.01,2013-04-07 09:02:00,
2013-04-07 02:03:00,53.1,51.1,29.91,WSW,248,7.6,7.6,93,0.00,,,0.00,VWS V14.01,2013-04-07 09:03:00,
2013-04-07 02:04:00,53.1,51.1,29.91,WSW,248,7.6,7.6,93,0.00,,,0.00,VWS V14.01,2013-04-07 09:04:00,
2013-04-07 02:05:00,53.1,51.1,29.91,WSW,248,9.8,9.8,93,0.00,,,0.00,VWS V14.01,2013-04-07 09:05:00,
2013-04-07 02:06:00,53.1,51.1,29.91,WSW,248,9.8,9.8,93,0.00,,,0.00,VWS V14.01,2013-04-07 09:06:00,
2013-04-07 02:07:00,53.1,51.1,29.91,WSW,248,8.5,8.5,93,0.00,,,0.00,VWS V14.01,2013-04-07 09:07:00,
2013-04-07 02:08:00,53.1,51.1,29.91,WSW,248,8.5,8.5,93,0.00,,,0.00,VWS V14.01,2013-04-07 09:08:00,
2013-04-07 02:09:00,53.1,51.1,29.91,WSW,248,8.1,8.1,93,0.00,,,0.00,VWS V14.01,2013-04-07 09:09:00,
2013-04-07 02:10:00,53.1,51.1,29.91,WSW,248,5.6,5.6,93,0.00,,,0.00,VWS V14.01,2013-04-07 09:10:00,
2013-04-07 02:11:00,53.1,51.1,29.91,WSW,248,7.6,7.6,93,0.00,,,0.00,VWS V14.01,2013-04-07 09:11:00,
2013-04-07 02:12:00,53.1,51.1,29.91,WSW,248,10.3,10.3,93,0.00,,,0.00,VWS V14.01,2013-04-07 09:12:00,
2013-04-07 02:13:00,53.1,51.1,29.91,West,270,8.1,8.1,93,0.00,,,0.00,VWS V14.01,2013-04-07 09:13:00,
2013-04-07 02:14:00,53.1,51.1,29.91,SSW,202,10.1,10.1,93,0.00,,,0.00,VWS V14.01,2013-04-07 09:14:00,
2013-04-07 02:15:00,53.1,51.1,29.91,WSW,248,7.4,7.4,93,0.00,,,0.00,VWS V14.01,2013-04-07 09:15:00,
2013-04-07 02:16:00,53.1,51.1,29.91,WSW,248,7.4,7.4,93,0.00,,,0.00,VWS V14.01,2013-04-07 09:16:00,
2013-04-07 02:17:00,53.1,51.1,29.91,WSW,248,5.6,5.6,93,0.00,,,0.00,VWS V14.01,2013-04-07 09:17:00,
2013-04-07 02:18:00,53.1,51.1,29.91,WSW,248,11.0,11.0,93,0.00,,,0.00,VWS V14.01,2013-04-07 09:18:00,
2013-04-07 02:19:00,53.1,51.1,29.91,WNW,292,8.7,8.7,93,0.00,,,0.00,VWS V14.01,2013-04-07 09:19:00,
2013-04-07 02:20:00,53.1,51.1,29.91,WSW,248,6.3,6.3,93,0.00,,,0.00,VWS V14.01,2013-04-07 09:20:00,
2013-04-07 02:21:00,53.1,51.1,29.91,WSW,248,6.3,6.3,93,0.00,,,0.00,VWS V14.01,2013-04-07 09:21:00,
2013-04-07 02:22:00,53.1,51.1,29.91,SW,225,5.6,5.6,93,0.00,,,0.00,VWS V14.01,2013-04-07 09:22:00,
2013-04-07 02:23:00,53.1,51.1,29.91,West,270,9.4,9.4,93,0.00,,,0.00,VWS V14.01,2013-04-07 09:23:00,
2013-04-07 02:24:00,53.1,51.1,29.91,WSW,248,7.4,7.4,93,0.00,,,0.00,VWS V14.01,2013-04-07 09:24:00,
2013-04-07 02:25:00,53.1,51.1,29.91,WSW,248,6.3,6.3,93,0.00,,,0.00,VWS V14.01,2013-04-07 09:25:00,
2013-04-07 02:26:00,53.1,51.1,29.91,WSW,248,6.3,6.3,93,0.00,,,0.00,VWS V14.01,2013-04-07 09:26:00,
2013-04-07 02:27:00,53.1,51.1,29.91,SSW,202,10.3,10.3,93,0.00,,,0.00,VWS V14.01,2013-04-07 09:27:00,
2013-04-07 02:28:00,53.1,51.1,29.91,SSW,202,10.3,10.3,93,0.00,,,0.00,VWS V14.01,2013-04-07 09:28:00,
2013-04-07 02:29:00,53.1,51.1,29.91,WSW,248,5.6,5.6,93,0.00,,,0.00,VWS V14.01,2013-04-07 09:29:00,
2013-04-07 02:30:00,53.1,51.1,29.91,WSW,248,6.5,6.5,93,0.00,,,0.00,VWS V14.01,2013-04-07 09:30:00,
2013-04-07 02:31:00,53.1,51.1,29.91,SW,225,5.6,5.6,93,0.00,,,0.00,VWS V14.01,2013-04-07 09:31:00,
2013-04-07 02:32:00,53.1,51.1,29.91,SW,225,11.0,11.0,93,0.00,,,0.00,VWS V14.01,2013-04-07 09:32:00,
2013-04-07 02:33:00,53.1,51.1,29.91,SW,225,11.0,11.0,93,0.00,,,0.00,VWS V14.01,2013-04-07 09:33:00,
2013-04-07 02:34:00,53.1,51.1,29.91,West,270,6.7,6.7,93,0.00,,,0.00,VWS V14.01,2013-04-07 09:34:00,
2013-04-07 02:35:00,53.1,51.1,29.91,SSW,202,10.7,10.7,93,0.00,,,0.00,VWS V14.01,2013-04-07 09:35:00,
2013-04-07 02:36:00,53.1,51.1,29.91,SSW,202,10.7,10.7,93,0.00,,,0.00,VWS V14.01,2013-04-07 09:36:00,
2013-04-07 02:37:00,53.1,51.1,29.91,SSW,202,9.4,9.4,93,0.00,,,0.00,VWS V14.01,2013-04-07 09:37:00,
2013-04-07 02:38:00,53.1,51.1,29.91,SSW,202,9.4,9.4,93,0.00,,,0.00,VWS V14.01,2013-04-07 09:38:00,
2013-04-07 02:39:00,53.1,51.1,29.91,SW,225,8.1,8.1,93,0.00,,,0.00,VWS V14.01,2013-04-07 09:39:00,
2013-04-07 02:40:00,53.1,51.1,29.88,SSW,202,7.8,7.8,93,0.00,,,0.00,VWS V14.01,2013-04-07 09:40:00,
2013-04-07 02:41:00,53.1,51.1,29.88,SSW,202,7.8,7.8,93,0.00,,,0.00,VWS V14.01,2013-04-07 09:41:00,
2013-04-07 02:42:00,53.1,51.1,29.88,SSW,202,7.8,7.8,93,0.00,,,0.00,VWS V14.01,2013-04-07 09:42:00,
2013-04-07 02:43:00,53.1,51.1,29.88,WSW,248,9.6,9.6,93,0.00,,,0.00,VWS V14.01,2013-04-07 09:43:00,
2013-04-07 02:44:00,53.1,51.1,29.88,WSW,248,7.8,7.8,93,0.00,,,0.00,VWS V14.01,2013-04-07 09:44:00,
2013-04-07 02:45:00,53.1,51.1,29.88,WSW,248,5.8,5.8,93,0.00,,,0.00,VWS V14.01,2013-04-07 09:45:00,
2013-04-07 02:46:00,53.1,51.1,29.88,WSW,248,5.8,5.8,93,0.00,,,0.00,VWS V14.01,2013-04-07 09:46:00,
2013-04-07 02:47:00,53.1,51.1,29.88,SW,225,6.3,6.3,93,0.00,,,0.00,VWS V14.01,2013-04-07 09:47:00,
2013-04-07 02:48:00,53.1,51.1,29.88,WSW,248,6.3,6.3,93,0.00,,,0.00,VWS V14.01,2013-04-07 09:48:00,
2013-04-07 02:49:00,53.1,51.1,29.88,WSW,248,5.8,5.8,93,0.00,,,0.00,VWS V14.01,2013-04-07 09:49:00,
2013-04-07 02:50:00,53.1,51.1,29.88,SW,225,7.4,7.4,93,0.00,,,0.00,VWS V14.01,2013-04-07 09:50:00,
2013-04-07 02:51:00,53.1,51.1,29.88,SW,225,7.4,7.4,93,0.00,,,0.00,VWS V14.01,2013-04-07 09:51:00,
2013-04-07 02:52:00,53.1,51.1,29.88,West,270,5.8,5.8,93,0.00,,,0.00,VWS V14.01,2013-04-07 09:52:00,
2013-04-07 02:53:00,53.1,51.1,29.88,WSW,248,5.4,5.4,93,0.00,,,0.00,VWS V14.01,2013-04-07 09:53:00,
2013-04-07 02:54:00,53.1,51.1,29.88,SW,225,6.3,6.3,93,0.00,,,0.00,VWS V14.01,2013-04-07 09:54:00,
2013-04-07 02:55:00,53.1,51.1,29.88,WSW,248,6.3,6.3,93,0.00,,,0.00,VWS V14.01,2013-04-07 09:55:00,
2013-04-07 02:56:00,53.1,51.1,29.88,WSW,248,6.3,6.3,93,0.00,,,0.00,VWS V14.01,2013-04-07 09:56:00,
2013-04-07 02:57:00,53.1,51.1,29.88,SSW,202,5.4,5.4,93,0.00,,,0.00,VWS V14.01,2013-04-07 09:57:00,
2013-04-07 02:58:00,53.1,51.1,29.88,SSW,202,5.4,5.4,93,0.00,,,0.00,VWS V14.01,2013-04-07 09:58:00,
2013-04-07 02:59:00,53.1,51.1,29.88,WSW,248,3.1,3.1,93,0.00,,,0.00,VWS V14.01,2013-04-07 09:59:00,
2013-04-07 03:00:00,53.1,51.1,29.88,WSW,248,7.2,7.2,93,0.00,,,0.00,VWS V14.01,2013-04-07 10:00:00,
2013-04-07 03:01:00,53.1,51.1,29.88,WSW,248,7.2,7.2,93,0.00,,,0.00,VWS V14.01,2013-04-07 10:01:00,
2013-04-07 03:02:00,53.1,51.1,29.88,WNW,292,3.8,3.8,93,0.00,,,0.00,VWS V14.01,2013-04-07 10:02:00,
2013-04-07 03:03:00,53.1,51.1,29.88,SSW,202,5.8,5.8,93,0.00,,,0.00,VWS V14.01,2013-04-07 10:03:00,
2013-04-07 03:04:00,53.1,51.1,29.88,WSW,248,6.0,6.0,93,0.00,,,0.00,VWS V14.01,2013-04-07 10:04:00,
2013-04-07 03:05:00,53.1,51.1,29.88,WSW,248,6.9,6.9,93,0.00,,,0.00,VWS V14.01,2013-04-07 10:05:00,
2013-04-07 03:06:00,53.1,51.1,29.88,WNW,292,5.6,5.6,93,0.00,,,0.00,VWS V14.01,2013-04-07 10:06:00,
2013-04-07 03:07:00,53.1,51.1,29.88,SW,225,6.3,6.3,93,0.00,,,0.00,VWS V14.01,2013-04-07 10:07:00,
2013-04-07 03:08:00,53.1,51.1,29.88,West,270,3.4,3.4,93,0.00,,,0.00,VWS V14.01,2013-04-07 10:08:00,
2013-04-07 03:09:00,53.1,51.1,29.88,West,270,3.4,3.4,93,0.00,,,0.00,VWS V14.01,2013-04-07 10:09:00,
2013-04-07 03:10:00,53.1,51.1,29.88,SSW,202,6.5,6.5,93,0.00,,,0.00,VWS V14.01,2013-04-07 10:10:00,
2013-04-07 03:11:00,53.1,51.1,29.88,SSW,202,8.5,8.5,93,0.00,,,0.00,VWS V14.01,2013-04-07 10:11:00,
2013-04-07 03:12:00,53.1,51.1,29.88,SSW,202,5.6,5.6,93,0.00,,,0.00,VWS V14.01,2013-04-07 10:12:00,
2013-04-07 03:13:00,53.1,51.1,29.88,SW,225,4.0,4.0,93,0.00,,,0.00,VWS V14.01,2013-04-07 10:13:00,
2013-04-07 03:14:00,53.1,51.1,29.88,WSW,248,7.4,7.4,93,0.00,,,0.00,VWS V14.01,2013-04-07 10:14:00,
2013-04-07 03:15:00,53.1,51.1,29.88,SSW,202,3.8,3.8,93,0.00,,,0.00,VWS V14.01,2013-04-07 10:15:00,
2013-04-07 03:16:00,53.1,51.1,29.88,SSW,202,3.8,3.8,93,0.00,,,0.00,VWS V14.01,2013-04-07 10:16:00,
2013-04-07 03:17:00,53.1,51.1,29.88,WSW,248,5.6,5.6,93,0.00,,,0.00,VWS V14.01,2013-04-07 10:17:00,
2013-04-07 03:18:00,53.1,51.1,29.88,WSW,248,4.3,4.3,93,0.00,,,0.00,VWS V14.01,2013-04-07 10:18:00,
2013-04-07 03:20:00,53.1,51.1,29.88,WSW,248,4.3,4.3,93,0.00,,,0.00,VWS V14.01,2013-04-07 10:20:00,
2013-04-07 03:21:00,53.1,51.1,29.88,WSW,248,3.4,3.4,93,0.00,,,0.00,VWS V14.01,2013-04-07 10:21:00,
2013-04-07 03:22:00,53.1,51.1,29.88,WSW,248,5.6,5.6,93,0.00,,,0.00,VWS V14.01,2013-04-07 10:22:00,
2013-04-07 03:23:00,53.1,51.1,29.88,WSW,248,8.1,8.1,93,0.00,,,0.00,VWS V14.01,2013-04-07 10:23:00,
2013-04-07 03:24:00,53.1,51.1,29.88,WSW,248,8.1,8.1,93,0.00,,,0.00,VWS V14.01,2013-04-07 10:24:00,
2013-04-07 03:25:00,53.1,51.1,29.88,West,270,5.4,5.4,93,0.00,,,0.00,VWS V14.01,2013-04-07 10:25:00,
2013-04-07 03:26:00,53.1,51.1,29.88,West,270,3.8,3.8,93,0.00,,,0.00,VWS V14.01,2013-04-07 10:26:00,
2013-04-07 03:27:00,53.1,51.1,29.88,West,270,2.7,2.7,93,0.00,,,0.00,VWS V14.01,2013-04-07 10:27:00,
2013-04-07 03:28:00,53.1,51.1,29.88,SSW,202,2.9,2.9,93,0.00,,,0.00,VWS V14.01,2013-04-07 10:28:00,
2013-04-07 03:29:00,53.1,51.1,29.88,SSE,158,2.2,2.2,93,0.00,,,0.00,VWS V14.01,2013-04-07 10:29:00,
2013-04-07 03:30:00,53.1,51.1,29.88,WSW,248,2.9,2.9,93,0.00,,,0.00,VWS V14.01,2013-04-07 10:30:00,
2013-04-07 03:31:00,53.1,51.1,29.88,WNW,292,3.6,3.6,93,0.00,,,0.00,VWS V14.01,2013-04-07 10:31:00,
2013-04-07 03:32:00,53.1,51.1,29.88,WSW,248,3.6,3.6,93,0.00,,,0.00,VWS V14.01,2013-04-07 10:32:00,
2013-04-07 03:33:00,53.1,51.1,29.88,West,270,2.9,2.9,93,0.00,,,0.00,VWS V14.01,2013-04-07 10:33:00,
2013-04-07 03:34:00,52.9,50.9,29.88,WNW,292,2.5,2.5,93,0.00,,,0.00,VWS V14.01,2013-04-07 10:34:00,
2013-04-07 03:35:00,52.9,50.9,29.88,West,270,2.0,2.0,93,0.00,,,0.00,VWS V14.01,2013-04-07 10:35:00,
2013-04-07 03:36:00,53.1,51.1,29.88,SSW,202,2.0,2.0,93,0.00,,,0.00,VWS V14.01,2013-04-07 10:36:00,
2013-04-07 03:37:00,53.1,51.1,29.88,SSW,202,2.0,2.0,93,0.00,,,0.00,VWS V14.01,2013-04-07 10:37:00,
2013-04-07 03:38:00,53.1,51.1,29.88,SSW,202,2.0,2.0,93,0.00,,,0.00,VWS V14.01,2013-04-07 10:38:00,
2013-04-07 03:39:00,53.1,51.1,29.88,WNW,292,1.3,1.3,93,0.00,,,0.00,VWS V14.01,2013-04-07 10:39:00,
2013-04-07 03:40:00,53.1,51.1,29.88,WSW,248,0.0,0.0,93,0.00,,,0.00,VWS V14.01,2013-04-07 10:40:00,
2013-04-07 03:41:00,53.1,51.1,29.88,WSW,248,2.5,2.5,93,0.00,,,0.00,VWS V14.01,2013-04-07 10:41:00,
2013-04-07 03:42:00,53.1,51.1,29.88,West,270,2.9,2.9,93,0.00,,,0.00,VWS V14.01,2013-04-07 10:42:00,
2013-04-07 03:43:00,53.1,51.1,29.88,SW,225,4.3,4.3,93,0.00,,,0.00,VWS V14.01,2013-04-07 10:43:00,
2013-04-07 03:44:00,53.1,51.1,29.88,SW,225,4.3,4.3,93,0.00,,,0.00,VWS V14.01,2013-04-07 10:44:00,
2013-04-07 03:45:00,53.1,51.1,29.88,SW,225,2.5,2.5,93,0.00,,,0.00,VWS V14.01,2013-04-07 10:45:00,
2013-04-07 03:46:00,53.1,51.1,29.88,WSW,248,4.7,4.7,93,0.00,,,0.00,VWS V14.01,2013-04-07 10:46:00,
2013-04-07 03:47:00,53.1,51.1,29.88,WSW,248,4.7,4.7,93,0.00,,,0.00,VWS V14.01,2013-04-07 10:47:00,
2013-04-07 03:48:00,53.1,51.1,29.88,SW,225,2.9,2.9,93,0.00,,,0.00,VWS V14.01,2013-04-07 10:48:00,
2013-04-07 03:49:00,53.1,51.1,29.88,SW,225,2.9,2.9,93,0.00,,,0.00,VWS V14.01,2013-04-07 10:49:00,
2013-04-07 03:50:00,53.1,51.1,29.88,SW,225,3.6,3.6,93,0.00,,,0.00,VWS V14.01,2013-04-07 10:50:00,
2013-04-07 03:51:00,53.1,51.1,29.88,WSW,248,2.7,2.7,93,0.00,,,0.00,VWS V14.01,2013-04-07 10:51:00,
2013-04-07 03:52:00,53.1,51.1,29.88,WSW,248,0.0,0.0,93,0.00,,,0.00,VWS V14.01,2013-04-07 10:52:00,
2013-04-07 03:53:00,53.1,51.1,29.88,SW,225,2.2,2.2,93,0.00,,,0.00,VWS V14.01,2013-04-07 10:53:00,
2013-04-07 03:54:00,53.1,51.1,29.88,WSW,248,3.1,3.1,93,0.00,,,0.00,VWS V14.01,2013-04-07 10:54:00,
2013-04-07 03:55:00,53.1,51.1,29.88,WSW,248,5.6,5.6,93,0.00,,,0.00,VWS V14.01,2013-04-07 10:55:00,
2013-04-07 03:56:00,53.1,51.1,29.88,WSW,248,3.6,3.6,93,0.00,,,0.00,VWS V14.01,2013-04-07 10:56:00,
2013-04-07 03:57:00,53.1,51.1,29.88,SW,225,5.4,5.4,93,0.00,,,0.00,VWS V14.01,2013-04-07 10:57:00,
2013-04-07 03:58:00,53.1,51.1,29.88,South,180,2.9,2.9,93,0.00,,,0.00,VWS V14.01,2013-04-07 10:58:00,
2013-04-07 03:59:00,53.1,51.1,29.88,WSW,248,1.3,1.3,93,0.00,,,0.00,VWS V14.01,2013-04-07 10:59:00,
2013-04-07 04:00:00,53.1,51.1,29.88,SW,225,2.5,2.5,93,0.00,,,0.00,VWS V14.01,2013-04-07 11:00:00,
2013-04-07 04:01:00,53.1,51.1,29.88,WSW,248,2.0,2.0,93,0.00,,,0.00,VWS V14.01,2013-04-07 11:01:00,
2013-04-07 04:02:00,53.1,51.1,29.88,SW,225,4.0,4.0,93,0.00,,,0.00,VWS V14.01,2013-04-07 11:02:00,
2013-04-07 04:03:00,53.1,51.1,29.88,SW,225,3.8,3.8,93,0.00,,,0.00,VWS V14.01,2013-04-07 11:03:00,
2013-04-07 04:04:00,53.1,51.1,29.88,WSW,248,3.6,3.6,93,0.00,,,0.00,VWS V14.01,2013-04-07 11:04:00,
2013-04-07 04:05:00,53.1,51.1,29.88,SW,225,2.0,2.0,93,0.00,,,0.00,VWS V14.01,2013-04-07 11:05:00,
2013-04-07 04:06:00,53.1,51.1,29.88,SW,225,3.8,3.8,93,0.00,,,0.00,VWS V14.01,2013-04-07 11:06:00,
2013-04-07 04:07:00,53.1,51.1,29.88,SSW,202,2.9,2.9,93,0.00,,,0.00,VWS V14.01,2013-04-07 11:07:00,
2013-04-07 04:08:00,53.1,51.1,29.88,WSW,248,2.0,2.0,93,0.00,,,0.00,VWS V14.01,2013-04-07 11:08:00,
2013-04-07 04:09:00,53.1,51.1,29.88,WSW,248,2.0,2.0,93,0.00,,,0.00,VWS V14.01,2013-04-07 11:09:00,
2013-04-07 04:10:00,53.1,51.1,29.88,WSW,248,3.6,3.6,93,0.00,,,0.00,VWS V14.01,2013-04-07 11:10:00,
2013-04-07 04:11:00,53.1,51.1,29.88,SW,225,2.9,2.9,93,0.00,,,0.00,VWS V14.01,2013-04-07 11:11:00,
2013-04-07 04:12:00,53.1,51.1,29.88,WSW,248,5.4,5.4,93,0.00,,,0.00,VWS V14.01,2013-04-07 11:12:00,
2013-04-07 04:13:00,53.1,51.1,29.88,WSW,248,3.6,3.6,93,0.00,,,0.00,VWS V14.01,2013-04-07 11:13:00,
2013-04-07 04:14:00,53.1,51.1,29.88,WSW,248,4.0,4.0,93,0.00,,,0.00,VWS V14.01,2013-04-07 11:14:00,
2013-04-07 04:15:00,53.1,51.1,29.88,WSW,248,4.0,4.0,93,0.00,,,0.00,VWS V14.01,2013-04-07 11:15:00,
2013-04-07 04:16:00,53.1,51.1,29.88,SW,225,2.9,2.9,93,0.00,,,0.00,VWS V14.01,2013-04-07 11:16:00,
2013-04-07 04:17:00,53.1,51.1,29.88,WSW,248,3.6,3.6,93,0.00,,,0.00,VWS V14.01,2013-04-07 11:17:00,
2013-04-07 04:18:00,53.1,51.1,29.88,WSW,248,3.6,3.6,93,0.00,,,0.00,VWS V14.01,2013-04-07 11:18:00,
2013-04-07 04:19:00,53.1,51.1,29.88,WSW,248,3.6,3.6,93,0.00,,,0.00,VWS V14.01,2013-04-07 11:19:00,
2013-04-07 04:20:00,53.1,51.1,29.88,WSW,248,2.7,2.7,93,0.00,,,0.00,VWS V14.01,2013-04-07 11:20:00,
2013-04-07 04:21:00,53.1,51.1,29.88,WSW,248,3.4,3.4,93,0.00,,,0.00,VWS V14.01,2013-04-07 11:21:00,
2013-04-07 04:22:00,53.1,51.1,29.88,WSW,248,3.4,3.4,93,0.00,,,0.00,VWS V14.01,2013-04-07 11:22:00,
2013-04-07 04:23:00,53.1,51.1,29.88,WSW,248,3.4,3.4,93,0.00,,,0.00,VWS V14.01,2013-04-07 11:23:00,
2013-04-07 04:24:00,53.1,51.1,29.88,WSW,248,3.4,3.4,93,0.00,,,0.00,VWS V14.01,2013-04-07 11:24:00,
2013-04-07 04:25:00,53.1,51.1,29.88,WSW,248,3.4,3.4,93,0.00,,,0.00,VWS V14.01,2013-04-07 11:25:00,
2013-04-07 04:26:00,53.1,51.1,29.88,WSW,248,4.3,4.3,93,0.00,,,0.00,VWS V14.01,2013-04-07 11:26:00,
2013-04-07 04:27:00,53.1,51.1,29.88,WSW,248,1.6,1.6,93,0.00,,,0.00,VWS V14.01,2013-04-07 11:27:00,
2013-04-07 04:28:00,53.1,51.1,29.88,West,270,2.5,2.5,93,0.00,,,0.00,VWS V14.01,2013-04-07 11:28:00,
2013-04-07 04:29:00,53.1,51.1,29.88,West,270,3.6,3.6,93,0.00,,,0.00,VWS V14.01,2013-04-07 11:29:00,
2013-04-07 04:30:00,53.1,51.1,29.88,West,270,3.6,3.6,93,0.00,,,0.00,VWS V14.01,2013-04-07 11:30:00,
2013-04-07 04:31:00,53.1,51.1,29.88,West,270,3.6,3.6,93,0.00,,,0.00,VWS V14.01,2013-04-07 11:31:00,
2013-04-07 04:32:00,53.1,51.1,29.88,West,270,3.6,3.6,93,0.00,,,0.00,VWS V14.01,2013-04-07 11:32:00,
2013-04-07 04:33:00,53.1,51.1,29.88,West,270,3.6,3.6,93,0.00,,,0.00,VWS V14.01,2013-04-07 11:33:00,
2013-04-07 04:34:00,53.1,51.1,29.88,WSW,248,1.3,1.3,93,0.00,,,0.00,VWS V14.01,2013-04-07 11:34:00,
2013-04-07 04:35:00,53.1,51.1,29.88,WSW,248,2.7,2.7,93,0.00,,,0.00,VWS V14.01,2013-04-07 11:35:00,
2013-04-07 04:36:00,53.1,51.1,29.88,WSW,248,2.0,2.0,93,0.00,,,0.00,VWS V14.01,2013-04-07 11:36:00,
2013-04-07 04:37:00,53.1,51.1,29.88,WSW,248,2.0,2.0,93,0.00,,,0.00,VWS V14.01,2013-04-07 11:37:00,
2013-04-07 04:38:00,53.1,51.1,29.88,WSW,248,1.6,1.6,93,0.00,,,0.00,VWS V14.01,2013-04-07 11:38:00,
2013-04-07 04:39:00,53.2,51.3,29.88,WSW,248,1.6,1.6,93,0.00,,,0.00,VWS V14.01,2013-04-07 11:39:00,
2013-04-07 04:40:00,53.2,51.3,29.88,WSW,248,1.6,1.6,93,0.00,,,0.00,VWS V14.01,2013-04-07 11:40:00,
2013-04-07 04:41:00,53.2,51.3,29.88,WSW,248,1.6,1.6,93,0.00,,,0.00,VWS V14.01,2013-04-07 11:41:00,
2013-04-07 04:42:00,53.2,51.3,29.88,WSW,248,1.6,1.6,93,0.00,,,0.00,VWS V14.01,2013-04-07 11:42:00,
2013-04-07 04:43:00,53.2,51.3,29.88,WSW,248,0.0,0.0,93,0.00,,,0.00,VWS V14.01,2013-04-07 11:43:00,
2013-04-07 04:44:00,53.2,51.3,29.88,WSW,248,2.5,2.5,93,0.00,,,0.00,VWS V14.01,2013-04-07 11:44:00,
2013-04-07 04:45:00,53.2,51.3,29.88,SW,225,3.1,3.1,93,0.00,,,0.00,VWS V14.01,2013-04-07 11:45:00,
2013-04-07 04:46:00,53.2,51.3,29.88,SSW,202,3.8,3.8,93,0.00,,,0.00,VWS V14.01,2013-04-07 11:46:00,
2013-04-07 04:47:00,53.2,51.3,29.88,WSW,248,3.6,3.6,93,0.00,,,0.00,VWS V14.01,2013-04-07 11:47:00,
2013-04-07 04:48:00,53.2,51.3,29.88,WSW,248,2.5,2.5,93,0.00,,,0.00,VWS V14.01,2013-04-07 11:48:00,
2013-04-07 04:49:00,53.2,51.3,29.88,WSW,248,2.5,2.5,93,0.00,,,0.00,VWS V14.01,2013-04-07 11:49:00,
2013-04-07 04:50:00,53.2,51.3,29.88,WNW,292,2.9,2.9,93,0.00,,,0.00,VWS V14.01,2013-04-07 11:50:00,
2013-04-07 04:51:00,53.2,51.3,29.88,West,270,3.1,3.1,93,0.00,,,0.00,VWS V14.01,2013-04-07 11:51:00,
2013-04-07 04:52:00,53.2,51.3,29.88,West,270,2.0,2.0,93,0.00,,,0.00,VWS V14.01,2013-04-07 11:52:00,
2013-04-07 04:53:00,53.2,51.3,29.88,West,270,2.7,2.7,93,0.00,,,0.00,VWS V14.01,2013-04-07 11:53:00,
2013-04-07 04:54:00,53.2,51.3,29.88,West,270,2.7,2.7,93,0.00,,,0.00,VWS V14.01,2013-04-07 11:54:00,
2013-04-07 04:55:00,53.2,51.3,29.88,SW,225,2.9,2.9,93,0.00,,,0.00,VWS V14.01,2013-04-07 11:55:00,
2013-04-07 04:56:00,53.2,51.3,29.88,WSW,248,2.0,2.0,93,0.00,,,0.00,VWS V14.01,2013-04-07 11:56:00,
2013-04-07 04:57:00,53.2,51.3,29.88,WSW,248,2.0,2.0,93,0.00,,,0.00,VWS V14.01,2013-04-07 11:57:00,
2013-04-07 04:58:00,53.2,51.3,29.88,West,270,0.0,0.0,93,0.00,,,0.00,VWS V14.01,2013-04-07 11:58:00,
2013-04-07 04:59:00,53.4,51.5,29.88,SW,225,4.0,4.0,93,0.00,,,0.00,VWS V14.01,2013-04-07 11:59:00,
2013-04-07 05:00:00,53.4,51.5,29.88,SW,225,4.0,4.0,93,0.00,,,0.00,VWS V14.01,2013-04-07 12:00:00,
2013-04-07 05:01:00,53.4,51.5,29.88,SW,225,4.0,4.0,93,0.00,,,0.00,VWS V14.01,2013-04-07 12:01:00,
2013-04-07 05:02:00,53.4,51.5,29.88,WSW,248,4.9,4.9,93,0.00,,,0.00,VWS V14.01,2013-04-07 12:02:00,
2013-04-07 05:03:00,53.4,51.5,29.88,WSW,248,4.0,4.0,93,0.00,,,0.00,VWS V14.01,2013-04-07 12:03:00,
2013-04-07 05:04:00,53.4,51.5,29.88,SSW,202,3.6,3.6,93,0.00,,,0.00,VWS V14.01,2013-04-07 12:04:00,
2013-04-07 05:05:00,53.4,51.5,29.88,SSW,202,3.6,3.6,93,0.00,,,0.00,VWS V14.01,2013-04-07 12:05:00,
2013-04-07 05:06:00,53.4,51.5,29.88,WSW,248,2.9,2.9,93,0.00,,,0.00,VWS V14.01,2013-04-07 12:06:00,
2013-04-07 05:07:00,53.4,51.5,29.88,WSW,248,2.9,2.9,93,0.00,,,0.00,VWS V14.01,2013-04-07 12:07:00,
2013-04-07 05:08:00,53.4,51.5,29.88,SSW,202,1.1,1.1,93,0.00,,,0.00,VWS V14.01,2013-04-07 12:08:00,
2013-04-07 05:09:00,53.4,51.5,29.88,WSW,248,0.9,0.9,93,0.00,,,0.00,VWS V14.01,2013-04-07 12:09:00,
2013-04-07 05:10:00,53.4,51.5,29.88,WSW,248,1.6,1.6,93,0.00,,,0.00,VWS V14.01,2013-04-07 12:10:00,
2013-04-07 05:11:00,53.6,51.3,29.88,WSW,248,2.7,2.7,92,0.00,,,0.00,VWS V14.01,2013-04-07 12:11:00,
2013-04-07 05:12:00,53.6,51.3,29.88,WSW,248,2.7,2.7,92,0.00,,,0.00,VWS V14.01,2013-04-07 12:12:00,
2013-04-07 05:13:00,53.6,51.3,29.88,WSW,248,1.6,1.6,92,0.00,,,0.00,VWS V14.01,2013-04-07 12:13:00,
2013-04-07 05:14:00,53.6,51.3,29.88,West,270,3.1,3.1,92,0.00,,,0.00,VWS V14.01,2013-04-07 12:14:00,
2013-04-07 05:15:00,53.6,51.3,29.88,WNW,292,2.0,2.0,92,0.00,,,0.00,VWS V14.01,2013-04-07 12:15:00,
2013-04-07 05:16:00,53.6,51.3,29.88,SW,225,4.7,4.7,92,0.00,,,0.00,VWS V14.01,2013-04-07 12:16:00,
2013-04-07 05:17:00,53.6,51.3,29.88,SW,225,4.7,4.7,92,0.00,,,0.00,VWS V14.01,2013-04-07 12:17:00,
2013-04-07 05:18:00,53.6,51.3,29.88,SSW,202,4.0,4.0,92,0.00,,,0.00,VWS V14.01,2013-04-07 12:18:00,
2013-04-07 05:19:00,53.6,51.3,29.88,West,270,3.8,3.8,92,0.00,,,0.00,VWS V14.01,2013-04-07 12:19:00,
2013-04-07 05:20:00,53.6,51.3,29.88,WSW,248,3.8,3.8,92,0.00,,,0.00,VWS V14.01,2013-04-07 12:20:00,
2013-04-07 05:21:00,53.6,51.3,29.88,WSW,248,4.3,4.3,92,0.00,,,0.00,VWS V14.01,2013-04-07 12:21:00,
2013-04-07 05:22:00,53.6,51.3,29.88,WSW,248,4.3,4.3,92,0.00,,,0.00,VWS V14.01,2013-04-07 12:22:00,
2013-04-07 05:23:00,53.6,51.3,29.88,WSW,248,2.5,2.5,92,0.00,,,0.00,VWS V14.01,2013-04-07 12:23:00,
2013-04-07 05:24:00,53.6,51.3,29.88,NW,315,2.2,2.2,92,0.00,,,0.00,VWS V14.01,2013-04-07 12:24:00,
2013-04-07 05:25:00,53.6,51.3,29.88,WSW,248,2.5,2.5,92,0.00,,,0.00,VWS V14.01,2013-04-07 12:25:00,
2013-04-07 05:26:00,53.6,51.3,29.88,West,270,1.3,1.3,92,0.00,,,0.00,VWS V14.01,2013-04-07 12:26:00,
2013-04-07 05:27:00,53.6,51.3,29.88,West,270,1.3,1.3,92,0.00,,,0.00,VWS V14.01,2013-04-07 12:27:00,
2013-04-07 05:28:00,53.6,51.3,29.88,WSW,248,1.6,1.6,92,0.00,,,0.00,VWS V14.01,2013-04-07 12:28:00,
2013-04-07 05:29:00,53.6,51.3,29.88,WSW,248,0.9,0.9,92,0.00,,,0.00,VWS V14.01,2013-04-07 12:29:00,
2013-04-07 05:30:00,53.6,51.3,29.88,WSW,248,0.0,0.0,92,0.00,,,0.00,VWS V14.01,2013-04-07 12:30:00,
2013-04-07 05:31:00,53.6,51.3,29.88,WSW,248,2.7,2.7,92,0.00,,,0.00,VWS V14.01,2013-04-07 12:31:00,
2013-04-07 05:32:00,53.6,51.3,29.88,WSW,248,2.9,2.9,92,0.00,,,0.00,VWS V14.01,2013-04-07 12:32:00,
2013-04-07 05:33:00,53.6,51.3,29.88,WNW,292,3.1,3.1,92,0.00,,,0.00,VWS V14.01,2013-04-07 12:33:00,
2013-04-07 05:34:00,53.6,51.3,29.88,SW,225,1.6,1.6,92,0.00,,,0.00,VWS V14.01,2013-04-07 12:34:00,
2013-04-07 05:35:00,53.6,51.3,29.88,SW,225,4.0,4.0,92,0.00,,,0.00,VWS V14.01,2013-04-07 12:35:00,
2013-04-07 05:36:00,53.6,51.3,29.88,WSW,248,2.5,2.5,92,0.00,,,0.00,VWS V14.01,2013-04-07 12:36:00,
2013-04-07 05:37:00,53.6,51.3,29.88,WSW,248,2.5,2.5,92,0.00,,,0.00,VWS V14.01,2013-04-07 12:37:00,
2013-04-07 05:38:00,53.6,51.3,29.88,WSW,248,2.5,2.5,92,0.00,,,0.00,VWS V14.01,2013-04-07 12:38:00,
2013-04-07 05:39:00,53.6,51.3,29.88,WSW,248,0.0,0.0,92,0.00,,,0.00,VWS V14.01,2013-04-07 12:39:00,
2013-04-07 05:40:00,53.6,51.3,29.88,WSW,248,1.1,1.1,92,0.00,,,0.00,VWS V14.01,2013-04-07 12:40:00,
2013-04-07 05:41:00,53.6,51.3,29.88,WNW,292,2.7,2.7,92,0.00,,,0.00,VWS V14.01,2013-04-07 12:41:00,
2013-04-07 05:42:00,53.6,51.3,29.88,WNW,292,2.7,2.7,92,0.00,,,0.00,VWS V14.01,2013-04-07 12:42:00,
2013-04-07 05:43:00,53.6,51.3,29.88,WNW,292,0.0,0.0,92,0.00,,,0.00,VWS V14.01,2013-04-07 12:43:00,
2013-04-07 05:44:00,53.6,51.3,29.88,West,270,4.0,4.0,92,0.00,,,0.00,VWS V14.01,2013-04-07 12:44:00,
2013-04-07 05:45:00,53.6,51.3,29.88,WNW,292,3.1,3.1,92,0.00,,,0.00,VWS V14.01,2013-04-07 12:45:00,
2013-04-07 05:46:00,53.6,51.3,29.88,WSW,248,1.6,1.6,92,0.00,,,0.00,VWS V14.01,2013-04-07 12:46:00,
2013-04-07 05:47:00,53.6,51.3,29.88,WSW,248,3.6,3.6,92,0.00,,,0.00,VWS V14.01,2013-04-07 12:47:00,
2013-04-07 05:48:00,53.6,51.3,29.88,WSW,248,1.6,1.6,92,0.00,,,0.00,VWS V14.01,2013-04-07 12:48:00,
2013-04-07 05:49:00,53.6,51.3,29.88,WSW,248,2.9,2.9,92,0.00,,,0.00,VWS V14.01,2013-04-07 12:49:00,
2013-04-07 05:50:00,53.6,51.3,29.88,WNW,292,2.5,2.5,92,0.00,,,0.00,VWS V14.01,2013-04-07 12:50:00,
2013-04-07 05:51:00,53.6,51.3,29.88,WSW,248,2.2,2.2,92,0.00,,,0.00,VWS V14.01,2013-04-07 12:51:00,
2013-04-07 05:52:00,53.6,51.3,29.88,WSW,248,2.2,2.2,92,0.00,,,0.00,VWS V14.01,2013-04-07 12:52:00,
2013-04-07 05:53:00,53.6,51.3,29.88,West,270,1.3,1.3,92,0.00,,,0.00,VWS V14.01,2013-04-07 12:53:00,
2013-04-07 05:54:00,53.6,51.3,29.88,WSW,248,2.5,2.5,92,0.00,,,0.00,VWS V14.01,2013-04-07 12:54:00,
2013-04-07 05:56:00,53.6,51.3,29.88,West,270,1.3,1.3,92,0.00,,,0.00,VWS V14.01,2013-04-07 12:56:00,
2013-04-07 05:57:00,53.6,51.3,29.88,West,270,1.3,1.3,92,0.00,,,0.00,VWS V14.01,2013-04-07 12:57:00,
2013-04-07 05:58:00,53.6,51.3,29.88,WSW,248,3.4,3.4,92,0.00,,,0.00,VWS V14.01,2013-04-07 12:58:00,
2013-04-07 05:59:00,53.6,51.3,29.88,WSW,248,1.3,1.3,92,0.00,,,0.00,VWS V14.01,2013-04-07 12:59:00,
2013-04-07 06:00:00,53.6,51.3,29.88,SW,225,2.0,2.0,92,0.00,,,0.00,VWS V14.01,2013-04-07 13:00:00,
2013-04-07 06:01:00,53.6,51.3,29.88,WSW,248,2.5,2.5,92,0.00,,,0.00,VWS V14.01,2013-04-07 13:01:00,
2013-04-07 06:02:00,53.6,51.3,29.88,West,270,1.3,1.3,92,0.00,,,0.00,VWS V14.01,2013-04-07 13:02:00,
2013-04-07 06:03:00,53.6,51.3,29.88,West,270,1.3,1.3,92,0.00,,,0.00,VWS V14.01,2013-04-07 13:03:00,
2013-04-07 06:04:00,53.6,51.3,29.88,WSW,248,1.3,1.3,92,0.00,,,0.00,VWS V14.01,2013-04-07 13:04:00,
2013-04-07 06:05:00,53.6,51.3,29.88,WSW,248,0.0,0.0,92,0.00,,,0.00,VWS V14.01,2013-04-07 13:05:00,
2013-04-07 06:06:00,53.6,51.3,29.88,SW,225,0.0,0.0,92,0.00,,,0.00,VWS V14.01,2013-04-07 13:06:00,
2013-04-07 06:07:00,53.6,51.3,29.88,SSW,202,2.0,2.0,92,0.00,,,0.00,VWS V14.01,2013-04-07 13:07:00,
2013-04-07 06:08:00,53.6,51.3,29.88,SW,225,1.3,1.3,92,0.00,,,0.00,VWS V14.01,2013-04-07 13:08:00,
2013-04-07 06:09:00,53.6,51.3,29.88,SW,225,0.9,0.9,92,0.00,,,0.00,VWS V14.01,2013-04-07 13:09:00,
2013-04-07 06:10:00,53.6,51.3,29.88,SSW,202,0.9,0.9,92,0.00,,,0.00,VWS V14.01,2013-04-07 13:10:00,
2013-04-07 06:11:00,53.6,51.3,29.88,SSW,202,0.0,0.0,92,0.00,,,0.00,VWS V14.01,2013-04-07 13:11:00,
2013-04-07 06:12:00,53.6,51.3,29.88,SSW,202,0.0,0.0,92,0.00,,,0.00,VWS V14.01,2013-04-07 13:12:00,
2013-04-07 06:13:00,53.6,51.3,29.88,SSW,202,0.0,0.0,92,0.00,,,0.00,VWS V14.01,2013-04-07 13:13:00,
2013-04-07 06:14:00,53.6,51.3,29.88,SSW,202,0.0,0.0,92,0.00,,,0.00,VWS V14.01,2013-04-07 13:14:00,
2013-04-07 06:15:00,53.4,51.5,29.88,WSW,248,1.6,1.6,93,0.00,,,0.00,VWS V14.01,2013-04-07 13:15:00,
2013-04-07 06:16:00,53.4,51.5,29.88,WSW,248,3.8,3.8,93,0.00,,,0.00,VWS V14.01,2013-04-07 13:16:00,
2013-04-07 06:17:00,53.4,51.5,29.88,WSW,248,2.9,2.9,93,0.00,,,0.00,VWS V14.01,2013-04-07 13:17:00,
2013-04-07 06:18:00,53.4,51.5,29.88,SW,225,2.5,2.5,93,0.00,,,0.00,VWS V14.01,2013-04-07 13:18:00,
2013-04-07 06:19:00,53.4,51.5,29.88,SW,225,2.5,2.5,93,0.00,,,0.00,VWS V14.01,2013-04-07 13:19:00,
2013-04-07 06:20:00,53.4,51.5,29.88,SW,225,3.4,3.4,93,0.00,,,0.00,VWS V14.01,2013-04-07 13:20:00,
2013-04-07 06:21:00,53.4,51.5,29.88,SW,225,2.5,2.5,93,0.00,,,0.00,VWS V14.01,2013-04-07 13:21:00,
2013-04-07 06:22:00,53.4,51.5,29.88,SSW,202,2.0,2.0,93,0.00,,,0.00,VWS V14.01,2013-04-07 13:22:00,
2013-04-07 06:23:00,53.4,51.5,29.88,West,270,0.0,0.0,93,0.00,,,0.00,VWS V14.01,2013-04-07 13:23:00,
2013-04-07 06:24:00,53.4,51.5,29.88,West,270,0.0,0.0,93,0.00,,,0.00,VWS V14.01,2013-04-07 13:24:00,
2013-04-07 06:25:00,53.4,51.5,29.88,WSW,248,2.5,2.5,93,0.00,,,0.00,VWS V14.01,2013-04-07 13:25:00,
2013-04-07 06:26:00,53.4,51.5,29.88,West,270,1.3,1.3,93,0.00,,,0.00,VWS V14.01,2013-04-07 13:26:00,
2013-04-07 06:27:00,53.4,51.5,29.88,West,270,1.3,1.3,93,0.00,,,0.00,VWS V14.01,2013-04-07 13:27:00,
2013-04-07 06:28:00,53.4,51.5,29.88,WSW,248,2.7,2.7,93,0.00,,,0.00,VWS V14.01,2013-04-07 13:28:00,
2013-04-07 06:29:00,53.4,51.5,29.88,SW,225,3.4,3.4,93,0.00,,,0.00,VWS V14.01,2013-04-07 13:29:00,
2013-04-07 06:30:00,53.4,51.5,29.88,WSW,248,0.0,0.0,93,0.00,,,0.00,VWS V14.01,2013-04-07 13:30:00,
2013-04-07 06:31:00,53.4,51.5,29.88,SW,225,3.1,3.1,93,0.00,,,0.00,VWS V14.01,2013-04-07 13:31:00,
2013-04-07 06:32:00,53.4,51.5,29.88,West,270,0.0,0.0,93,0.00,,,0.00,VWS V14.01,2013-04-07 13:32:00,
2013-04-07 06:33:00,53.4,51.5,29.88,WSW,248,0.9,0.9,93,0.00,,,0.00,VWS V14.01,2013-04-07 13:33:00,
2013-04-07 06:34:00,53.4,51.5,29.88,WSW,248,1.3,1.3,93,0.00,,,0.00,VWS V14.01,2013-04-07 13:34:00,
2013-04-07 06:35:00,53.4,51.5,29.88,West,270,1.6,1.6,93,0.00,,,0.00,VWS V14.01,2013-04-07 13:35:00,
2013-04-07 06:36:00,53.4,51.5,29.88,SW,225,2.5,2.5,93,0.00,,,0.00,VWS V14.01,2013-04-07 13:36:00,
2013-04-07 06:37:00,53.4,51.5,29.88,WSW,248,1.6,1.6,93,0.00,,,0.00,VWS V14.01,2013-04-07 13:37:00,
2013-04-07 06:38:00,53.4,51.5,29.88,WSW,248,3.4,3.4,93,0.00,,,0.00,VWS V14.01,2013-04-07 13:38:00,
2013-04-07 06:39:00,53.4,51.5,29.88,WSW,248,4.0,4.0,93,0.00,,,0.00,VWS V14.01,2013-04-07 13:39:00,
2013-04-07 06:40:00,53.4,51.5,29.88,WSW,248,4.0,4.0,93,0.00,,,0.00,VWS V14.01,2013-04-07 13:40:00,
2013-04-07 06:41:00,53.4,51.5,29.88,WSW,248,1.6,1.6,93,0.00,,,0.00,VWS V14.01,2013-04-07 13:41:00,
2013-04-07 06:42:00,53.4,51.5,29.88,WSW,248,2.5,2.5,93,0.00,,,0.00,VWS V14.01,2013-04-07 13:42:00,
2013-04-07 06:43:00,53.4,51.5,29.88,SW,225,0.0,0.0,93,0.00,,,0.00,VWS V14.01,2013-04-07 13:43:00,
2013-04-07 06:44:00,53.4,51.5,29.88,WSW,248,0.0,0.0,93,0.00,,,0.00,VWS V14.01,2013-04-07 13:44:00,
2013-04-07 06:45:00,53.4,51.5,29.88,WSW,248,1.6,1.6,93,0.00,,,0.00,VWS V14.01,2013-04-07 13:45:00,
2013-04-07 06:46:00,53.4,51.5,29.88,WSW,248,1.6,1.6,93,0.00,,,0.00,VWS V14.01,2013-04-07 13:46:00,
2013-04-07 06:47:00,53.4,51.5,29.88,WSW,248,1.1,1.1,93,0.00,,,0.00,VWS V14.01,2013-04-07 13:47:00,
2013-04-07 06:48:00,53.4,51.5,29.88,WSW,248,0.9,0.9,93,0.00,,,0.00,VWS V14.01,2013-04-07 13:48:00,
2013-04-07 06:49:00,53.4,51.5,29.88,WSW,248,0.0,0.0,93,0.00,,,0.00,VWS V14.01,2013-04-07 13:49:00,
2013-04-07 06:50:00,53.4,51.5,29.88,WSW,248,0.0,0.0,93,0.00,,,0.00,VWS V14.01,2013-04-07 13:50:00,
2013-04-07 06:51:00,53.4,51.5,29.88,WSW,248,0.0,0.0,93,0.00,,,0.00,VWS V14.01,2013-04-07 13:51:00,
2013-04-07 06:52:00,53.4,51.5,29.88,SW,225,1.3,1.3,93,0.00,,,0.00,VWS V14.01,2013-04-07 13:52:00,
2013-04-07 06:53:00,53.4,51.5,29.88,WSW,248,2.0,2.0,93,0.00,,,0.00,VWS V14.01,2013-04-07 13:53:00,
2013-04-07 06:54:00,53.4,51.5,29.88,West,270,1.1,1.1,93,0.00,,,0.00,VWS V14.01,2013-04-07 13:54:00,
2013-04-07 06:55:00,53.4,51.5,29.88,West,270,0.0,0.0,93,0.00,,,0.00,VWS V14.01,2013-04-07 13:55:00,
2013-04-07 06:56:00,53.4,51.5,29.88,West,270,1.6,1.6,93,0.00,,,0.00,VWS V14.01,2013-04-07 13:56:00,
2013-04-07 06:57:00,53.4,51.5,29.88,West,270,0.0,0.0,93,0.00,,,0.00,VWS V14.01,2013-04-07 13:57:00,
2013-04-07 06:58:00,53.4,51.5,29.88,West,270,0.0,0.0,93,0.00,,,0.00,VWS V14.01,2013-04-07 13:58:00,
2013-04-07 06:59:00,53.4,51.5,29.88,West,270,1.3,1.3,93,0.00,,,0.00,VWS V14.01,2013-04-07 13:59:00,
2013-04-07 07:00:00,53.4,51.5,29.88,West,270,0.0,0.0,93,0.00,,,0.00,VWS V14.01,2013-04-07 14:00:00,
2013-04-07 07:01:00,53.4,51.5,29.88,West,270,0.0,0.0,93,0.00,,,0.00,VWS V14.01,2013-04-07 14:01:00,
2013-04-07 07:02:00,53.4,51.5,29.88,West,270,0.0,0.0,93,0.00,,,0.00,VWS V14.01,2013-04-07 14:02:00,
2013-04-07 07:03:00,53.4,51.5,29.88,West,270,0.0,0.0,93,0.00,,,0.00,VWS V14.01,2013-04-07 14:03:00,
2013-04-07 07:04:00,53.4,51.5,29.88,West,270,0.0,0.0,93,0.00,,,0.00,VWS V14.01,2013-04-07 14:04:00,
2013-04-07 07:05:00,53.4,51.5,29.88,West,270,0.0,0.0,93,0.00,,,0.00,VWS V14.01,2013-04-07 14:05:00,
2013-04-07 07:06:00,53.4,51.5,29.88,West,270,0.0,0.0,93,0.00,,,0.00,VWS V14.01,2013-04-07 14:06:00,
2013-04-07 07:07:00,53.4,51.5,29.88,West,270,0.0,0.0,93,0.00,,,0.00,VWS V14.01,2013-04-07 14:07:00,
2013-04-07 07:08:00,53.4,51.5,29.88,West,270,0.0,0.0,93,0.00,,,0.00,VWS V14.01,2013-04-07 14:08:00,
2013-04-07 07:09:00,53.4,51.5,29.88,West,270,0.0,0.0,93,0.00,,,0.00,VWS V14.01,2013-04-07 14:09:00,
2013-04-07 07:10:00,53.4,51.5,29.88,West,270,0.0,0.0,93,0.00,,,0.00,VWS V14.01,2013-04-07 14:10:00,
2013-04-07 07:11:00,53.4,51.5,29.88,West,270,1.3,1.3,93,0.00,,,0.00,VWS V14.01,2013-04-07 14:11:00,
2013-04-07 07:12:00,53.4,51.5,29.88,West,270,2.0,2.0,93,0.00,,,0.00,VWS V14.01,2013-04-07 14:12:00,
2013-04-07 07:13:00,53.4,51.5,29.88,West,270,0.0,0.0,93,0.00,,,0.00,VWS V14.01,2013-04-07 14:13:00,
2013-04-07 07:14:00,53.4,51.5,29.88,WSW,248,0.0,0.0,93,0.00,,,0.00,VWS V14.01,2013-04-07 14:14:00,
2013-04-07 07:15:00,53.4,51.5,29.88,WSW,248,0.0,0.0,93,0.00,,,0.00,VWS V14.01,2013-04-07 14:15:00,
2013-04-07 07:16:00,53.4,51.5,29.88,West,270,1.1,1.1,93,0.00,,,0.00,VWS V14.01,2013-04-07 14:16:00,
2013-04-07 07:17:00,53.4,51.5,29.88,West,270,1.6,1.6,93,0.00,,,0.00,VWS V14.01,2013-04-07 14:17:00,
2013-04-07 07:18:00,53.4,51.5,29.88,West,270,1.6,1.6,93,0.00,,,0.00,VWS V14.01,2013-04-07 14:18:00,
2013-04-07 07:19:00,53.4,51.5,29.88,West,270,1.1,1.1,93,0.00,,,0.00,VWS V14.01,2013-04-07 14:19:00,
2013-04-07 07:20:00,53.4,51.5,29.88,West,270,0.0,0.0,93,0.00,,,0.00,VWS V14.01,2013-04-07 14:20:00,
2013-04-07 07:21:00,53.4,51.5,29.88,West,270,1.1,1.1,93,0.00,,,0.00,VWS V14.01,2013-04-07 14:21:00,
2013-04-07 07:22:00,53.4,51.5,29.88,West,270,0.0,0.0,93,0.00,,,0.00,VWS V14.01,2013-04-07 14:22:00,
2013-04-07 07:23:00,53.4,51.5,29.88,West,270,0.0,0.0,93,0.00,,,0.00,VWS V14.01,2013-04-07 14:23:00,
2013-04-07 07:24:00,53.4,51.5,29.88,West,270,0.0,0.0,93,0.00,,,0.00,VWS V14.01,2013-04-07 14:24:00,
2013-04-07 07:25:00,53.4,51.5,29.88,West,270,0.0,0.0,93,0.00,,,0.00,VWS V14.01,2013-04-07 14:25:00,
2013-04-07 07:26:00,53.4,51.5,29.88,West,270,0.0,0.0,93,0.00,,,0.00,VWS V14.01,2013-04-07 14:26:00,
2013-04-07 07:27:00,53.4,51.5,29.88,West,270,0.0,0.0,93,0.00,,,0.00,VWS V14.01,2013-04-07 14:27:00,
2013-04-07 07:28:00,53.4,51.5,29.88,West,270,0.0,0.0,93,0.00,,,0.00,VWS V14.01,2013-04-07 14:28:00,
2013-04-07 07:29:00,53.4,51.5,29.88,West,270,0.0,0.0,93,0.00,,,0.00,VWS V14.01,2013-04-07 14:29:00,
2013-04-07 07:30:00,53.4,51.5,29.88,West,270,0.0,0.0,93,0.00,,,0.00,VWS V14.01,2013-04-07 14:30:00,
2013-04-07 07:31:00,53.4,51.5,29.88,West,270,0.0,0.0,93,0.00,,,0.00,VWS V14.01,2013-04-07 14:31:00,
2013-04-07 07:32:00,53.6,51.6,29.88,West,270,0.0,0.0,93,0.00,,,0.00,VWS V14.01,2013-04-07 14:32:00,
2013-04-07 07:33:00,53.6,51.6,29.88,West,270,0.0,0.0,93,0.00,,,0.00,VWS V14.01,2013-04-07 14:33:00,
2013-04-07 07:34:00,53.8,51.8,29.88,West,270,0.0,0.0,93,0.00,,,0.00,VWS V14.01,2013-04-07 14:34:00,
2013-04-07 07:35:00,53.8,51.8,29.88,WSW,248,0.0,0.0,93,0.00,,,0.00,VWS V14.01,2013-04-07 14:35:00,
2013-04-07 07:36:00,53.8,51.8,29.88,WSW,248,2.2,2.2,93,0.00,,,0.00,VWS V14.01,2013-04-07 14:36:00,
2013-04-07 07:37:00,53.8,51.8,29.88,West,270,0.0,0.0,93,0.00,,,0.00,VWS V14.01,2013-04-07 14:37:00,
2013-04-07 07:38:00,53.8,51.8,29.88,West,270,0.0,0.0,93,0.00,,,0.00,VWS V14.01,2013-04-07 14:38:00,
2013-04-07 07:39:00,53.8,51.8,29.88,West,270,0.0,0.0,93,0.00,,,0.00,VWS V14.01,2013-04-07 14:39:00,
2013-04-07 07:40:00,54.1,51.9,29.88,West,270,0.0,0.0,92,0.00,,,0.00,VWS V14.01,2013-04-07 14:40:00,
2013-04-07 07:41:00,54.1,51.9,29.88,West,270,0.0,0.0,92,0.00,,,0.00,VWS V14.01,2013-04-07 14:41:00,
2013-04-07 07:42:00,54.3,52.0,29.88,West,270,0.0,0.0,92,0.00,,,0.00,VWS V14.01,2013-04-07 14:42:00,
2013-04-07 07:43:00,54.3,52.0,29.88,West,270,2.5,2.5,92,0.00,,,0.00,VWS V14.01,2013-04-07 14:43:00,
2013-04-07 07:44:00,54.3,52.0,29.88,West,270,0.0,0.0,92,0.00,,,0.00,VWS V14.01,2013-04-07 14:44:00,
2013-04-07 07:45:00,54.3,52.0,29.88,WSW,248,0.0,0.0,92,0.00,,,0.00,VWS V14.01,2013-04-07 14:45:00,
2013-04-07 07:46:00,54.3,52.0,29.88,SW,225,2.9,2.9,92,0.00,,,0.00,VWS V14.01,2013-04-07 14:46:00,
2013-04-07 07:47:00,54.3,52.0,29.88,West,270,0.0,0.0,92,0.00,,,0.00,VWS V14.01,2013-04-07 14:47:00,
2013-04-07 07:48:00,54.3,52.0,29.88,West,270,0.0,0.0,92,0.00,,,0.00,VWS V14.01,2013-04-07 14:48:00,
2013-04-07 07:49:00,54.3,52.0,29.88,SSW,202,0.0,0.0,92,0.00,,,0.00,VWS V14.01,2013-04-07 14:49:00,
2013-04-07 07:50:00,54.1,51.9,29.88,WSW,248,0.0,0.0,92,0.00,,,0.00,VWS V14.01,2013-04-07 14:50:00,
2013-04-07 07:51:00,54.1,51.9,29.88,West,270,0.9,0.9,92,0.00,,,0.00,VWS V14.01,2013-04-07 14:51:00,
2013-04-07 07:52:00,54.1,51.9,29.88,SW,225,2.7,2.7,92,0.00,,,0.00,VWS V14.01,2013-04-07 14:52:00,
2013-04-07 07:53:00,54.1,51.9,29.88,SW,225,2.7,2.7,92,0.00,,,0.00,VWS V14.01,2013-04-07 14:53:00,
2013-04-07 07:54:00,54.1,51.9,29.88,SW,225,2.0,2.0,92,0.00,,,0.00,VWS V14.01,2013-04-07 14:54:00,
2013-04-07 07:55:00,54.1,51.9,29.88,WSW,248,6.5,6.5,92,0.00,,,0.00,VWS V14.01,2013-04-07 14:55:00,
2013-04-07 07:56:00,54.1,51.9,29.88,SW,225,3.1,3.1,92,0.00,,,0.00,VWS V14.01,2013-04-07 14:56:00,
2013-04-07 07:57:00,54.1,51.9,29.88,WNW,292,3.4,3.4,92,0.00,,,0.00,VWS V14.01,2013-04-07 14:57:00,
2013-04-07 07:58:00,54.1,51.9,29.88,WSW,248,4.9,4.9,92,0.00,,,0.00,VWS V14.01,2013-04-07 14:58:00,
2013-04-07 07:59:00,54.1,51.9,29.88,SW,225,5.8,5.8,92,0.00,,,0.00,VWS V14.01,2013-04-07 14:59:00,
2013-04-07 08:00:00,54.1,51.9,29.88,SW,225,3.6,3.6,92,0.00,,,0.00,VWS V14.01,2013-04-07 15:00:00,
2013-04-07 08:01:00,54.3,52.0,29.88,SW,225,4.9,4.9,92,0.00,,,0.00,VWS V14.01,2013-04-07 15:01:00,
2013-04-07 08:02:00,54.3,52.0,29.88,SW,225,3.8,3.8,92,0.00,,,0.00,VWS V14.01,2013-04-07 15:02:00,
2013-04-07 08:03:00,54.3,52.0,29.88,SW,225,3.8,3.8,92,0.00,,,0.00,VWS V14.01,2013-04-07 15:03:00,
2013-04-07 08:04:00,54.3,52.0,29.88,SW,225,3.8,3.8,92,0.00,,,0.00,VWS V14.01,2013-04-07 15:04:00,
2013-04-07 08:05:00,54.3,52.0,29.88,SSW,202,4.0,4.0,92,0.00,,,0.00,VWS V14.01,2013-04-07 15:05:00,
2013-04-07 08:06:00,54.3,52.0,29.88,SSW,202,4.9,4.9,92,0.00,,,0.00,VWS V14.01,2013-04-07 15:06:00,
2013-04-07 08:07:00,54.3,52.0,29.88,WSW,248,4.9,4.9,92,0.00,,,0.00,VWS V14.01,2013-04-07 15:07:00,
2013-04-07 08:08:00,54.5,52.2,29.88,SSW,202,4.7,4.7,92,0.00,,,0.00,VWS V14.01,2013-04-07 15:08:00,
2013-04-07 08:09:00,54.5,52.2,29.88,WSW,248,7.4,7.4,92,0.00,,,0.00,VWS V14.01,2013-04-07 15:09:00,
2013-04-07 08:10:00,54.5,52.2,29.88,WSW,248,7.4,7.4,92,0.00,,,0.00,VWS V14.01,2013-04-07 15:10:00,
2013-04-07 08:11:00,54.5,52.2,29.88,SSW,202,3.6,3.6,92,0.00,,,0.00,VWS V14.01,2013-04-07 15:11:00,
2013-04-07 08:12:00,54.5,52.2,29.88,WSW,248,4.0,4.0,92,0.00,,,0.00,VWS V14.01,2013-04-07 15:12:00,
2013-04-07 08:13:00,54.7,52.4,29.88,WSW,248,3.6,3.6,92,0.00,,,0.00,VWS V14.01,2013-04-07 15:13:00,
2013-04-07 08:14:00,54.7,52.4,29.88,SW,225,4.0,4.0,92,0.00,,,0.00,VWS V14.01,2013-04-07 15:14:00,
2013-04-07 08:15:00,54.7,52.4,29.88,SSW,202,5.6,5.6,92,0.00,,,0.00,VWS V14.01,2013-04-07 15:15:00,
2013-04-07 08:16:00,54.7,52.4,29.88,SSW,202,5.6,5.6,92,0.00,,,0.00,VWS V14.01,2013-04-07 15:16:00,
2013-04-07 08:17:00,54.7,52.4,29.88,WSW,248,3.1,3.1,92,0.00,,,0.00,VWS V14.01,2013-04-07 15:17:00,
2013-04-07 08:18:00,54.7,52.4,29.88,SW,225,4.9,4.9,92,0.00,,,0.00,VWS V14.01,2013-04-07 15:18:00,
2013-04-07 08:19:00,54.9,52.6,29.88,SW,225,7.6,7.6,92,0.00,,,0.00,VWS V14.01,2013-04-07 15:19:00,
2013-04-07 08:20:00,54.9,52.6,29.88,SW,225,7.6,7.6,92,0.00,,,0.00,VWS V14.01,2013-04-07 15:20:00,
2013-04-07 08:21:00,54.9,52.6,29.88,SSW,202,3.4,3.4,92,0.00,,,0.00,VWS V14.01,2013-04-07 15:21:00,
2013-04-07 08:22:00,54.9,52.6,29.88,SW,225,5.6,5.6,92,0.00,,,0.00,VWS V14.01,2013-04-07 15:22:00,
2013-04-07 08:23:00,54.9,52.6,29.88,SW,225,5.6,5.6,92,0.00,,,0.00,VWS V14.01,2013-04-07 15:23:00,
2013-04-07 08:24:00,54.9,52.6,29.88,West,270,3.4,3.4,92,0.00,,,0.00,VWS V14.01,2013-04-07 15:24:00,
2013-04-07 08:25:00,54.9,52.6,29.88,SW,225,4.3,4.3,92,0.00,,,0.00,VWS V14.01,2013-04-07 15:25:00,
2013-04-07 08:26:00,55.0,52.5,29.88,SW,225,8.7,8.7,91,0.00,,,0.00,VWS V14.01,2013-04-07 15:26:00,
2013-04-07 08:27:00,55.0,52.5,29.88,SSW,202,6.0,6.0,91,0.00,,,0.00,VWS V14.01,2013-04-07 15:27:00,
2013-04-07 08:28:00,55.0,52.5,29.88,SSW,202,6.0,6.0,91,0.00,,,0.00,VWS V14.01,2013-04-07 15:28:00,
2013-04-07 08:29:00,55.0,52.5,29.88,SW,225,4.0,4.0,91,0.00,,,0.00,VWS V14.01,2013-04-07 15:29:00,
2013-04-07 08:30:00,55.0,52.5,29.88,WSW,248,5.6,5.6,91,0.00,,,0.00,VWS V14.01,2013-04-07 15:30:00,
2013-04-07 08:31:00,55.0,52.5,29.88,SW,225,8.5,8.5,91,0.00,,,0.00,VWS V14.01,2013-04-07 15:31:00,
2013-04-07 08:32:00,55.0,52.5,29.88,SW,225,8.5,8.5,91,0.00,,,0.00,VWS V14.01,2013-04-07 15:32:00,
2013-04-07 08:33:00,55.0,52.5,29.88,West,270,3.1,3.1,91,0.00,,,0.00,VWS V14.01,2013-04-07 15:33:00,
2013-04-07 08:34:00,55.0,52.5,29.88,SW,225,8.1,8.1,91,0.00,,,0.00,VWS V14.01,2013-04-07 15:34:00,
2013-04-07 08:35:00,55.0,52.5,29.88,West,270,4.5,4.5,91,0.00,,,0.00,VWS V14.01,2013-04-07 15:35:00,
2013-04-07 08:36:00,55.2,52.6,29.88,SW,225,6.5,6.5,91,0.00,,,0.00,VWS V14.01,2013-04-07 15:36:00,
2013-04-07 08:37:00,55.2,52.6,29.88,SW,225,8.7,8.7,91,0.00,,,0.00,VWS V14.01,2013-04-07 15:37:00,
2013-04-07 08:38:00,55.2,52.6,29.88,SW,225,8.7,8.7,91,0.00,,,0.00,VWS V14.01,2013-04-07 15:38:00,
2013-04-07 08:39:00,55.2,52.6,29.88,WSW,248,4.9,4.9,91,0.00,,,0.00,VWS V14.01,2013-04-07 15:39:00,
2013-04-07 08:40:00,55.2,52.6,29.88,WSW,248,5.6,5.6,91,0.00,,,0.00,VWS V14.01,2013-04-07 15:40:00,
2013-04-07 08:41:00,55.2,52.6,29.88,SSW,202,4.9,4.9,91,0.00,,,0.00,VWS V14.01,2013-04-07 15:41:00,
2013-04-07 08:42:00,55.2,52.6,29.88,SW,225,4.0,4.0,91,0.00,,,0.00,VWS V14.01,2013-04-07 15:42:00,
2013-04-07 08:43:00,55.6,52.7,29.88,WSW,248,2.9,2.9,90,0.00,,,0.00,VWS V14.01,2013-04-07 15:43:00,
2013-04-07 08:44:00,55.6,52.7,29.88,WSW,248,2.9,2.9,90,0.00,,,0.00,VWS V14.01,2013-04-07 15:44:00,
2013-04-07 08:45:00,55.6,52.7,29.88,WSW,248,2.9,2.9,90,0.00,,,0.00,VWS V14.01,2013-04-07 15:45:00,
2013-04-07 08:46:00,55.6,52.7,29.88,WSW,248,2.9,2.9,90,0.00,,,0.00,VWS V14.01,2013-04-07 15:46:00,
2013-04-07 08:47:00,55.6,52.7,29.88,WSW,248,2.9,2.9,90,0.00,,,0.00,VWS V14.01,2013-04-07 15:47:00,
2013-04-07 08:48:00,55.6,52.7,29.88,WSW,248,5.8,5.8,90,0.00,,,0.00,VWS V14.01,2013-04-07 15:48:00,
2013-04-07 08:49:00,55.6,52.7,29.88,WSW,248,3.8,3.8,90,0.00,,,0.00,VWS V14.01,2013-04-07 15:49:00,
2013-04-07 08:50:00,55.6,52.7,29.88,WSW,248,4.3,4.3,90,0.00,,,0.00,VWS V14.01,2013-04-07 15:50:00,
2013-04-07 08:51:00,55.6,52.7,29.88,SSW,202,6.5,6.5,90,0.00,,,0.00,VWS V14.01,2013-04-07 15:51:00,
2013-04-07 08:52:00,55.6,52.7,29.88,SSW,202,4.0,4.0,90,0.00,,,0.00,VWS V14.01,2013-04-07 15:52:00,
2013-04-07 08:53:00,55.6,52.7,29.88,WSW,248,0.0,0.0,90,0.00,,,0.00,VWS V14.01,2013-04-07 15:53:00,
2013-04-07 08:54:00,55.8,52.9,29.88,WSW,248,0.0,0.0,90,0.00,,,0.00,VWS V14.01,2013-04-07 15:54:00,
2013-04-07 08:55:00,55.8,52.9,29.88,SW,225,4.0,4.0,90,0.00,,,0.00,VWS V14.01,2013-04-07 15:55:00,
2013-04-07 08:56:00,55.8,52.9,29.88,SW,225,4.0,4.0,90,0.00,,,0.00,VWS V14.01,2013-04-07 15:56:00,
2013-04-07 08:57:00,55.8,52.9,29.88,SSE,158,2.5,2.5,90,0.00,,,0.00,VWS V14.01,2013-04-07 15:57:00,
2013-04-07 08:58:00,55.8,52.9,29.88,WSW,248,2.5,2.5,90,0.00,,,0.00,VWS V14.01,2013-04-07 15:58:00,
2013-04-07 08:59:00,55.8,52.9,29.88,WSW,248,2.5,2.5,90,0.00,,,0.00,VWS V14.01,2013-04-07 15:59:00,
2013-04-07 09:00:00,55.8,52.9,29.88,WSW,248,5.8,5.8,90,0.00,,,0.00,VWS V14.01,2013-04-07 16:00:00,
2013-04-07 09:01:00,55.8,52.9,29.88,SW,225,3.4,3.4,90,0.00,,,0.00,VWS V14.01,2013-04-07 16:01:00,
2013-04-07 09:02:00,55.8,52.9,29.88,SW,225,8.7,8.7,90,0.00,,,0.00,VWS V14.01,2013-04-07 16:02:00,
2013-04-07 09:03:00,55.8,52.6,29.88,WSW,248,4.7,4.7,89,0.00,,,0.00,VWS V14.01,2013-04-07 16:03:00,
2013-04-07 09:04:00,55.8,52.9,29.88,SW,225,5.6,5.6,90,0.00,,,0.00,VWS V14.01,2013-04-07 16:04:00,
2013-04-07 09:05:00,55.8,52.9,29.88,WSW,248,4.3,4.3,90,0.00,,,0.00,VWS V14.01,2013-04-07 16:05:00,
2013-04-07 09:06:00,55.8,52.6,29.88,WSW,248,3.8,3.8,89,0.00,,,0.00,VWS V14.01,2013-04-07 16:06:00,
2013-04-07 09:07:00,55.8,52.6,29.88,SW,225,4.0,4.0,89,0.00,,,0.00,VWS V14.01,2013-04-07 16:07:00,
2013-04-07 09:08:00,55.8,52.6,29.88,SSW,202,3.8,3.8,89,0.00,,,0.00,VWS V14.01,2013-04-07 16:08:00,
2013-04-07 09:09:00,55.8,52.6,29.88,SSW,202,3.1,3.1,89,0.00,,,0.00,VWS V14.01,2013-04-07 16:09:00,
2013-04-07 09:10:00,55.8,52.6,29.88,South,180,2.0,2.0,89,0.00,,,0.00,VWS V14.01,2013-04-07 16:10:00,
2013-04-07 09:11:00,55.8,52.6,29.88,WNW,292,1.6,1.6,89,0.00,,,0.00,VWS V14.01,2013-04-07 16:11:00,
2013-04-07 09:12:00,56.1,52.9,29.88,NW,315,3.6,3.6,89,0.00,,,0.00,VWS V14.01,2013-04-07 16:12:00,
2013-04-07 09:13:00,56.3,53.1,29.88,SW,225,3.6,3.6,89,0.00,,,0.00,VWS V14.01,2013-04-07 16:13:00,
2013-04-07 09:14:00,56.3,53.1,29.88,SSW,202,6.5,6.5,89,0.00,,,0.00,VWS V14.01,2013-04-07 16:14:00,
2013-04-07 09:15:00,56.1,52.9,29.88,West,270,3.4,3.4,89,0.00,,,0.00,VWS V14.01,2013-04-07 16:15:00,
2013-04-07 09:16:00,56.1,52.9,29.88,ENE,68,1.6,1.6,89,0.00,,,0.00,VWS V14.01,2013-04-07 16:16:00,
2013-04-07 09:17:00,56.3,53.1,29.88,WSW,248,3.6,3.6,89,0.00,,,0.00,VWS V14.01,2013-04-07 16:17:00,
2013-04-07 09:18:00,56.3,53.1,29.88,SSW,202,4.9,4.9,89,0.00,,,0.00,VWS V14.01,2013-04-07 16:18:00,
2013-04-07 09:19:00,56.3,53.1,29.88,SW,225,5.6,5.6,89,0.00,,,0.00,VWS V14.01,2013-04-07 16:19:00,
2013-04-07 09:20:00,56.1,52.9,29.88,SW,225,2.9,2.9,89,0.00,,,0.00,VWS V14.01,2013-04-07 16:20:00,
2013-04-07 09:21:00,56.1,52.9,29.88,SSW,202,3.8,3.8,89,0.00,,,0.00,VWS V14.01,2013-04-07 16:21:00,
2013-04-07 09:22:00,56.1,52.9,29.88,WSW,248,4.3,4.3,89,0.00,,,0.00,VWS V14.01,2013-04-07 16:22:00,
2013-04-07 09:23:00,56.1,52.9,29.88,SW,225,7.2,7.2,89,0.00,,,0.00,VWS V14.01,2013-04-07 16:23:00,
2013-04-07 09:24:00,56.3,53.1,29.88,SSE,158,4.7,4.7,89,0.00,,,0.00,VWS V14.01,2013-04-07 16:24:00,
2013-04-07 09:25:00,56.3,53.1,29.88,SW,225,4.3,4.3,89,0.00,,,0.00,VWS V14.01,2013-04-07 16:25:00,
2013-04-07 09:26:00,56.3,53.1,29.88,SW,225,4.3,4.3,89,0.00,,,0.00,VWS V14.01,2013-04-07 16:26:00,
2013-04-07 09:27:00,56.5,53.3,29.88,SW,225,3.4,3.4,89,0.00,,,0.00,VWS V14.01,2013-04-07 16:27:00,
2013-04-07 09:28:00,56.5,53.3,29.88,SW,225,2.7,2.7,89,0.00,,,0.00,VWS V14.01,2013-04-07 16:28:00,
2013-04-07 09:29:00,56.7,53.5,29.88,West,270,2.9,2.9,89,0.00,,,0.00,VWS V14.01,2013-04-07 16:29:00,
2013-04-07 09:30:00,56.7,53.5,29.88,SSW,202,2.9,2.9,89,0.00,,,0.00,VWS V14.01,2013-04-07 16:30:00,
2013-04-07 09:31:00,56.7,53.5,29.88,SW,225,2.9,2.9,89,0.00,,,0.00,VWS V14.01,2013-04-07 16:31:00,
2013-04-07 09:32:00,56.7,53.5,29.88,SSW,202,3.8,3.8,89,0.00,,,0.00,VWS V14.01,2013-04-07 16:32:00,
2013-04-07 09:33:00,56.8,53.6,29.88,SW,225,2.9,2.9,89,0.00,,,0.00,VWS V14.01,2013-04-07 16:33:00,
2013-04-07 09:34:00,56.8,53.6,29.88,SSW,202,4.0,4.0,89,0.00,,,0.00,VWS V14.01,2013-04-07 16:34:00,
2013-04-07 09:35:00,56.8,53.6,29.88,SW,225,6.5,6.5,89,0.00,,,0.00,VWS V14.01,2013-04-07 16:35:00,
2013-04-07 09:36:00,56.7,53.5,29.88,WSW,248,3.8,3.8,89,0.00,,,0.00,VWS V14.01,2013-04-07 16:36:00,
2013-04-07 09:37:00,56.7,53.5,29.88,South,180,4.3,4.3,89,0.00,,,0.00,VWS V14.01,2013-04-07 16:37:00,
2013-04-07 09:38:00,56.7,53.2,29.88,SW,225,3.8,3.8,88,0.00,,,0.00,VWS V14.01,2013-04-07 16:38:00,
2013-04-07 09:39:00,56.7,53.2,29.88,SW,225,5.4,5.4,88,0.00,,,0.00,VWS V14.01,2013-04-07 16:39:00,
2013-04-07 09:40:00,56.7,53.2,29.88,SSW,202,8.1,8.1,88,0.00,,,0.00,VWS V14.01,2013-04-07 16:40:00,
2013-04-07 09:41:00,56.7,53.2,29.88,WSW,248,6.5,6.5,88,0.00,,,0.00,VWS V14.01,2013-04-07 16:41:00,
2013-04-07 09:42:00,56.7,53.2,29.88,WSW,248,6.5,6.5,88,0.00,,,0.00,VWS V14.01,2013-04-07 16:42:00,
2013-04-07 09:43:00,56.7,53.2,29.88,SSW,202,6.9,6.9,88,0.00,,,0.00,VWS V14.01,2013-04-07 16:43:00,
2013-04-07 09:44:00,56.7,53.2,29.88,SW,225,7.6,7.6,88,0.00,,,0.00,VWS V14.01,2013-04-07 16:44:00,
2013-04-07 09:45:00,56.7,53.2,29.88,South,180,4.3,4.3,88,0.00,,,0.00,VWS V14.01,2013-04-07 16:45:00,
2013-04-07 09:46:00,56.7,53.2,29.88,SSW,202,6.0,6.0,88,0.00,,,0.00,VWS V14.01,2013-04-07 16:46:00,
2013-04-07 09:47:00,56.8,53.0,29.88,WSW,248,3.8,3.8,87,0.00,,,0.00,VWS V14.01,2013-04-07 16:47:00,
2013-04-07 09:48:00,56.8,53.0,29.88,SW,225,2.0,2.0,87,0.00,,,0.00,VWS V14.01,2013-04-07 16:48:00,
2013-04-07 09:49:00,57.2,53.4,29.88,SW,225,6.3,6.3,87,0.00,,,0.00,VWS V14.01,2013-04-07 16:49:00,
2013-04-07 09:50:00,57.2,53.4,29.88,SW,225,6.3,6.3,87,0.00,,,0.00,VWS V14.01,2013-04-07 16:50:00,
2013-04-07 09:51:00,57.2,53.4,29.88,West,270,3.4,3.4,87,0.00,,,0.00,VWS V14.01,2013-04-07 16:51:00,
2013-04-07 09:52:00,57.4,53.5,29.88,WSW,248,5.4,5.4,87,0.00,,,0.00,VWS V14.01,2013-04-07 16:52:00,
2013-04-07 09:53:00,57.4,53.5,29.88,SW,225,7.6,7.6,87,0.00,,,0.00,VWS V14.01,2013-04-07 16:53:00,
2013-04-07 09:54:00,57.4,53.5,29.88,SW,225,9.8,9.8,87,0.00,,,0.00,VWS V14.01,2013-04-07 16:54:00,
2013-04-07 09:55:00,57.4,53.5,29.88,South,180,9.2,9.2,87,0.00,,,0.00,VWS V14.01,2013-04-07 16:55:00,
2013-04-07 09:56:00,57.4,53.5,29.88,SW,225,7.8,7.8,87,0.00,,,0.00,VWS V14.01,2013-04-07 16:56:00,
2013-04-07 09:57:00,57.0,53.2,29.88,SSW,202,5.6,5.6,87,0.00,,,0.00,VWS V14.01,2013-04-07 16:57:00,
2013-04-07 09:58:00,57.0,53.2,29.88,SW,225,8.5,8.5,87,0.00,,,0.00,VWS V14.01,2013-04-07 16:58:00,
2013-04-07 09:59:00,57.0,53.2,29.88,WSW,248,4.7,4.7,87,0.00,,,0.00,VWS V14.01,2013-04-07 16:59:00,
2013-04-07 10:00:00,57.0,53.2,29.88,SW,225,10.7,10.7,87,0.00,,,0.00,VWS V14.01,2013-04-07 17:00:00,
2013-04-07 10:01:00,57.0,53.2,29.88,SW,225,10.1,10.1,87,0.00,,,0.00,VWS V14.01,2013-04-07 17:01:00,
2013-04-07 10:02:00,57.0,53.2,29.88,WSW,248,10.3,10.3,87,0.00,,,0.00,VWS V14.01,2013-04-07 17:02:00,
2013-04-07 10:03:00,57.2,53.4,29.88,SSW,202,12.1,12.1,87,0.00,,,0.00,VWS V14.01,2013-04-07 17:03:00,
2013-04-07 10:04:00,57.2,53.4,29.88,SW,225,7.4,7.4,87,0.00,,,0.00,VWS V14.01,2013-04-07 17:04:00,
2013-04-07 10:05:00,57.0,53.5,29.88,SW,225,10.1,10.1,88,0.00,,,0.00,VWS V14.01,2013-04-07 17:05:00,
2013-04-07 10:06:00,57.2,53.4,29.88,SW,225,11.0,11.0,87,0.00,,,0.00,VWS V14.01,2013-04-07 17:06:00,
2013-04-07 10:07:00,57.2,53.4,29.88,SSW,202,6.5,6.5,87,0.00,,,0.00,VWS V14.01,2013-04-07 17:07:00,
2013-04-07 10:08:00,57.2,53.4,29.88,WSW,248,8.1,8.1,87,0.00,,,0.00,VWS V14.01,2013-04-07 17:08:00,
2013-04-07 10:09:00,57.2,53.4,29.88,WSW,248,10.5,10.5,87,0.00,,,0.00,VWS V14.01,2013-04-07 17:09:00,
2013-04-07 10:11:00,57.2,53.7,29.88,WSW,248,10.5,10.5,88,0.00,,,0.00,VWS V14.01,2013-04-07 17:11:00,
2013-04-07 10:12:00,57.2,53.7,29.88,SW,225,6.3,6.3,88,0.00,,,0.00,VWS V14.01,2013-04-07 17:12:00,
2013-04-07 10:13:00,57.2,53.7,29.88,WNW,292,7.8,7.8,88,0.00,,,0.00,VWS V14.01,2013-04-07 17:13:00,
2013-04-07 10:14:00,57.2,53.7,29.88,WSW,248,10.5,10.5,88,0.00,,,0.00,VWS V14.01,2013-04-07 17:14:00,
2013-04-07 10:15:00,57.2,53.7,29.88,WSW,248,10.3,10.3,88,0.00,,,0.00,VWS V14.01,2013-04-07 17:15:00,
2013-04-07 10:16:00,57.2,53.7,29.88,NNW,338,9.2,9.2,88,0.00,,,0.00,VWS V14.01,2013-04-07 17:16:00,
2013-04-07 10:17:00,56.7,53.5,29.88,NNW,338,9.2,9.2,89,0.00,,,0.00,VWS V14.01,2013-04-07 17:17:00,
2013-04-07 10:18:00,56.7,53.5,29.88,NNW,338,9.2,9.2,89,0.00,,,0.00,VWS V14.01,2013-04-07 17:18:00,
2013-04-07 10:19:00,56.7,53.5,29.88,WSW,248,9.6,9.6,89,0.00,,,0.00,VWS V14.01,2013-04-07 17:19:00,
2013-04-07 10:20:00,56.7,53.5,29.88,West,270,3.6,3.6,89,0.00,,,0.00,VWS V14.01,2013-04-07 17:20:00,
2013-04-07 10:21:00,56.7,53.5,29.88,WSW,248,3.4,3.4,89,0.00,,,0.00,VWS V14.01,2013-04-07 17:21:00,
2013-04-07 10:22:00,56.8,53.9,29.88,SSE,158,1.6,1.6,90,0.00,,,0.00,VWS V14.01,2013-04-07 17:22:00,
2013-04-07 10:23:00,56.8,53.9,29.88,WSW,248,5.4,5.4,90,0.00,,,0.00,VWS V14.01,2013-04-07 17:23:00,
2013-04-07 10:24:00,57.0,54.1,29.88,SSW,202,8.7,8.7,90,0.00,,,0.00,VWS V14.01,2013-04-07 17:24:00,
2013-04-07 10:25:00,57.0,54.1,29.88,WSW,248,10.7,10.7,90,0.00,,,0.00,VWS V14.01,2013-04-07 17:25:00,
2013-04-07 10:26:00,57.0,54.1,29.88,SSW,202,5.6,5.6,90,0.00,,,0.00,VWS V14.01,2013-04-07 17:26:00,
2013-04-07 10:27:00,57.0,54.1,29.88,WSW,248,3.6,3.6,90,0.00,,,0.00,VWS V14.01,2013-04-07 17:27:00,
2013-04-07 10:28:00,57.0,54.1,29.88,SW,225,6.3,6.3,90,0.00,,,0.00,VWS V14.01,2013-04-07 17:28:00,
2013-04-07 10:29:00,57.0,54.1,29.88,South,180,3.4,3.4,90,0.00,,,0.00,VWS V14.01,2013-04-07 17:29:00,
2013-04-07 10:30:00,57.0,54.1,29.88,WSW,248,5.6,5.6,90,0.00,,,0.00,VWS V14.01,2013-04-07 17:30:00,
2013-04-07 10:31:00,57.0,54.1,29.88,West,270,5.4,5.4,90,0.00,,,0.00,VWS V14.01,2013-04-07 17:31:00,
2013-04-07 10:32:00,57.0,54.1,29.88,West,270,5.4,5.4,90,0.00,,,0.00,VWS V14.01,2013-04-07 17:32:00,
2013-04-07 10:33:00,57.0,54.1,29.88,West,270,5.4,5.4,90,0.00,,,0.00,VWS V14.01,2013-04-07 17:33:00,
2013-04-07 10:34:00,57.0,54.1,29.88,West,270,5.4,5.4,90,0.00,,,0.00,VWS V14.01,2013-04-07 17:34:00,
2013-04-07 10:35:00,57.0,54.1,29.88,SSW,202,5.8,5.8,90,0.00,,,0.00,VWS V14.01,2013-04-07 17:35:00,
2013-04-07 10:36:00,56.8,53.9,29.88,SW,225,10.7,10.7,90,0.00,,,0.00,VWS V14.01,2013-04-07 17:36:00,
2013-04-07 10:37:00,56.8,53.9,29.88,WSW,248,10.3,10.3,90,0.00,,,0.00,VWS V14.01,2013-04-07 17:37:00,
2013-04-07 10:38:00,56.7,53.8,29.88,WSW,248,4.9,4.9,90,0.00,,,0.00,VWS V14.01,2013-04-07 17:38:00,
2013-04-07 10:39:00,56.7,53.8,29.88,West,270,9.2,9.2,90,0.00,,,0.00,VWS V14.01,2013-04-07 17:39:00,
2013-04-07 10:40:00,56.7,53.8,29.88,SW,225,9.2,9.2,90,0.00,,,0.00,VWS V14.01,2013-04-07 17:40:00,
2013-04-07 10:41:00,56.7,53.8,29.88,WNW,292,7.8,7.8,90,0.00,,,0.00,VWS V14.01,2013-04-07 17:41:00,
2013-04-07 10:42:00,56.7,53.8,29.88,WSW,248,6.5,6.5,90,0.00,,,0.00,VWS V14.01,2013-04-07 17:42:00,
2013-04-07 10:43:00,56.7,53.8,29.88,SW,225,6.5,6.5,90,0.00,,,0.00,VWS V14.01,2013-04-07 17:43:00,
2013-04-07 10:44:00,56.7,53.8,29.88,WSW,248,5.4,5.4,90,0.00,,,0.00,VWS V14.01,2013-04-07 17:44:00,
2013-04-07 10:45:00,56.5,53.6,29.88,SW,225,6.0,6.0,90,0.00,,,0.00,VWS V14.01,2013-04-07 17:45:00,
2013-04-07 10:46:00,56.5,53.6,29.88,WSW,248,10.3,10.3,90,0.00,,,0.00,VWS V14.01,2013-04-07 17:46:00,
2013-04-07 10:47:00,56.7,54.1,29.88,SW,225,6.5,6.5,91,0.00,,,0.00,VWS V14.01,2013-04-07 17:47:00,
2013-04-07 10:48:00,56.7,54.1,29.88,SSW,202,3.6,3.6,91,0.00,,,0.00,VWS V14.01,2013-04-07 17:48:00,
2013-04-07 10:49:00,56.5,53.9,29.88,SSE,158,9.8,9.8,91,0.00,,,0.00,VWS V14.01,2013-04-07 17:49:00,
2013-04-07 10:50:00,56.7,54.1,29.88,SW,225,4.9,4.9,91,0.00,,,0.00,VWS V14.01,2013-04-07 17:50:00,
2013-04-07 10:51:00,56.7,54.1,29.88,SSW,202,8.1,8.1,91,0.00,,,0.00,VWS V14.01,2013-04-07 17:51:00,
2013-04-07 10:52:00,56.7,54.1,29.88,SW,225,7.8,7.8,91,0.00,,,0.00,VWS V14.01,2013-04-07 17:52:00,
2013-04-07 10:53:00,56.7,54.1,29.88,WSW,248,5.4,5.4,91,0.00,,,0.00,VWS V14.01,2013-04-07 17:53:00,
2013-04-07 10:54:00,56.8,54.2,29.88,SSW,202,3.8,3.8,91,0.00,,,0.00,VWS V14.01,2013-04-07 17:54:00,
2013-04-07 10:55:00,56.8,54.2,29.88,SSW,202,7.8,7.8,91,0.00,,,0.00,VWS V14.01,2013-04-07 17:55:00,
2013-04-07 10:56:00,56.8,54.2,29.88,SW,225,7.4,7.4,91,0.00,,,0.00,VWS V14.01,2013-04-07 17:56:00,
2013-04-07 10:57:00,56.8,54.2,29.88,SW,225,7.6,7.6,91,0.00,,,0.00,VWS V14.01,2013-04-07 17:57:00,
2013-04-07 10:58:00,56.7,54.1,29.88,SW,225,10.5,10.5,91,0.00,,,0.00,VWS V14.01,2013-04-07 17:58:00,
2013-04-07 10:59:00,56.3,53.7,29.88,WSW,248,9.4,9.4,91,0.00,,,0.00,VWS V14.01,2013-04-07 17:59:00,
2013-04-07 11:00:00,56.3,53.7,29.88,WSW,248,9.4,9.4,91,0.00,,,0.00,VWS V14.01,2013-04-07 18:00:00,
2013-04-07 11:01:00,56.3,53.7,29.88,SSW,202,10.5,10.5,91,0.00,,,0.00,VWS V14.01,2013-04-07 18:01:00,
2013-04-07 11:02:00,56.3,53.7,29.88,SSW,202,6.0,6.0,91,0.00,,,0.00,VWS V14.01,2013-04-07 18:02:00,
2013-04-07 11:03:00,56.5,53.9,29.88,SW,225,9.8,9.8,91,0.00,,,0.00,VWS V14.01,2013-04-07 18:03:00,
2013-04-07 11:04:00,56.5,53.9,29.88,West,270,6.7,6.7,91,0.00,,,0.00,VWS V14.01,2013-04-07 18:04:00,
2013-04-07 11:05:00,56.5,54.2,29.88,WNW,292,7.4,7.4,92,0.00,,,0.00,VWS V14.01,2013-04-07 18:05:00,
2013-04-07 11:06:00,56.5,54.2,29.88,SSW,202,13.9,13.9,92,0.00,,,0.00,VWS V14.01,2013-04-07 18:06:00,
2013-04-07 11:07:00,56.5,54.2,29.88,SW,225,7.4,7.4,92,0.00,,,0.00,VWS V14.01,2013-04-07 18:07:00,
2013-04-07 11:08:00,56.3,54.0,29.88,West,270,6.0,6.0,92,0.00,,,0.00,VWS V14.01,2013-04-07 18:08:00,
2013-04-07 11:09:00,56.3,54.0,29.88,SW,225,5.4,5.4,92,0.00,,,0.00,VWS V14.01,2013-04-07 18:09:00,
2013-04-07 11:10:00,56.5,54.2,29.88,WSW,248,12.8,12.8,92,0.00,,,0.00,VWS V14.01,2013-04-07 18:10:00,
2013-04-07 11:11:00,56.5,54.2,29.88,WSW,248,6.3,6.3,92,0.00,,,0.00,VWS V14.01,2013-04-07 18:11:00,
2013-04-07 11:12:00,56.3,54.0,29.88,WSW,248,10.1,10.1,92,0.00,,,0.00,VWS V14.01,2013-04-07 18:12:00,
2013-04-07 11:13:00,56.5,54.2,29.88,SW,225,5.4,5.4,92,0.00,,,0.00,VWS V14.01,2013-04-07 18:13:00,
2013-04-07 11:14:00,56.5,54.2,29.88,SSW,202,9.8,9.8,92,0.00,,,0.00,VWS V14.01,2013-04-07 18:14:00,
2013-04-07 11:15:00,56.5,54.2,29.88,SW,225,7.6,7.6,92,0.00,,,0.00,VWS V14.01,2013-04-07 18:15:00,
2013-04-07 11:16:00,56.5,54.2,29.88,SSW,202,7.4,7.4,92,0.00,,,0.00,VWS V14.01,2013-04-07 18:16:00,
2013-04-07 11:17:00,56.5,54.2,29.88,WSW,248,8.1,8.1,92,0.00,,,0.00,VWS V14.01,2013-04-07 18:17:00,
2013-04-07 11:18:00,56.5,54.2,29.88,SSW,202,4.9,4.9,92,0.00,,,0.00,VWS V14.01,2013-04-07 18:18:00,
2013-04-07 11:19:00,56.7,54.4,29.88,WSW,248,10.1,10.1,92,0.00,,,0.00,VWS V14.01,2013-04-07 18:19:00,
2013-04-07 11:20:00,56.7,54.4,29.88,WSW,248,4.9,4.9,92,0.00,,,0.00,VWS V14.01,2013-04-07 18:20:00,
2013-04-07 11:21:00,56.7,54.4,29.88,WSW,248,12.8,12.8,92,0.00,,,0.00,VWS V14.01,2013-04-07 18:21:00,
2013-04-07 11:22:00,56.7,54.4,29.88,SSW,202,10.3,10.3,92,0.00,,,0.00,VWS V14.01,2013-04-07 18:22:00,
2013-04-07 11:23:00,56.7,54.4,29.88,WSW,248,6.3,6.3,92,0.00,,,0.00,VWS V14.01,2013-04-07 18:23:00,
2013-04-07 11:24:00,56.7,54.4,29.88,SSW,202,6.0,6.0,92,0.00,,,0.00,VWS V14.01,2013-04-07 18:24:00,
2013-04-07 11:25:00,56.7,54.4,29.88,SSW,202,6.0,6.0,92,0.00,,,0.00,VWS V14.01,2013-04-07 18:25:00,
2013-04-07 11:26:00,56.7,54.4,29.88,SW,225,10.5,10.5,92,0.00,,,0.00,VWS V14.01,2013-04-07 18:26:00,
2013-04-07 11:27:00,56.7,54.4,29.88,SW,225,10.5,10.5,92,0.00,,,0.00,VWS V14.01,2013-04-07 18:27:00,
2013-04-07 11:28:00,56.8,54.5,29.88,SSW,202,6.0,6.0,92,0.00,,,0.00,VWS V14.01,2013-04-07 18:28:00,
2013-04-07 11:29:00,56.7,54.4,29.88,WNW,292,11.0,11.0,92,0.00,,,0.00,VWS V14.01,2013-04-07 18:29:00,
2013-04-07 11:30:00,56.7,54.4,29.88,WSW,248,8.1,8.1,92,0.00,,,0.00,VWS V14.01,2013-04-07 18:30:00,
2013-04-07 11:31:00,56.7,54.4,29.88,West,270,7.4,7.4,92,0.00,,,0.00,VWS V14.01,2013-04-07 18:31:00,
2013-04-07 11:32:00,56.7,54.4,29.88,West,270,7.4,7.4,92,0.00,,,0.00,VWS V14.01,2013-04-07 18:32:00,
2013-04-07 11:33:00,56.3,54.0,29.88,SSW,202,5.8,5.8,92,0.00,,,0.00,VWS V14.01,2013-04-07 18:33:00,
2013-04-07 11:34:00,56.3,54.0,29.88,SSW,202,8.5,8.5,92,0.00,,,0.00,VWS V14.01,2013-04-07 18:34:00,
2013-04-07 11:35:00,56.3,54.0,29.88,SSW,202,5.6,5.6,92,0.00,,,0.00,VWS V14.01,2013-04-07 18:35:00,
2013-04-07 11:36:00,56.3,54.0,29.88,SW,225,10.1,10.1,92,0.00,,,0.00,VWS V14.01,2013-04-07 18:36:00,
2013-04-07 11:37:00,56.3,54.0,29.88,SSW,202,9.0,9.0,92,0.00,,,0.00,VWS V14.01,2013-04-07 18:37:00,
2013-04-07 11:38:00,56.5,54.2,29.88,SSW,202,10.1,10.1,92,0.00,,,0.00,VWS V14.01,2013-04-07 18:38:00,
2013-04-07 11:39:00,56.5,54.2,29.88,WNW,292,4.5,4.5,92,0.00,,,0.00,VWS V14.01,2013-04-07 18:39:00,
2013-04-07 11:40:00,56.7,54.4,29.88,SSW,202,6.5,6.5,92,0.00,,,0.00,VWS V14.01,2013-04-07 18:40:00,
2013-04-07 11:41:00,56.7,54.4,29.88,WSW,248,4.0,4.0,92,0.00,,,0.00,VWS V14.01,2013-04-07 18:41:00,
2013-04-07 11:42:00,56.8,54.5,29.88,WSW,248,2.7,2.7,92,0.00,,,0.00,VWS V14.01,2013-04-07 18:42:00,
2013-04-07 11:43:00,57.0,54.7,29.88,NW,315,11.0,11.0,92,0.00,,,0.00,VWS V14.01,2013-04-07 18:43:00,
2013-04-07 11:44:00,57.0,54.7,29.88,SSW,202,5.4,5.4,92,0.00,,,0.00,VWS V14.01,2013-04-07 18:44:00,
2013-04-07 11:46:00,57.0,54.7,29.88,WSW,248,7.8,7.8,92,0.00,,,0.00,VWS V14.01,2013-04-07 18:46:00,
2013-04-07 11:47:00,57.2,54.9,29.88,SW,225,4.9,4.9,92,0.00,,,0.00,VWS V14.01,2013-04-07 18:47:00,
2013-04-07 11:48:00,57.2,54.9,29.88,WSW,248,9.2,9.2,92,0.00,,,0.00,VWS V14.01,2013-04-07 18:48:00,
2013-04-07 11:49:00,57.2,54.6,29.88,SSW,202,4.9,4.9,91,0.00,,,0.00,VWS V14.01,2013-04-07 18:49:00,
2013-04-07 11:50:00,57.2,54.6,29.88,WSW,248,7.2,7.2,91,0.00,,,0.00,VWS V14.01,2013-04-07 18:50:00,
2013-04-07 11:51:00,57.6,55.0,29.88,SW,225,4.3,4.3,91,0.00,,,0.00,VWS V14.01,2013-04-07 18:51:00,
2013-04-07 11:52:00,57.6,55.0,29.88,SW,225,7.4,7.4,91,0.00,,,0.00,VWS V14.01,2013-04-07 18:52:00,
2013-04-07 11:53:00,57.6,55.0,29.88,South,180,2.7,2.7,91,0.00,,,0.00,VWS V14.01,2013-04-07 18:53:00,
2013-04-07 11:54:00,57.7,55.1,29.88,South,180,2.7,2.7,91,0.00,,,0.00,VWS V14.01,2013-04-07 18:54:00,
2013-04-07 11:55:00,57.7,55.1,29.88,SW,225,14.1,14.1,91,0.00,,,0.00,VWS V14.01,2013-04-07 18:55:00,
2013-04-07 11:56:00,57.7,55.1,29.88,SW,225,14.1,14.1,91,0.00,,,0.00,VWS V14.01,2013-04-07 18:56:00,
2013-04-07 11:57:00,57.7,55.1,29.88,WSW,248,6.0,6.0,91,0.00,,,0.00,VWS V14.01,2013-04-07 18:57:00,
2013-04-07 11:58:00,57.0,54.4,29.85,SW,225,8.7,8.7,91,0.00,,,0.00,VWS V14.01,2013-04-07 18:58:00,
2013-04-07 12:00:00,56.8,54.2,29.85,SW,225,8.7,8.7,91,0.00,,,0.00,VWS V14.01,2013-04-07 19:00:00,
2013-04-07 12:01:00,56.8,54.2,29.85,West,270,7.8,7.8,91,0.00,,,0.00,VWS V14.01,2013-04-07 19:01:00,
2013-04-07 12:02:00,56.8,54.2,29.85,SW,225,11.0,11.0,91,0.00,,,0.00,VWS V14.01,2013-04-07 19:02:00,
2013-04-07 12:03:00,56.8,54.2,29.85,WNW,292,4.3,4.3,91,0.00,,,0.00,VWS V14.01,2013-04-07 19:03:00,
2013-04-07 12:04:00,56.8,54.2,29.85,WSW,248,5.6,5.6,91,0.00,,,0.00,VWS V14.01,2013-04-07 19:04:00,
2013-04-07 12:05:00,56.8,54.2,29.85,NW,315,6.0,6.0,91,0.00,,,0.00,VWS V14.01,2013-04-07 19:05:00,
2013-04-07 12:06:00,56.8,54.2,29.85,WNW,292,10.1,10.1,91,0.00,,,0.00,VWS V14.01,2013-04-07 19:06:00,
2013-04-07 12:07:00,56.8,54.2,29.85,WSW,248,6.0,6.0,91,0.00,,,0.00,VWS V14.01,2013-04-07 19:07:00,
2013-04-07 12:08:00,56.8,54.2,29.85,WNW,292,6.3,6.3,91,0.00,,,0.00,VWS V14.01,2013-04-07 19:08:00,
2013-04-07 12:09:00,56.8,54.2,29.85,SW,225,7.4,7.4,91,0.00,,,0.00,VWS V14.01,2013-04-07 19:09:00,
2013-04-07 12:10:00,57.0,54.4,29.85,SSW,202,4.0,4.0,91,0.00,,,0.00,VWS V14.01,2013-04-07 19:10:00,
2013-04-07 12:11:00,57.0,54.4,29.85,SW,225,8.7,8.7,91,0.00,,,0.00,VWS V14.01,2013-04-07 19:11:00,
2013-04-07 12:12:00,57.0,54.4,29.85,WSW,248,3.4,3.4,91,0.00,,,0.00,VWS V14.01,2013-04-07 19:12:00,
2013-04-07 12:13:00,57.0,54.4,29.85,West,270,5.4,5.4,91,0.00,,,0.00,VWS V14.01,2013-04-07 19:13:00,
2013-04-07 12:14:00,57.0,54.4,29.85,WSW,248,9.4,9.4,91,0.00,,,0.00,VWS V14.01,2013-04-07 19:14:00,
2013-04-07 12:15:00,56.8,54.2,29.85,WNW,292,6.0,6.0,91,0.00,,,0.00,VWS V14.01,2013-04-07 19:15:00,
2013-04-07 12:16:00,56.8,54.2,29.85,SW,225,5.6,5.6,91,0.00,,,0.00,VWS V14.01,2013-04-07 19:16:00,
2013-04-07 12:17:00,57.0,54.4,29.85,WSW,248,10.3,10.3,91,0.00,,,0.00,VWS V14.01,2013-04-07 19:17:00,
2013-04-07 12:18:00,57.0,54.4,29.85,WSW,248,5.4,5.4,91,0.00,,,0.00,VWS V14.01,2013-04-07 19:18:00,
2013-04-07 12:19:00,57.2,54.6,29.85,WSW,248,8.5,8.5,91,0.00,,,0.00,VWS V14.01,2013-04-07 19:19:00,
2013-04-07 12:20:00,57.2,54.6,29.85,WNW,292,5.4,5.4,91,0.00,,,0.00,VWS V14.01,2013-04-07 19:20:00,
2013-04-07 12:21:00,57.2,54.6,29.85,WSW,248,7.2,7.2,91,0.00,,,0.00,VWS V14.01,2013-04-07 19:21:00,
2013-04-07 12:22:00,57.4,54.8,29.85,West,270,5.8,5.8,91,0.00,,,0.00,VWS V14.01,2013-04-07 19:22:00,
2013-04-07 12:23:00,57.4,54.8,29.85,West,270,4.7,4.7,91,0.00,,,0.00,VWS V14.01,2013-04-07 19:23:00,
2013-04-07 12:24:00,57.6,55.0,29.85,WSW,248,11.0,11.0,91,0.00,,,0.00,VWS V14.01,2013-04-07 19:24:00,
2013-04-07 12:25:00,57.6,55.0,29.85,WSW,248,10.3,10.3,91,0.00,,,0.00,VWS V14.01,2013-04-07 19:25:00,
2013-04-07 12:26:00,57.4,54.5,29.85,WSW,248,12.5,12.5,90,0.00,,,0.00,VWS V14.01,2013-04-07 19:26:00,
2013-04-07 12:27:00,57.4,54.5,29.85,NW,315,8.1,8.1,90,0.00,,,0.00,VWS V14.01,2013-04-07 19:27:00,
2013-04-07 12:28:00,57.4,54.5,29.85,NW,315,8.1,8.1,90,0.00,,,0.00,VWS V14.01,2013-04-07 19:28:00,
2013-04-07 12:29:00,57.4,54.5,29.85,WNW,292,12.5,12.5,90,0.00,,,0.00,VWS V14.01,2013-04-07 19:29:00,
2013-04-07 12:30:00,57.4,54.5,29.85,West,270,10.1,10.1,90,0.00,,,0.00,VWS V14.01,2013-04-07 19:30:00,
2013-04-07 12:31:00,57.4,54.2,29.85,SW,225,8.5,8.5,89,0.00,,,0.00,VWS V14.01,2013-04-07 19:31:00,
2013-04-07 12:32:00,57.4,54.2,29.85,SW,225,5.8,5.8,89,0.00,,,0.00,VWS V14.01,2013-04-07 19:32:00,
2013-04-07 12:33:00,57.4,54.2,29.85,SW,225,5.8,5.8,89,0.00,,,0.00,VWS V14.01,2013-04-07 19:33:00,
2013-04-07 12:34:00,57.4,54.2,29.85,WSW,248,6.0,6.0,89,0.00,,,0.00,VWS V14.01,2013-04-07 19:34:00,
2013-04-07 12:35:00,57.4,54.2,29.85,WSW,248,6.0,6.0,89,0.00,,,0.00,VWS V14.01,2013-04-07 19:35:00,
2013-04-07 12:36:00,57.6,54.3,29.85,West,270,9.8,9.8,89,0.00,,,0.00,VWS V14.01,2013-04-07 19:36:00,
2013-04-07 12:37:00,57.6,54.3,29.85,WSW,248,15.2,15.2,89,0.00,,,0.00,VWS V14.01,2013-04-07 19:37:00,
2013-04-07 12:38:00,57.4,53.9,29.85,WSW,248,15.2,15.2,88,0.00,,,0.00,VWS V14.01,2013-04-07 19:38:00,
2013-04-07 12:39:00,57.4,53.9,29.85,WSW,248,15.2,15.2,88,0.00,,,0.00,VWS V14.01,2013-04-07 19:39:00,
2013-04-07 12:40:00,57.4,53.9,29.85,SW,225,6.0,6.0,88,0.00,,,0.00,VWS V14.01,2013-04-07 19:40:00,
2013-04-07 12:41:00,57.4,53.9,29.85,WSW,248,9.4,9.4,88,0.00,,,0.00,VWS V14.01,2013-04-07 19:41:00,
2013-04-07 12:42:00,57.4,53.9,29.85,West,270,15.2,15.2,88,0.00,,,0.00,VWS V14.01,2013-04-07 19:42:00,
2013-04-07 12:43:00,57.4,53.9,29.85,West,270,7.6,7.6,88,0.00,,,0.00,VWS V14.01,2013-04-07 19:43:00,
2013-04-07 12:44:00,57.4,53.9,29.85,WNW,292,7.6,7.6,88,0.00,,,0.00,VWS V14.01,2013-04-07 19:44:00,
2013-04-07 12:45:00,57.4,53.9,29.85,SSW,202,8.7,8.7,88,0.00,,,0.00,VWS V14.01,2013-04-07 19:45:00,
2013-04-07 12:46:00,57.4,53.9,29.85,WSW,248,12.1,12.1,88,0.00,,,0.00,VWS V14.01,2013-04-07 19:46:00,
2013-04-07 12:47:00,57.6,54.0,29.85,SW,225,10.7,10.7,88,0.00,,,0.00,VWS V14.01,2013-04-07 19:47:00,
2013-04-07 12:48:00,57.6,54.0,29.85,SW,225,10.7,10.7,88,0.00,,,0.00,VWS V14.01,2013-04-07 19:48:00,
2013-04-07 12:49:00,57.6,53.7,29.85,WNW,292,10.1,10.1,87,0.00,,,0.00,VWS V14.01,2013-04-07 19:49:00,
2013-04-07 12:50:00,57.6,53.7,29.85,WSW,248,11.4,11.4,87,0.00,,,0.00,VWS V14.01,2013-04-07 19:50:00,
2013-04-07 12:51:00,57.6,53.7,29.85,WSW,248,7.6,7.6,87,0.00,,,0.00,VWS V14.01,2013-04-07 19:51:00,
2013-04-07 12:52:00,57.7,53.9,29.85,SSW,202,4.9,4.9,87,0.00,,,0.00,VWS V14.01,2013-04-07 19:52:00,
2013-04-07 12:53:00,57.7,53.9,29.85,WSW,248,8.1,8.1,87,0.00,,,0.00,VWS V14.01,2013-04-07 19:53:00,
2013-04-07 12:54:00,57.7,53.9,29.85,WSW,248,9.8,9.8,87,0.00,,,0.00,VWS V14.01,2013-04-07 19:54:00,
2013-04-07 12:55:00,57.7,53.9,29.85,NW,315,10.1,10.1,87,0.00,,,0.00,VWS V14.01,2013-04-07 19:55:00,
2013-04-07 12:56:00,57.9,53.8,29.85,NNW,338,6.5,6.5,86,0.00,,,0.00,VWS V14.01,2013-04-07 19:56:00,
2013-04-07 12:57:00,57.9,53.8,29.85,WSW,248,5.4,5.4,86,0.00,,,0.00,VWS V14.01,2013-04-07 19:57:00,
2013-04-07 12:58:00,57.9,53.8,29.85,WSW,248,13.2,13.2,86,0.00,,,0.00,VWS V14.01,2013-04-07 19:58:00,
2013-04-07 13:00:00,57.9,53.8,29.85,West,270,7.2,7.2,86,0.00,,,0.00,VWS V14.01,2013-04-07 20:00:00,
2013-04-07 13:01:00,58.1,53.6,29.85,SW,225,8.5,8.5,85,0.00,,,0.00,VWS V14.01,2013-04-07 20:01:00,
2013-04-07 13:02:00,58.1,53.6,29.85,WSW,248,13.2,13.2,85,0.00,,,0.00,VWS V14.01,2013-04-07 20:02:00,
2013-04-07 13:03:00,57.9,53.4,29.85,SW,225,5.4,5.4,85,0.00,,,0.00,VWS V14.01,2013-04-07 20:03:00,
2013-04-07 13:04:00,57.9,53.4,29.85,SW,225,5.4,5.4,85,0.00,,,0.00,VWS V14.01,2013-04-07 20:04:00,
2013-04-07 13:05:00,57.9,53.4,29.85,SW,225,5.4,5.4,85,0.00,,,0.00,VWS V14.01,2013-04-07 20:05:00,
2013-04-07 13:06:00,57.9,53.4,29.85,SW,225,5.4,5.4,85,0.00,,,0.00,VWS V14.01,2013-04-07 20:06:00,
2013-04-07 13:07:00,57.9,53.4,29.85,SW,225,5.4,5.4,85,0.00,,,0.00,VWS V14.01,2013-04-07 20:07:00,
2013-04-07 13:08:00,57.9,53.4,29.85,SW,225,5.4,5.4,85,0.00,,,0.00,VWS V14.01,2013-04-07 20:08:00,
2013-04-07 13:09:00,57.9,53.4,29.85,SW,225,5.4,5.4,85,0.00,,,0.00,VWS V14.01,2013-04-07 20:09:00,
2013-04-07 13:10:00,58.1,53.3,29.85,SW,225,5.4,5.4,84,0.00,,,0.00,VWS V14.01,2013-04-07 20:10:00,
2013-04-07 13:11:00,58.1,53.3,29.82,SW,225,5.4,5.4,84,0.00,,,0.00,VWS V14.01,2013-04-07 20:11:00,
2013-04-07 13:12:00,58.5,53.7,29.82,SW,225,5.4,5.4,84,0.00,,,0.00,VWS V14.01,2013-04-07 20:12:00,
2013-04-07 13:13:00,58.8,54.0,29.82,SW,225,5.4,5.4,84,0.00,,,0.00,VWS V14.01,2013-04-07 20:13:00,
2013-04-07 13:14:00,58.8,54.0,29.82,SW,225,5.4,5.4,84,0.00,,,0.00,VWS V14.01,2013-04-07 20:14:00,
2013-04-07 13:15:00,58.5,53.7,29.82,SW,225,5.4,5.4,84,0.00,,,0.00,VWS V14.01,2013-04-07 20:15:00,
2013-04-07 13:16:00,58.5,53.7,29.82,WSW,248,6.0,6.0,84,0.00,,,0.00,VWS V14.01,2013-04-07 20:16:00,
2013-04-07 13:17:00,58.5,53.7,29.82,WSW,248,6.0,6.0,84,0.00,,,0.00,VWS V14.01,2013-04-07 20:17:00,
2013-04-07 13:18:00,58.5,53.7,29.82,SW,225,4.3,4.3,84,0.00,,,0.00,VWS V14.01,2013-04-07 20:18:00,
2013-04-07 13:19:00,58.1,53.3,29.82,WSW,248,9.8,9.8,84,0.00,,,0.00,VWS V14.01,2013-04-07 20:19:00,
2013-04-07 13:20:00,58.1,53.3,29.82,WSW,248,9.8,9.8,84,0.00,,,0.00,VWS V14.01,2013-04-07 20:20:00,
2013-04-07 13:21:00,57.9,52.8,29.82,SW,225,9.0,9.0,83,0.00,,,0.00,VWS V14.01,2013-04-07 20:21:00,
2013-04-07 13:22:00,57.9,52.8,29.82,WSW,248,12.3,12.3,83,0.00,,,0.00,VWS V14.01,2013-04-07 20:22:00,
2013-04-07 13:23:00,57.9,52.8,29.82,WSW,248,12.3,12.3,83,0.00,,,0.00,VWS V14.01,2013-04-07 20:23:00,
2013-04-07 13:24:00,57.9,52.8,29.82,WNW,292,6.5,6.5,83,0.00,,,0.00,VWS V14.01,2013-04-07 20:24:00,
2013-04-07 13:25:00,57.9,52.8,29.82,West,270,10.3,10.3,83,0.00,,,0.00,VWS V14.01,2013-04-07 20:25:00,
2013-04-07 13:26:00,58.1,53.0,29.82,WSW,248,10.1,10.1,83,0.00,,,0.00,VWS V14.01,2013-04-07 20:26:00,
2013-04-07 13:27:00,58.1,53.0,29.82,WNW,292,8.5,8.5,83,0.00,,,0.00,VWS V14.01,2013-04-07 20:27:00,
2013-04-07 13:28:00,58.1,53.0,29.82,WNW,292,8.1,8.1,83,0.00,,,0.00,VWS V14.01,2013-04-07 20:28:00,
2013-04-07 13:29:00,58.5,53.3,29.82,West,270,7.6,7.6,83,0.00,,,0.00,VWS V14.01,2013-04-07 20:29:00,
2013-04-07 13:30:00,58.5,53.3,29.82,West,270,8.1,8.1,83,0.00,,,0.00,VWS V14.01,2013-04-07 20:30:00,
2013-04-07 13:31:00,58.6,53.5,29.82,SW,225,8.7,8.7,83,0.00,,,0.00,VWS V14.01,2013-04-07 20:31:00,
2013-04-07 13:32:00,58.6,53.5,29.82,SW,225,8.7,8.7,83,0.00,,,0.00,VWS V14.01,2013-04-07 20:32:00,
2013-04-07 13:33:00,58.5,53.0,29.82,SW,225,8.7,8.7,82,0.00,,,0.00,VWS V14.01,2013-04-07 20:33:00,
2013-04-07 13:34:00,58.5,53.0,29.82,SW,225,8.7,8.7,82,0.00,,,0.00,VWS V14.01,2013-04-07 20:34:00,
2013-04-07 13:35:00,58.3,52.5,29.82,SW,225,8.7,8.7,81,0.00,,,0.00,VWS V14.01,2013-04-07 20:35:00,
2013-04-07 13:36:00,58.3,52.5,29.82,SW,225,8.7,8.7,81,0.00,,,0.00,VWS V14.01,2013-04-07 20:36:00,
2013-04-07 13:37:00,58.5,52.7,29.82,SW,225,8.7,8.7,81,0.00,,,0.00,VWS V14.01,2013-04-07 20:37:00,
2013-04-07 13:38:00,58.5,52.7,29.82,WSW,248,11.4,11.4,81,0.00,,,0.00,VWS V14.01,2013-04-07 20:38:00,
2013-04-07 13:39:00,58.5,52.7,29.82,SSW,202,5.8,5.8,81,0.00,,,0.00,VWS V14.01,2013-04-07 20:39:00,
2013-04-07 13:40:00,58.6,52.8,29.82,WSW,248,10.1,10.1,81,0.00,,,0.00,VWS V14.01,2013-04-07 20:40:00,
2013-04-07 13:41:00,58.6,52.8,29.82,WSW,248,10.1,10.1,81,0.00,,,0.00,VWS V14.01,2013-04-07 20:41:00,
2013-04-07 13:42:00,58.6,52.8,29.82,SW,225,15.7,15.7,81,0.00,,,0.00,VWS V14.01,2013-04-07 20:42:00,
2013-04-07 13:43:00,59.0,52.5,29.82,SW,225,15.7,15.7,79,0.00,,,0.00,VWS V14.01,2013-04-07 20:43:00,
2013-04-07 13:44:00,59.0,52.5,29.82,WSW,248,14.8,14.8,79,0.00,,,0.00,VWS V14.01,2013-04-07 20:44:00,
2013-04-07 13:45:00,58.6,51.8,29.82,WSW,248,13.2,13.2,78,0.00,,,0.00,VWS V14.01,2013-04-07 20:45:00,
2013-04-07 13:46:00,58.6,51.8,29.82,WSW,248,5.6,5.6,78,0.00,,,0.00,VWS V14.01,2013-04-07 20:46:00,
2013-04-07 13:47:00,58.6,52.2,29.82,WSW,248,12.3,12.3,79,0.00,,,0.00,VWS V14.01,2013-04-07 20:47:00,
2013-04-07 13:48:00,58.6,52.2,29.82,WSW,248,17.5,17.5,79,0.00,,,0.00,VWS V14.01,2013-04-07 20:48:00,
2013-04-07 13:49:00,58.6,52.2,29.82,WSW,248,10.3,10.3,79,0.00,,,0.00,VWS V14.01,2013-04-07 20:49:00,
2013-04-07 13:50:00,58.6,52.2,29.82,WSW,248,10.1,10.1,79,0.00,,,0.00,VWS V14.01,2013-04-07 20:50:00,
2013-04-07 13:51:00,58.6,52.2,29.82,WSW,248,8.1,8.1,79,0.00,,,0.00,VWS V14.01,2013-04-07 20:51:00,
2013-04-07 13:52:00,58.6,52.2,29.82,WSW,248,8.1,8.1,79,0.00,,,0.00,VWS V14.01,2013-04-07 20:52:00,
2013-04-07 13:53:00,58.6,52.2,29.82,West,270,14.1,14.1,79,0.00,,,0.00,VWS V14.01,2013-04-07 20:53:00,
2013-04-07 13:54:00,58.8,52.3,29.82,WSW,248,11.0,11.0,79,0.00,,,0.00,VWS V14.01,2013-04-07 20:54:00,
2013-04-07 13:55:00,58.8,52.3,29.82,WNW,292,17.7,17.7,79,0.00,,,0.00,VWS V14.01,2013-04-07 20:55:00,
2013-04-07 13:56:00,59.0,52.5,29.80,WSW,248,17.7,17.7,79,0.00,,,0.00,VWS V14.01,2013-04-07 20:56:00,
2013-04-07 13:57:00,59.0,52.5,29.80,West,270,10.3,10.3,79,0.00,,,0.00,VWS V14.01,2013-04-07 20:57:00,
2013-04-07 13:58:00,58.8,52.0,29.79,WSW,248,5.6,5.6,78,0.00,,,0.00,VWS V14.01,2013-04-07 20:58:00,
2013-04-07 13:59:00,58.8,52.0,29.80,SSW,202,12.5,12.5,78,0.00,,,0.00,VWS V14.01,2013-04-07 20:59:00,
2013-04-07 14:00:00,59.0,52.2,29.80,SW,225,12.5,12.5,78,0.00,,,0.00,VWS V14.01,2013-04-07 21:00:00,
2013-04-07 14:01:00,58.8,52.0,29.80,SW,225,13.2,13.2,78,0.00,,,0.00,VWS V14.01,2013-04-07 21:01:00,
2013-04-07 14:02:00,58.8,52.0,29.80,WSW,248,13.0,13.0,78,0.00,,,0.00,VWS V14.01,2013-04-07 21:02:00,
2013-04-07 14:03:00,58.8,52.0,29.79,West,270,11.0,11.0,78,0.00,,,0.00,VWS V14.01,2013-04-07 21:03:00,
2013-04-07 14:04:00,58.8,52.0,29.80,WNW,292,16.8,16.8,78,0.00,,,0.00,VWS V14.01,2013-04-07 21:04:00,
2013-04-07 14:05:00,59.0,52.2,29.80,West,270,10.1,10.1,78,0.00,,,0.00,VWS V14.01,2013-04-07 21:05:00,
2013-04-07 14:06:00,59.0,52.2,29.80,WNW,292,7.6,7.6,78,0.00,,,0.00,VWS V14.01,2013-04-07 21:06:00,
2013-04-07 14:07:00,59.4,52.5,29.80,SW,225,12.5,12.5,78,0.00,,,0.00,VWS V14.01,2013-04-07 21:07:00,
2013-04-07 14:08:00,59.4,52.5,29.79,WSW,248,11.2,11.2,78,0.00,,,0.00,VWS V14.01,2013-04-07 21:08:00,
2013-04-07 14:09:00,59.4,52.5,29.80,WSW,248,11.2,11.2,78,0.00,,,0.00,VWS V14.01,2013-04-07 21:09:00,
2013-04-07 14:10:00,59.4,52.5,29.80,WSW,248,11.2,11.2,78,0.00,,,0.00,VWS V14.01,2013-04-07 21:10:00,
2013-04-07 14:11:00,59.4,52.5,29.80,WSW,248,11.2,11.2,78,0.00,,,0.00,VWS V14.01,2013-04-07 21:11:00,
2013-04-07 14:12:00,59.4,52.5,29.80,WSW,248,11.2,11.2,78,0.00,,,0.00,VWS V14.01,2013-04-07 21:12:00,
2013-04-07 14:13:00,59.4,52.5,29.79,WSW,248,11.2,11.2,78,0.00,,,0.00,VWS V14.01,2013-04-07 21:13:00,
2013-04-07 14:14:00,59.4,52.5,29.80,WSW,248,11.2,11.2,78,0.00,,,0.00,VWS V14.01,2013-04-07 21:14:00,
2013-04-07 14:15:00,59.4,51.8,29.80,SSW,202,7.4,7.4,76,0.00,,,0.00,VWS V14.01,2013-04-07 21:15:00,
2013-04-07 14:16:00,59.4,51.8,29.80,WNW,292,9.2,9.2,76,0.00,,,0.00,VWS V14.01,2013-04-07 21:16:00,
2013-04-07 14:17:00,59.5,52.0,29.80,WSW,248,12.5,12.5,76,0.00,,,0.00,VWS V14.01,2013-04-07 21:17:00,
2013-04-07 14:18:00,59.5,52.0,29.79,WSW,248,4.9,4.9,76,0.00,,,0.00,VWS V14.01,2013-04-07 21:18:00,
2013-04-07 14:19:00,59.9,52.3,29.80,WSW,248,9.8,9.8,76,0.00,,,0.00,VWS V14.01,2013-04-07 21:19:00,
2013-04-07 14:20:00,59.9,52.3,29.80,WNW,292,8.7,8.7,76,0.00,,,0.00,VWS V14.01,2013-04-07 21:20:00,
2013-04-07 14:21:00,59.9,52.3,29.80,WSW,248,10.3,10.3,76,0.00,,,0.00,VWS V14.01,2013-04-07 21:21:00,
2013-04-07 14:22:00,59.5,52.0,29.80,WSW,248,10.3,10.3,76,0.00,,,0.00,VWS V14.01,2013-04-07 21:22:00,
2013-04-07 14:23:00,59.5,52.0,29.79,WSW,248,10.3,10.3,76,0.00,,,0.00,VWS V14.01,2013-04-07 21:23:00,
2013-04-07 14:24:00,59.5,51.6,29.80,WNW,292,8.1,8.1,75,0.00,,,0.00,VWS V14.01,2013-04-07 21:24:00,
2013-04-07 14:25:00,59.5,51.6,29.80,West,270,15.2,15.2,75,0.00,,,0.00,VWS V14.01,2013-04-07 21:25:00,
2013-04-07 14:26:00,59.7,52.2,29.80,West,270,13.0,13.0,76,0.00,,,0.00,VWS V14.01,2013-04-07 21:26:00,
2013-04-07 14:27:00,59.7,52.2,29.80,WSW,248,8.7,8.7,76,0.00,,,0.00,VWS V14.01,2013-04-07 21:27:00,
2013-04-07 14:28:00,59.5,52.0,29.79,West,270,10.1,10.1,76,0.00,,,0.00,VWS V14.01,2013-04-07 21:28:00,
2013-04-07 14:29:00,59.5,52.0,29.80,West,270,10.1,10.1,76,0.00,,,0.00,VWS V14.01,2013-04-07 21:29:00,
2013-04-07 14:30:00,59.4,51.8,29.80,SW,225,11.0,11.0,76,0.00,,,0.00,VWS V14.01,2013-04-07 21:30:00,
2013-04-07 14:31:00,59.4,51.8,29.80,WNW,292,6.5,6.5,76,0.00,,,0.00,VWS V14.01,2013-04-07 21:31:00,
2013-04-07 14:32:00,59.4,51.8,29.80,WSW,248,15.2,15.2,76,0.00,,,0.00,VWS V14.01,2013-04-07 21:32:00,
2013-04-07 14:33:00,59.2,51.6,29.79,WSW,248,12.5,12.5,76,0.00,,,0.00,VWS V14.01,2013-04-07 21:33:00,
2013-04-07 14:34:00,59.2,51.6,29.80,NW,315,7.6,7.6,76,0.00,,,0.00,VWS V14.01,2013-04-07 21:34:00,
2013-04-07 14:35:00,59.4,51.8,29.80,WNW,292,8.5,8.5,76,0.00,,,0.00,VWS V14.01,2013-04-07 21:35:00,
2013-04-07 14:36:00,59.4,51.8,29.80,WNW,292,10.3,10.3,76,0.00,,,0.00,VWS V14.01,2013-04-07 21:36:00,
2013-04-07 14:37:00,59.2,51.3,29.80,WNW,292,11.0,11.0,75,0.00,,,0.00,VWS V14.01,2013-04-07 21:37:00,
2013-04-07 14:38:00,58.6,51.1,29.79,WSW,248,9.6,9.6,76,0.00,,,0.00,VWS V14.01,2013-04-07 21:38:00,
2013-04-07 14:39:00,58.6,51.1,29.80,WSW,248,9.6,9.6,76,0.00,,,0.00,VWS V14.01,2013-04-07 21:39:00,
2013-04-07 14:40:00,58.6,51.1,29.80,NW,315,11.0,11.0,76,0.00,,,0.00,VWS V14.01,2013-04-07 21:40:00,
2013-04-07 14:41:00,58.6,51.1,29.80,WSW,248,5.8,5.8,76,0.00,,,0.00,VWS V14.01,2013-04-07 21:41:00,
2013-04-07 14:42:00,58.5,51.3,29.80,West,270,13.2,13.2,77,0.00,,,0.00,VWS V14.01,2013-04-07 21:42:00,
2013-04-07 14:43:00,58.5,51.3,29.79,WNW,292,8.7,8.7,77,0.00,,,0.00,VWS V14.01,2013-04-07 21:43:00,
2013-04-07 14:44:00,58.5,51.3,29.80,WNW,292,15.2,15.2,77,0.00,,,0.00,VWS V14.01,2013-04-07 21:44:00,
2013-04-07 14:45:00,58.5,50.9,29.80,WNW,292,13.4,13.4,76,0.00,,,0.00,VWS V14.01,2013-04-07 21:45:00,
2013-04-07 14:46:00,58.5,50.9,29.80,WSW,248,15.4,15.4,76,0.00,,,0.00,VWS V14.01,2013-04-07 21:46:00,
2013-04-07 14:47:00,58.5,50.9,29.80,WSW,248,12.5,12.5,76,0.00,,,0.00,VWS V14.01,2013-04-07 21:47:00,
2013-04-07 14:48:00,58.5,50.9,29.79,WNW,292,13.2,13.2,76,0.00,,,0.00,VWS V14.01,2013-04-07 21:48:00,
2013-04-07 14:49:00,58.8,51.6,29.80,SSW,202,7.4,7.4,77,0.00,,,0.00,VWS V14.01,2013-04-07 21:49:00,
2013-04-07 14:50:00,58.8,51.6,29.80,SW,225,13.0,13.0,77,0.00,,,0.00,VWS V14.01,2013-04-07 21:50:00,
2013-04-07 14:51:00,59.0,51.5,29.80,NW,315,12.3,12.3,76,0.00,,,0.00,VWS V14.01,2013-04-07 21:51:00,
2013-04-07 14:52:00,59.0,51.5,29.80,SW,225,8.1,8.1,76,0.00,,,0.00,VWS V14.01,2013-04-07 21:52:00,
2013-04-07 14:53:00,59.0,51.5,29.79,West,270,13.0,13.0,76,0.00,,,0.00,VWS V14.01,2013-04-07 21:53:00,
2013-04-07 14:54:00,59.0,51.5,29.80,WNW,292,9.6,9.6,76,0.00,,,0.00,VWS V14.01,2013-04-07 21:54:00,
2013-04-07 14:55:00,59.0,51.5,29.80,WSW,248,11.0,11.0,76,0.00,,,0.00,VWS V14.01,2013-04-07 21:55:00,
2013-04-07 14:56:00,59.0,51.5,29.80,WNW,292,10.7,10.7,76,0.00,,,0.00,VWS V14.01,2013-04-07 21:56:00,
2013-04-07 14:57:00,59.0,51.5,29.80,WNW,292,16.3,16.3,76,0.00,,,0.00,VWS V14.01,2013-04-07 21:57:00,
2013-04-07 14:58:00,57.9,50.4,29.79,WSW,248,10.3,10.3,76,0.00,,,0.00,VWS V14.01,2013-04-07 21:58:00,
2013-04-07 14:59:00,57.9,50.4,29.80,West,270,8.5,8.5,76,0.00,,,0.00,VWS V14.01,2013-04-07 21:59:00,
2013-04-07 15:00:00,57.9,50.8,29.80,WSW,248,11.0,11.0,77,0.00,,,0.00,VWS V14.01,2013-04-07 22:00:00,
2013-04-07 15:01:00,57.9,50.8,29.80,WNW,292,16.8,16.8,77,0.00,,,0.00,VWS V14.01,2013-04-07 22:01:00,
2013-04-07 15:02:00,57.9,50.8,29.80,NW,315,7.6,7.6,77,0.00,,,0.00,VWS V14.01,2013-04-07 22:02:00,
2013-04-07 15:03:00,57.9,50.8,29.79,WNW,292,17.0,17.0,77,0.00,,,0.00,VWS V14.01,2013-04-07 22:03:00,
2013-04-07 15:04:00,57.9,50.8,29.80,West,270,15.2,15.2,77,0.00,,,0.00,VWS V14.01,2013-04-07 22:04:00,
2013-04-07 15:05:00,57.6,49.3,29.80,West,270,15.2,15.2,74,0.00,,,0.00,VWS V14.01,2013-04-07 22:05:00,
2013-04-07 15:06:00,57.6,49.3,29.80,SW,225,16.1,16.1,74,0.00,,,0.00,VWS V14.01,2013-04-07 22:06:00,
2013-04-07 15:07:00,57.4,49.9,29.80,West,270,13.0,13.0,76,0.00,,,0.00,VWS V14.01,2013-04-07 22:07:00,
2013-04-07 15:08:00,57.6,50.1,29.79,SW,225,15.2,15.2,76,0.00,,,0.00,VWS V14.01,2013-04-07 22:08:00,
2013-04-07 15:09:00,57.6,50.1,29.80,WSW,248,13.6,13.6,76,0.00,,,0.00,VWS V14.01,2013-04-07 22:09:00,
2013-04-07 15:10:00,57.6,49.7,29.80,WSW,248,12.8,12.8,75,0.00,,,0.00,VWS V14.01,2013-04-07 22:10:00,
2013-04-07 15:11:00,57.6,49.7,29.80,West,270,15.9,15.9,75,0.00,,,0.00,VWS V14.01,2013-04-07 22:11:00,
2013-04-07 15:12:00,57.6,49.7,29.80,West,270,15.9,15.9,75,0.00,,,0.00,VWS V14.01,2013-04-07 22:12:00,
2013-04-07 15:13:00,57.2,49.7,29.79,WNW,292,13.0,13.0,76,0.00,,,0.00,VWS V14.01,2013-04-07 22:13:00,
2013-04-07 15:14:00,57.2,49.7,29.80,West,270,15.9,15.9,76,0.00,,,0.00,VWS V14.01,2013-04-07 22:14:00,
2013-04-07 15:15:00,57.2,49.7,29.80,West,270,12.1,12.1,76,0.00,,,0.00,VWS V14.01,2013-04-07 22:15:00,
2013-04-07 15:16:00,57.2,49.7,29.80,NW,315,19.7,19.7,76,0.00,,,0.00,VWS V14.01,2013-04-07 22:16:00,
2013-04-07 15:17:00,57.4,49.9,29.80,WSW,248,12.5,12.5,76,0.00,,,0.00,VWS V14.01,2013-04-07 22:17:00,
2013-04-07 15:18:00,57.4,49.9,29.79,West,270,13.6,13.6,76,0.00,,,0.00,VWS V14.01,2013-04-07 22:18:00,
2013-04-07 15:19:00,57.4,49.9,29.80,West,270,14.1,14.1,76,0.00,,,0.00,VWS V14.01,2013-04-07 22:19:00,
2013-04-07 15:20:00,57.4,49.9,29.80,WSW,248,10.5,10.5,76,0.00,,,0.00,VWS V14.01,2013-04-07 22:20:00,
2013-04-07 15:21:00,57.4,49.5,29.80,SSW,202,14.8,14.8,75,0.00,,,0.00,VWS V14.01,2013-04-07 22:21:00,
2013-04-07 15:22:00,57.4,49.5,29.80,WNW,292,15.4,15.4,75,0.00,,,0.00,VWS V14.01,2013-04-07 22:22:00,
2013-04-07 15:23:00,57.4,49.9,29.79,WSW,248,10.3,10.3,76,0.00,,,0.00,VWS V14.01,2013-04-07 22:23:00,
2013-04-07 15:24:00,57.6,50.1,29.80,WSW,248,10.3,10.3,76,0.00,,,0.00,VWS V14.01,2013-04-07 22:24:00,
2013-04-07 15:25:00,57.6,50.1,29.80,West,270,13.4,13.4,76,0.00,,,0.00,VWS V14.01,2013-04-07 22:25:00,
2013-04-07 15:26:00,57.6,50.1,29.80,West,270,14.5,14.5,76,0.00,,,0.00,VWS V14.01,2013-04-07 22:26:00,
2013-04-07 15:27:00,57.6,50.1,29.80,SSW,202,10.3,10.3,76,0.00,,,0.00,VWS V14.01,2013-04-07 22:27:00,
2013-04-07 15:28:00,58.1,50.6,29.79,WNW,292,10.5,10.5,76,0.00,,,0.00,VWS V14.01,2013-04-07 22:28:00,
2013-04-07 15:29:00,58.1,50.6,29.80,WNW,292,10.5,10.5,76,0.00,,,0.00,VWS V14.01,2013-04-07 22:29:00,
2013-04-07 15:30:00,58.1,50.6,29.80,WSW,248,13.2,13.2,76,0.00,,,0.00,VWS V14.01,2013-04-07 22:30:00,
2013-04-07 15:31:00,57.9,49.7,29.80,WNW,292,12.1,12.1,74,0.00,,,0.00,VWS V14.01,2013-04-07 22:31:00,
2013-04-07 15:32:00,57.9,49.7,29.80,WNW,292,17.0,17.0,74,0.00,,,0.00,VWS V14.01,2013-04-07 22:32:00,
2013-04-07 15:33:00,57.7,49.5,29.79,West,270,19.2,19.2,74,0.00,,,0.00,VWS V14.01,2013-04-07 22:33:00,
2013-04-07 15:34:00,57.7,49.5,29.80,West,270,12.5,12.5,74,0.00,,,0.00,VWS V14.01,2013-04-07 22:34:00,
2013-04-07 15:35:00,57.7,49.5,29.80,West,270,13.0,13.0,74,0.00,,,0.00,VWS V14.01,2013-04-07 22:35:00,
2013-04-07 15:36:00,57.7,49.5,29.80,West,270,13.0,13.0,74,0.00,,,0.00,VWS V14.01,2013-04-07 22:36:00,
2013-04-07 15:37:00,57.6,50.1,29.80,West,270,13.0,13.0,76,0.00,,,0.00,VWS V14.01,2013-04-07 22:37:00,
2013-04-07 15:38:00,57.6,50.1,29.79,WNW,292,16.6,16.6,76,0.00,,,0.00,VWS V14.01,2013-04-07 22:38:00,
2013-04-07 15:39:00,57.6,50.1,29.80,WNW,292,16.6,16.6,76,0.00,,,0.00,VWS V14.01,2013-04-07 22:39:00,
2013-04-07 15:40:00,57.6,50.1,29.80,WSW,248,9.8,9.8,76,0.00,,,0.00,VWS V14.01,2013-04-07 22:40:00,
2013-04-07 15:41:00,57.6,50.1,29.80,WSW,248,10.5,10.5,76,0.00,,,0.00,VWS V14.01,2013-04-07 22:41:00,
2013-04-07 15:42:00,57.9,50.4,29.80,WSW,248,7.4,7.4,76,0.00,,,0.00,VWS V14.01,2013-04-07 22:42:00,
2013-04-07 15:43:00,57.9,50.4,29.79,NW,315,13.0,13.0,76,0.00,,,0.00,VWS V14.01,2013-04-07 22:43:00,
2013-04-07 15:44:00,57.9,50.4,29.80,WSW,248,12.5,12.5,76,0.00,,,0.00,VWS V14.01,2013-04-07 22:44:00,
2013-04-07 15:45:00,57.9,50.4,29.80,WSW,248,12.5,12.5,76,0.00,,,0.00,VWS V14.01,2013-04-07 22:45:00,
2013-04-07 15:46:00,57.4,49.2,29.80,WSW,248,12.3,12.3,74,0.00,,,0.00,VWS V14.01,2013-04-07 22:46:00,
2013-04-07 15:47:00,57.0,48.8,29.80,NW,315,6.3,6.3,74,0.00,,,0.00,VWS V14.01,2013-04-07 22:47:00,
2013-04-07 15:48:00,56.8,48.7,29.79,WNW,292,11.0,11.0,74,0.00,,,0.00,VWS V14.01,2013-04-07 22:48:00,
2013-04-07 15:49:00,56.8,48.7,29.80,NNW,338,11.4,11.4,74,0.00,,,0.00,VWS V14.01,2013-04-07 22:49:00,
2013-04-07 15:50:00,56.8,48.7,29.80,West,270,13.2,13.2,74,0.00,,,0.00,VWS V14.01,2013-04-07 22:50:00,
2013-04-07 15:51:00,57.0,49.2,29.80,WSW,248,15.2,15.2,75,0.00,,,0.00,VWS V14.01,2013-04-07 22:51:00,
2013-04-07 15:52:00,57.0,49.2,29.80,WSW,248,11.0,11.0,75,0.00,,,0.00,VWS V14.01,2013-04-07 22:52:00,
2013-04-07 15:53:00,57.2,49.4,29.79,WNW,292,16.3,16.3,75,0.00,,,0.00,VWS V14.01,2013-04-07 22:53:00,
2013-04-07 15:54:00,57.0,48.8,29.80,WNW,292,16.3,16.3,74,0.00,,,0.00,VWS V14.01,2013-04-07 22:54:00,
2013-04-07 15:55:00,57.0,48.8,29.80,WSW,248,5.8,5.8,74,0.00,,,0.00,VWS V14.01,2013-04-07 22:55:00,
2013-04-07 15:56:00,57.0,49.2,29.76,WNW,292,18.1,18.1,75,0.00,,,0.00,VWS V14.01,2013-04-07 22:56:00,
2013-04-07 15:57:00,57.0,49.2,29.76,SW,225,14.8,14.8,75,0.00,,,0.00,VWS V14.01,2013-04-07 22:57:00,
2013-04-07 15:58:00,57.0,49.2,29.76,WSW,248,11.0,11.0,75,0.00,,,0.00,VWS V14.01,2013-04-07 22:58:00,
2013-04-07 15:59:00,57.0,49.2,29.76,West,270,9.6,9.6,75,0.00,,,0.00,VWS V14.01,2013-04-07 22:59:00,
2013-04-07 16:00:00,57.2,49.0,29.76,WNW,292,3.8,3.8,74,0.00,,,0.00,VWS V14.01,2013-04-07 23:00:00,
2013-04-07 16:01:00,57.4,48.8,29.76,WNW,292,10.5,10.5,73,0.00,,,0.00,VWS V14.01,2013-04-07 23:01:00,
2013-04-07 16:02:00,57.4,48.8,29.76,WNW,292,15.2,15.2,73,0.00,,,0.00,VWS V14.01,2013-04-07 23:02:00,
2013-04-07 16:03:00,57.0,48.1,29.76,WSW,248,12.8,12.8,72,0.00,,,0.00,VWS V14.01,2013-04-07 23:03:00,
2013-04-07 16:04:00,57.0,48.1,29.76,West,270,7.8,7.8,72,0.00,,,0.00,VWS V14.01,2013-04-07 23:04:00,
2013-04-07 16:05:00,57.4,48.8,29.76,West,270,7.8,7.8,73,0.00,,,0.00,VWS V14.01,2013-04-07 23:05:00,
2013-04-07 16:06:00,57.4,48.8,29.76,WNW,292,11.0,11.0,73,0.00,,,0.00,VWS V14.01,2013-04-07 23:06:00,
2013-04-07 16:07:00,57.2,47.9,29.76,WNW,292,13.0,13.0,71,0.00,,,0.00,VWS V14.01,2013-04-07 23:07:00,
2013-04-07 16:08:00,57.2,47.9,29.76,NNW,338,11.9,11.9,71,0.00,,,0.00,VWS V14.01,2013-04-07 23:08:00,
2013-04-07 16:09:00,57.2,47.9,29.76,NNW,338,11.9,11.9,71,0.00,,,0.00,VWS V14.01,2013-04-07 23:09:00,
2013-04-07 16:10:00,57.2,48.3,29.76,WSW,248,10.3,10.3,72,0.00,,,0.00,VWS V14.01,2013-04-07 23:10:00,
2013-04-07 16:11:00,57.2,48.3,29.76,WNW,292,6.3,6.3,72,0.00,,,0.00,VWS V14.01,2013-04-07 23:11:00,
2013-04-07 16:12:00,57.2,48.3,29.76,SW,225,14.8,14.8,72,0.00,,,0.00,VWS V14.01,2013-04-07 23:12:00,
2013-04-07 16:13:00,57.2,48.3,29.76,WSW,248,6.7,6.7,72,0.00,,,0.00,VWS V14.01,2013-04-07 23:13:00,
2013-04-07 16:14:00,57.4,48.4,29.76,NNW,338,12.8,12.8,72,0.00,,,0.00,VWS V14.01,2013-04-07 23:14:00,
2013-04-07 16:15:00,57.4,48.4,29.76,WNW,292,12.1,12.1,72,0.00,,,0.00,VWS V14.01,2013-04-07 23:15:00,
2013-04-07 16:16:00,57.2,47.9,29.76,West,270,20.1,20.1,71,0.00,,,0.00,VWS V14.01,2013-04-07 23:16:00,
2013-04-07 16:17:00,57.2,47.9,29.76,WNW,292,9.6,9.6,71,0.00,,,0.00,VWS V14.01,2013-04-07 23:17:00,
2013-04-07 16:18:00,57.2,47.9,29.76,WSW,248,11.0,11.0,71,0.00,,,0.00,VWS V14.01,2013-04-07 23:18:00,
2013-04-07 16:19:00,56.8,47.2,29.76,WSW,248,13.2,13.2,70,0.00,,,0.00,VWS V14.01,2013-04-07 23:19:00,
2013-04-07 16:20:00,56.8,47.2,29.76,West,270,19.2,19.2,70,0.00,,,0.00,VWS V14.01,2013-04-07 23:20:00,
2013-04-07 16:21:00,56.8,47.5,29.76,West,270,12.5,12.5,71,0.00,,,0.00,VWS V14.01,2013-04-07 23:21:00,
2013-04-07 16:22:00,56.8,47.5,29.76,WNW,292,16.1,16.1,71,0.00,,,0.00,VWS V14.01,2013-04-07 23:22:00,
2013-04-07 16:23:00,56.7,47.0,29.76,WNW,292,17.7,17.7,70,0.00,,,0.00,VWS V14.01,2013-04-07 23:23:00,
2013-04-07 16:24:00,56.7,47.8,29.76,West,270,8.7,8.7,72,0.00,,,0.00,VWS V14.01,2013-04-07 23:24:00,
2013-04-07 16:25:00,56.7,47.8,29.76,SSW,202,12.5,12.5,72,0.00,,,0.00,VWS V14.01,2013-04-07 23:25:00,
2013-04-07 16:26:00,56.8,48.3,29.76,SSW,202,12.5,12.5,73,0.00,,,0.00,VWS V14.01,2013-04-07 23:26:00,
2013-04-07 16:27:00,56.8,48.3,29.76,West,270,11.9,11.9,73,0.00,,,0.00,VWS V14.01,2013-04-07 23:27:00,
2013-04-07 16:28:00,56.8,48.3,29.76,West,270,12.3,12.3,73,0.00,,,0.00,VWS V14.01,2013-04-07 23:28:00,
2013-04-07 16:29:00,56.8,47.5,29.76,West,270,12.3,12.3,71,0.00,,,0.00,VWS V14.01,2013-04-07 23:29:00,
2013-04-07 16:30:00,56.8,47.5,29.76,WNW,292,13.0,13.0,71,0.00,,,0.00,VWS V14.01,2013-04-07 23:30:00,
2013-04-07 16:31:00,56.7,47.4,29.76,WSW,248,10.3,10.3,71,0.00,,,0.00,VWS V14.01,2013-04-07 23:31:00,
2013-04-07 16:32:00,56.7,47.4,29.76,West,270,19.5,19.5,71,0.00,,,0.00,VWS V14.01,2013-04-07 23:32:00,
2013-04-07 16:33:00,56.7,47.0,29.76,WNW,292,11.0,11.0,70,0.00,,,0.00,VWS V14.01,2013-04-07 23:33:00,
2013-04-07 16:34:00,56.7,47.0,29.76,WNW,292,12.8,12.8,70,0.00,,,0.00,VWS V14.01,2013-04-07 23:34:00,
2013-04-07 16:35:00,56.5,47.2,29.76,SW,225,7.8,7.8,71,0.00,,,0.00,VWS V14.01,2013-04-07 23:35:00,
2013-04-07 16:36:00,56.5,47.2,29.76,West,270,19.9,19.9,71,0.00,,,0.00,VWS V14.01,2013-04-07 23:36:00,
2013-04-07 16:37:00,56.7,47.8,29.76,SSW,202,8.1,8.1,72,0.00,,,0.00,VWS V14.01,2013-04-07 23:37:00,
2013-04-07 16:38:00,56.7,47.8,29.76,West,270,14.5,14.5,72,0.00,,,0.00,VWS V14.01,2013-04-07 23:38:00,
2013-04-07 16:39:00,56.7,48.1,29.76,West,270,14.5,14.5,73,0.00,,,0.00,VWS V14.01,2013-04-07 23:39:00,
2013-04-07 16:40:00,56.7,48.1,29.76,NW,315,10.5,10.5,73,0.00,,,0.00,VWS V14.01,2013-04-07 23:40:00,
2013-04-07 16:41:00,56.7,48.1,29.76,WSW,248,10.5,10.5,73,0.00,,,0.00,VWS V14.01,2013-04-07 23:41:00,
2013-04-07 16:42:00,56.8,48.3,29.76,WSW,248,12.3,12.3,73,0.00,,,0.00,VWS V14.01,2013-04-07 23:42:00,
2013-04-07 16:43:00,56.8,48.3,29.76,WSW,248,14.3,14.3,73,0.00,,,0.00,VWS V14.01,2013-04-07 23:43:00,
2013-04-07 16:44:00,56.7,48.1,29.76,WSW,248,11.9,11.9,73,0.00,,,0.00,VWS V14.01,2013-04-07 23:44:00,
2013-04-07 16:45:00,56.7,48.1,29.76,WSW,248,11.9,11.9,73,0.00,,,0.00,VWS V14.01,2013-04-07 23:45:00,
2013-04-07 16:46:00,56.5,47.9,29.76,WSW,248,19.9,19.9,73,0.00,,,0.00,VWS V14.01,2013-04-07 23:46:00,
2013-04-07 16:47:00,56.5,47.9,29.76,SW,225,10.3,10.3,73,0.00,,,0.00,VWS V14.01,2013-04-07 23:47:00,
2013-04-07 16:48:00,56.5,47.9,29.76,NW,315,16.6,16.6,73,0.00,,,0.00,VWS V14.01,2013-04-07 23:48:00,
2013-04-07 16:49:00,56.5,47.9,29.76,WNW,292,12.5,12.5,73,0.00,,,0.00,VWS V14.01,2013-04-07 23:49:00,
2013-04-07 16:50:00,56.5,47.9,29.76,NNW,338,9.8,9.8,73,0.00,,,0.00,VWS V14.01,2013-04-07 23:50:00,
2013-04-07 16:51:00,56.3,47.8,29.76,WNW,292,14.1,14.1,73,0.00,,,0.00,VWS V14.01,2013-04-07 23:51:00,
2013-04-07 16:52:00,56.3,47.8,29.76,WNW,292,13.2,13.2,73,0.00,,,0.00,VWS V14.01,2013-04-07 23:52:00,
2013-04-07 16:53:00,56.3,47.8,29.76,WSW,248,14.3,14.3,73,0.00,,,0.00,VWS V14.01,2013-04-07 23:53:00,
2013-04-07 16:54:00,56.5,48.3,29.76,WNW,292,8.5,8.5,74,0.00,,,0.00,VWS V14.01,2013-04-07 23:54:00,
2013-04-07 16:55:00,56.5,48.3,29.76,WNW,292,8.5,8.5,74,0.00,,,0.00,VWS V14.01,2013-04-07 23:55:00,
2013-04-07 16:56:00,56.7,48.5,29.74,WNW,292,12.5,12.5,74,0.00,,,0.00,VWS V14.01,2013-04-07 23:56:00,
2013-04-07 16:57:00,56.7,48.5,29.74,WNW,292,7.8,7.8,74,0.00,,,0.00,VWS V14.01,2013-04-07 23:57:00,
2013-04-07 16:58:00,56.8,48.7,29.74,West,270,4.9,4.9,74,0.00,,,0.00,VWS V14.01,2013-04-07 23:58:00,
2013-04-07 16:59:00,56.8,48.3,29.74,West,270,8.7,8.7,73,0.00,,,0.00,VWS V14.01,2013-04-07 23:59:00,
2013-04-07 17:00:00,56.8,48.3,29.74,West,270,8.1,8.1,73,0.00,,,0.00,VWS V14.01,2013-04-08 00:00:00,
2013-04-07 17:01:00,56.8,48.3,29.74,WNW,292,5.4,5.4,73,0.00,,,0.00,VWS V14.01,2013-04-08 00:01:00,
2013-04-07 17:02:00,57.0,48.5,29.74,WNW,292,10.3,10.3,73,0.00,,,0.00,VWS V14.01,2013-04-08 00:02:00,
2013-04-07 17:03:00,57.0,48.5,29.74,WSW,248,10.3,10.3,73,0.00,,,0.00,VWS V14.01,2013-04-08 00:03:00,
2013-04-07 17:04:00,57.0,48.5,29.74,NNW,338,14.5,14.5,73,0.00,,,0.00,VWS V14.01,2013-04-08 00:04:00,
2013-04-07 17:05:00,56.7,47.8,29.74,West,270,7.4,7.4,72,0.00,,,0.00,VWS V14.01,2013-04-08 00:05:00,
2013-04-07 17:06:00,56.7,47.8,29.74,WSW,248,10.7,10.7,72,0.00,,,0.00,VWS V14.01,2013-04-08 00:06:00,
2013-04-07 17:07:00,56.7,47.8,29.74,WNW,292,13.0,13.0,72,0.00,,,0.00,VWS V14.01,2013-04-08 00:07:00,
2013-04-07 17:08:00,56.7,47.8,29.74,NW,315,12.5,12.5,72,0.00,,,0.00,VWS V14.01,2013-04-08 00:08:00,
2013-04-07 17:09:00,56.7,47.8,29.74,WSW,248,15.2,15.2,72,0.00,,,0.00,VWS V14.01,2013-04-08 00:09:00,
2013-04-07 17:10:00,56.8,47.5,29.74,WSW,248,15.2,15.2,71,0.00,,,0.00,VWS V14.01,2013-04-08 00:10:00,
2013-04-07 17:11:00,56.8,47.5,29.74,WSW,248,11.0,11.0,71,0.00,,,0.00,VWS V14.01,2013-04-08 00:11:00,
2013-04-07 17:12:00,56.8,47.2,29.74,SW,225,13.0,13.0,70,0.00,,,0.00,VWS V14.01,2013-04-08 00:12:00,
2013-04-07 17:13:00,56.8,47.2,29.74,WSW,248,16.6,16.6,70,0.00,,,0.00,VWS V14.01,2013-04-08 00:13:00,
2013-04-07 17:14:00,56.8,47.2,29.74,WSW,248,9.4,9.4,70,0.00,,,0.00,VWS V14.01,2013-04-08 00:14:00,
2013-04-07 17:15:00,56.8,47.2,29.74,West,270,10.7,10.7,70,0.00,,,0.00,VWS V14.01,2013-04-08 00:15:00,
2013-04-07 17:16:00,56.7,47.4,29.74,West,270,10.7,10.7,71,0.00,,,0.00,VWS V14.01,2013-04-08 00:16:00,
2013-04-07 17:17:00,56.7,47.8,29.74,WSW,248,10.5,10.5,72,0.00,,,0.00,VWS V14.01,2013-04-08 00:17:00,
2013-04-07 17:18:00,56.7,47.8,29.74,WNW,292,9.6,9.6,72,0.00,,,0.00,VWS V14.01,2013-04-08 00:18:00,
2013-04-07 17:19:00,56.7,47.8,29.74,NW,315,14.1,14.1,72,0.00,,,0.00,VWS V14.01,2013-04-08 00:19:00,
2013-04-07 17:20:00,56.7,47.8,29.74,NW,315,14.1,14.1,72,0.00,,,0.00,VWS V14.01,2013-04-08 00:20:00,
2013-04-07 17:21:00,56.7,48.1,29.74,WSW,248,9.8,9.8,73,0.00,,,0.00,VWS V14.01,2013-04-08 00:21:00,
2013-04-07 17:22:00,56.7,48.1,29.74,WNW,292,15.2,15.2,73,0.00,,,0.00,VWS V14.01,2013-04-08 00:22:00,
2013-04-07 17:23:00,56.5,47.9,29.74,WNW,292,12.8,12.8,73,0.00,,,0.00,VWS V14.01,2013-04-08 00:23:00,
2013-04-07 17:24:00,56.5,47.9,29.74,SW,225,14.3,14.3,73,0.00,,,0.00,VWS V14.01,2013-04-08 00:24:00,
2013-04-07 17:25:00,56.5,47.9,29.74,SW,225,14.3,14.3,73,0.00,,,0.00,VWS V14.01,2013-04-08 00:25:00,
2013-04-07 17:26:00,56.1,48.0,29.74,West,270,10.7,10.7,74,0.00,,,0.00,VWS V14.01,2013-04-08 00:26:00,
2013-04-07 17:27:00,56.1,48.0,29.74,NW,315,11.0,11.0,74,0.00,,,0.00,VWS V14.01,2013-04-08 00:27:00,
2013-04-07 17:28:00,55.9,47.8,29.74,WNW,292,7.4,7.4,74,0.00,,,0.00,VWS V14.01,2013-04-08 00:28:00,
2013-04-07 17:29:00,55.9,48.1,29.74,West,270,14.3,14.3,75,0.00,,,0.00,VWS V14.01,2013-04-08 00:29:00,
2013-04-07 17:30:00,55.9,48.1,29.74,NW,315,10.5,10.5,75,0.00,,,0.00,VWS V14.01,2013-04-08 00:30:00,
2013-04-07 17:31:00,55.9,48.1,29.74,SSW,202,11.2,11.2,75,0.00,,,0.00,VWS V14.01,2013-04-08 00:31:00,
2013-04-07 17:32:00,55.9,48.1,29.74,SW,225,10.1,10.1,75,0.00,,,0.00,VWS V14.01,2013-04-08 00:32:00,
2013-04-07 17:33:00,55.8,48.3,29.74,NNW,338,17.7,17.7,76,0.00,,,0.00,VWS V14.01,2013-04-08 00:33:00,
2013-04-07 17:34:00,55.8,48.3,29.74,West,270,15.2,15.2,76,0.00,,,0.00,VWS V14.01,2013-04-08 00:34:00,
2013-04-07 17:35:00,55.8,48.3,29.74,West,270,15.2,15.2,76,0.00,,,0.00,VWS V14.01,2013-04-08 00:35:00,
2013-04-07 17:36:00,55.8,48.3,29.74,WNW,292,14.8,14.8,76,0.00,,,0.00,VWS V14.01,2013-04-08 00:36:00,
2013-04-07 17:37:00,55.8,48.3,29.74,West,270,13.9,13.9,76,0.00,,,0.00,VWS V14.01,2013-04-08 00:37:00,
2013-04-07 17:38:00,55.8,48.3,29.74,WNW,292,8.1,8.1,76,0.00,,,0.00,VWS V14.01,2013-04-08 00:38:00,
2013-04-07 17:39:00,55.9,48.8,29.74,West,270,8.1,8.1,77,0.00,,,0.00,VWS V14.01,2013-04-08 00:39:00,
2013-04-07 17:40:00,55.9,48.8,29.74,West,270,8.1,8.1,77,0.00,,,0.00,VWS V14.01,2013-04-08 00:40:00,
2013-04-07 17:41:00,55.9,48.8,29.74,West,270,6.5,6.5,77,0.00,,,0.00,VWS V14.01,2013-04-08 00:41:00,
2013-04-07 17:42:00,55.8,48.7,29.74,South,180,14.5,14.5,77,0.00,,,0.00,VWS V14.01,2013-04-08 00:42:00,
2013-04-07 17:43:00,55.8,48.7,29.74,West,270,8.5,8.5,77,0.00,,,0.00,VWS V14.01,2013-04-08 00:43:00,
2013-04-07 17:44:00,55.8,48.7,29.74,WSW,248,8.1,8.1,77,0.00,,,0.00,VWS V14.01,2013-04-08 00:44:00,
2013-04-07 17:45:00,55.8,48.7,29.74,WSW,248,8.1,8.1,77,0.00,,,0.00,VWS V14.01,2013-04-08 00:45:00,
2013-04-07 17:46:00,56.1,49.0,29.74,West,270,10.3,10.3,77,0.00,,,0.00,VWS V14.01,2013-04-08 00:46:00,
2013-04-07 17:47:00,56.1,49.0,29.74,WSW,248,12.3,12.3,77,0.00,,,0.00,VWS V14.01,2013-04-08 00:47:00,
2013-04-07 17:48:00,56.1,49.0,29.74,WSW,248,11.0,11.0,77,0.00,,,0.00,VWS V14.01,2013-04-08 00:48:00,
2013-04-07 17:49:00,56.1,49.0,29.74,West,270,13.2,13.2,77,0.00,,,0.00,VWS V14.01,2013-04-08 00:49:00,
2013-04-07 17:50:00,56.1,49.0,29.74,West,270,13.2,13.2,77,0.00,,,0.00,VWS V14.01,2013-04-08 00:50:00,
2013-04-07 17:51:00,55.6,47.8,29.74,West,270,9.0,9.0,75,0.00,,,0.00,VWS V14.01,2013-04-08 00:51:00,
2013-04-07 17:52:00,55.6,47.8,29.74,WSW,248,8.5,8.5,75,0.00,,,0.00,VWS V14.01,2013-04-08 00:52:00,
2013-04-07 17:53:00,55.6,47.8,29.74,SW,225,6.0,6.0,75,0.00,,,0.00,VWS V14.01,2013-04-08 00:53:00,
2013-04-07 17:54:00,55.6,47.8,29.74,WSW,248,14.3,14.3,75,0.00,,,0.00,VWS V14.01,2013-04-08 00:54:00,
2013-04-07 17:55:00,55.6,47.8,29.74,WSW,248,14.5,14.5,75,0.00,,,0.00,VWS V14.01,2013-04-08 00:55:00,
2013-04-07 17:56:00,55.4,47.6,29.74,WNW,292,7.2,7.2,75,0.00,,,0.00,VWS V14.01,2013-04-08 00:56:00,
2013-04-07 17:57:00,55.4,47.6,29.74,SW,225,11.9,11.9,75,0.00,,,0.00,VWS V14.01,2013-04-08 00:57:00,
2013-04-07 17:58:00,55.6,47.8,29.74,SW,225,12.5,12.5,75,0.00,,,0.00,VWS V14.01,2013-04-08 00:58:00,
2013-04-07 17:59:00,55.6,47.8,29.74,West,270,10.5,10.5,75,0.00,,,0.00,VWS V14.01,2013-04-08 00:59:00,
2013-04-07 18:00:00,55.6,47.4,29.74,West,270,16.6,16.6,74,0.00,,,0.00,VWS V14.01,2013-04-08 01:00:00,
2013-04-07 18:01:00,55.6,47.4,29.74,WSW,248,17.5,17.5,74,0.00,,,0.00,VWS V14.01,2013-04-08 01:01:00,
2013-04-07 18:02:00,55.4,47.3,29.74,WSW,248,10.5,10.5,74,0.00,,,0.00,VWS V14.01,2013-04-08 01:02:00,
2013-04-07 18:03:00,55.4,47.3,29.74,SSW,202,12.5,12.5,74,0.00,,,0.00,VWS V14.01,2013-04-08 01:03:00,
2013-04-07 18:04:00,55.4,47.3,29.74,West,270,13.0,13.0,74,0.00,,,0.00,VWS V14.01,2013-04-08 01:04:00,
2013-04-07 18:05:00,55.2,47.1,29.74,WSW,248,17.9,17.9,74,0.00,,,0.00,VWS V14.01,2013-04-08 01:05:00,
2013-04-07 18:06:00,55.2,47.1,29.74,WSW,248,17.9,17.9,74,0.00,,,0.00,VWS V14.01,2013-04-08 01:06:00,
2013-04-07 18:07:00,54.9,47.1,29.74,WNW,292,9.6,9.6,75,0.00,,,0.00,VWS V14.01,2013-04-08 01:07:00,
2013-04-07 18:08:00,54.9,47.1,29.74,WSW,248,13.2,13.2,75,0.00,,,0.00,VWS V14.01,2013-04-08 01:08:00,
2013-04-07 18:09:00,55.0,47.3,29.74,WNW,292,13.2,13.2,75,0.00,,,0.00,VWS V14.01,2013-04-08 01:09:00,
2013-04-07 18:10:00,55.0,47.3,29.71,WNW,292,17.7,17.7,75,0.00,,,0.00,VWS V14.01,2013-04-08 01:10:00,
2013-04-07 18:11:00,55.0,47.3,29.71,WSW,248,21.9,21.9,75,0.00,,,0.00,VWS V14.01,2013-04-08 01:11:00,
2013-04-07 18:12:00,54.9,47.5,29.71,WSW,248,17.5,17.5,76,0.00,,,0.00,VWS V14.01,2013-04-08 01:12:00,
2013-04-07 18:13:00,54.9,47.5,29.71,West,270,18.8,18.8,76,0.00,,,0.00,VWS V14.01,2013-04-08 01:13:00,
2013-04-07 18:14:00,54.7,47.3,29.71,SW,225,10.7,10.7,76,0.00,,,0.00,VWS V14.01,2013-04-08 01:14:00,
2013-04-07 18:15:00,54.9,47.8,29.71,WSW,248,8.1,8.1,77,0.00,,,0.00,VWS V14.01,2013-04-08 01:15:00,
2013-04-07 18:16:00,54.9,47.8,29.71,WSW,248,8.1,8.1,77,0.00,,,0.00,VWS V14.01,2013-04-08 01:16:00,
2013-04-07 18:17:00,54.9,47.8,29.71,WSW,248,5.6,5.6,77,0.00,,,0.00,VWS V14.01,2013-04-08 01:17:00,
2013-04-07 18:18:00,54.9,47.8,29.71,ESE,112,10.1,10.1,77,0.00,,,0.00,VWS V14.01,2013-04-08 01:18:00,
2013-04-07 18:19:00,54.9,47.8,29.71,West,270,16.3,16.3,77,0.00,,,0.00,VWS V14.01,2013-04-08 01:19:00,
2013-04-07 18:20:00,54.9,47.8,29.71,WSW,248,15.4,15.4,77,0.00,,,0.00,VWS V14.01,2013-04-08 01:20:00,
2013-04-07 18:21:00,54.7,48.0,29.71,SW,225,17.0,17.0,78,0.00,,,0.00,VWS V14.01,2013-04-08 01:21:00,
2013-04-07 18:22:00,54.7,48.0,29.71,WSW,248,10.3,10.3,78,0.00,,,0.00,VWS V14.01,2013-04-08 01:22:00,
2013-04-07 18:23:00,54.7,48.0,29.71,WSW,248,19.9,19.9,78,0.00,,,0.00,VWS V14.01,2013-04-08 01:23:00,
2013-04-07 18:24:00,54.7,48.0,29.71,WSW,248,13.2,13.2,78,0.00,,,0.00,VWS V14.01,2013-04-08 01:24:00,
2013-04-07 18:25:00,54.5,47.8,29.71,WSW,248,16.8,16.8,78,0.00,,,0.00,VWS V14.01,2013-04-08 01:25:00,
2013-04-07 18:26:00,54.5,48.1,29.71,West,270,11.0,11.0,79,0.00,,,0.00,VWS V14.01,2013-04-08 01:26:00,
2013-04-07 18:27:00,54.5,48.1,29.71,WSW,248,10.1,10.1,79,0.00,,,0.00,VWS V14.01,2013-04-08 01:27:00,
2013-04-07 18:28:00,54.5,48.1,29.71,WSW,248,15.4,15.4,79,0.00,,,0.00,VWS V14.01,2013-04-08 01:28:00,
2013-04-07 18:29:00,54.5,48.1,29.71,WSW,248,6.3,6.3,79,0.00,,,0.00,VWS V14.01,2013-04-08 01:29:00,
2013-04-07 18:30:00,54.5,48.1,29.71,West,270,11.0,11.0,79,0.00,,,0.00,VWS V14.01,2013-04-08 01:30:00,
2013-04-07 18:31:00,54.5,48.1,29.71,West,270,11.0,11.0,79,0.00,,,0.00,VWS V14.01,2013-04-08 01:31:00,
2013-04-07 18:32:00,54.5,48.1,29.71,WSW,248,10.3,10.3,79,0.00,,,0.00,VWS V14.01,2013-04-08 01:32:00,
2013-04-07 18:33:00,54.5,48.1,29.71,SSW,202,13.0,13.0,79,0.00,,,0.00,VWS V14.01,2013-04-08 01:33:00,
2013-04-07 18:34:00,54.5,48.1,29.71,WSW,248,11.9,11.9,79,0.00,,,0.00,VWS V14.01,2013-04-08 01:34:00,
2013-04-07 18:35:00,54.3,48.0,29.71,WSW,248,14.3,14.3,79,0.00,,,0.00,VWS V14.01,2013-04-08 01:35:00,
2013-04-07 18:36:00,54.3,48.0,29.71,WSW,248,11.0,11.0,79,0.00,,,0.00,VWS V14.01,2013-04-08 01:36:00,
2013-04-07 18:37:00,54.3,48.0,29.71,West,270,7.8,7.8,79,0.00,,,0.00,VWS V14.01,2013-04-08 01:37:00,
2013-04-07 18:38:00,54.3,48.0,29.71,WSW,248,12.3,12.3,79,0.00,,,0.00,VWS V14.01,2013-04-08 01:38:00,
2013-04-07 18:39:00,54.5,47.8,29.71,West,270,9.8,9.8,78,0.00,,,0.00,VWS V14.01,2013-04-08 01:39:00,
2013-04-07 18:40:00,54.3,46.9,29.71,WSW,248,13.0,13.0,76,0.00,,,0.00,VWS V14.01,2013-04-08 01:40:00,
2013-04-07 18:41:00,54.3,46.9,29.71,WSW,248,16.8,16.8,76,0.00,,,0.00,VWS V14.01,2013-04-08 01:41:00,
2013-04-07 18:42:00,54.1,46.8,29.71,WNW,292,15.2,15.2,76,0.00,,,0.00,VWS V14.01,2013-04-08 01:42:00,
2013-04-07 18:43:00,54.1,46.8,29.71,WSW,248,15.7,15.7,76,0.00,,,0.00,VWS V14.01,2013-04-08 01:43:00,
2013-04-07 18:44:00,54.1,46.4,29.71,WSW,248,8.5,8.5,75,0.00,,,0.00,VWS V14.01,2013-04-08 01:44:00,
2013-04-07 18:45:00,54.1,46.0,29.71,WSW,248,19.2,19.2,74,0.00,,,0.00,VWS V14.01,2013-04-08 01:45:00,
2013-04-07 18:46:00,54.1,46.0,29.71,WNW,292,14.8,14.8,74,0.00,,,0.00,VWS V14.01,2013-04-08 01:46:00,
2013-04-07 18:47:00,54.1,46.0,29.71,WNW,292,15.4,15.4,74,0.00,,,0.00,VWS V14.01,2013-04-08 01:47:00,
2013-04-07 18:48:00,54.0,45.9,29.71,West,270,12.5,12.5,74,0.00,,,0.00,VWS V14.01,2013-04-08 01:48:00,
2013-04-07 18:49:00,54.0,45.9,29.71,West,270,17.0,17.0,74,0.00,,,0.00,VWS V14.01,2013-04-08 01:49:00,
2013-04-07 18:50:00,54.0,45.9,29.71,WSW,248,12.8,12.8,74,0.00,,,0.00,VWS V14.01,2013-04-08 01:50:00,
2013-04-07 18:51:00,54.0,45.9,29.71,NNW,338,13.0,13.0,74,0.00,,,0.00,VWS V14.01,2013-04-08 01:51:00,
2013-04-07 18:52:00,54.0,45.9,29.71,SSW,202,15.7,15.7,74,0.00,,,0.00,VWS V14.01,2013-04-08 01:52:00,
2013-04-07 18:53:00,54.0,45.9,29.71,WSW,248,10.3,10.3,74,0.00,,,0.00,VWS V14.01,2013-04-08 01:53:00,
2013-04-07 18:54:00,54.0,45.9,29.71,WSW,248,21.9,21.9,74,0.00,,,0.00,VWS V14.01,2013-04-08 01:54:00,
2013-04-07 18:55:00,53.8,45.7,29.71,WSW,248,14.3,14.3,74,0.00,,,0.00,VWS V14.01,2013-04-08 01:55:00,
2013-04-07 18:56:00,53.8,45.7,29.71,WSW,248,14.3,14.3,74,0.00,,,0.00,VWS V14.01,2013-04-08 01:56:00,
2013-04-07 18:57:00,53.8,45.7,29.71,WSW,248,23.7,23.7,74,0.00,,,0.00,VWS V14.01,2013-04-08 01:57:00,
2013-04-07 18:58:00,53.8,45.7,29.71,WSW,248,19.9,19.9,74,0.00,,,0.00,VWS V14.01,2013-04-08 01:58:00,
2013-04-07 18:59:00,53.8,45.7,29.71,West,270,17.2,17.2,74,0.00,,,0.00,VWS V14.01,2013-04-08 01:59:00,
2013-04-07 19:00:00,53.8,45.3,29.71,West,270,17.2,17.2,73,0.00,,,0.00,VWS V14.01,2013-04-08 02:00:00,
2013-04-07 19:01:00,53.8,45.3,29.71,WSW,248,13.4,13.4,73,0.00,,,0.00,VWS V14.01,2013-04-08 02:01:00,
2013-04-07 19:02:00,53.6,45.5,29.71,WNW,292,18.1,18.1,74,0.00,,,0.00,VWS V14.01,2013-04-08 02:02:00,
2013-04-07 19:03:00,53.6,45.5,29.71,NW,315,9.8,9.8,74,0.00,,,0.00,VWS V14.01,2013-04-08 02:03:00,
2013-04-07 19:04:00,53.6,45.5,29.71,West,270,16.3,16.3,74,0.00,,,0.00,VWS V14.01,2013-04-08 02:04:00,
2013-04-07 19:05:00,53.6,45.5,29.71,WNW,292,10.7,10.7,74,0.00,,,0.00,VWS V14.01,2013-04-08 02:05:00,
2013-04-07 19:06:00,53.6,45.5,29.71,WNW,292,10.7,10.7,74,0.00,,,0.00,VWS V14.01,2013-04-08 02:06:00,
2013-04-07 19:07:00,53.6,45.5,29.71,NNW,338,17.0,17.0,74,0.00,,,0.00,VWS V14.01,2013-04-08 02:07:00,
2013-04-07 19:08:00,53.6,45.5,29.71,West,270,12.5,12.5,74,0.00,,,0.00,VWS V14.01,2013-04-08 02:08:00,
2013-04-07 19:09:00,53.6,45.5,29.71,WNW,292,12.5,12.5,74,0.00,,,0.00,VWS V14.01,2013-04-08 02:09:00,
2013-04-07 19:10:00,53.6,45.5,29.71,WSW,248,14.1,14.1,74,0.00,,,0.00,VWS V14.01,2013-04-08 02:10:00,
2013-04-07 19:11:00,53.6,45.5,29.71,WSW,248,14.1,14.1,74,0.00,,,0.00,VWS V14.01,2013-04-08 02:11:00,
2013-04-07 19:12:00,53.6,45.5,29.71,WSW,248,8.1,8.1,74,0.00,,,0.00,VWS V14.01,2013-04-08 02:12:00,
2013-04-07 19:13:00,53.6,45.5,29.71,SW,225,13.2,13.2,74,0.00,,,0.00,VWS V14.01,2013-04-08 02:13:00,
2013-04-07 19:14:00,53.6,45.9,29.71,West,270,6.0,6.0,75,0.00,,,0.00,VWS V14.01,2013-04-08 02:14:00,
2013-04-07 19:15:00,53.6,45.5,29.71,WSW,248,16.3,16.3,74,0.00,,,0.00,VWS V14.01,2013-04-08 02:15:00,
2013-04-07 19:16:00,53.6,45.5,29.71,WNW,292,17.2,17.2,74,0.00,,,0.00,VWS V14.01,2013-04-08 02:16:00,
2013-04-07 19:17:00,53.6,45.5,29.71,WNW,292,12.8,12.8,74,0.00,,,0.00,VWS V14.01,2013-04-08 02:17:00,
2013-04-07 19:18:00,53.6,45.5,29.71,WSW,248,10.5,10.5,74,0.00,,,0.00,VWS V14.01,2013-04-08 02:18:00,
2013-04-07 19:19:00,53.6,45.5,29.71,WSW,248,10.5,10.5,74,0.00,,,0.00,VWS V14.01,2013-04-08 02:19:00,
2013-04-07 19:20:00,53.6,45.5,29.71,SSW,202,11.2,11.2,74,0.00,,,0.00,VWS V14.01,2013-04-08 02:20:00,
2013-04-07 19:21:00,53.6,45.5,29.71,SSW,202,11.2,11.2,74,0.00,,,0.00,VWS V14.01,2013-04-08 02:21:00,
2013-04-07 19:22:00,53.6,45.5,29.71,West,270,10.1,10.1,74,0.00,,,0.00,VWS V14.01,2013-04-08 02:22:00,
2013-04-07 19:23:00,53.6,45.5,29.71,WSW,248,13.2,13.2,74,0.00,,,0.00,VWS V14.01,2013-04-08 02:23:00,
2013-04-07 19:24:00,53.6,45.5,29.71,WNW,292,18.8,18.8,74,0.00,,,0.00,VWS V14.01,2013-04-08 02:24:00,
2013-04-07 19:25:00,53.4,45.3,29.71,SW,225,10.5,10.5,74,0.00,,,0.00,VWS V14.01,2013-04-08 02:25:00,
2013-04-07 19:26:00,53.4,45.7,29.71,SW,225,10.5,10.5,75,0.00,,,0.00,VWS V14.01,2013-04-08 02:26:00,
2013-04-07 19:27:00,53.4,45.7,29.71,SW,225,10.5,10.5,75,0.00,,,0.00,VWS V14.01,2013-04-08 02:27:00,
2013-04-07 19:28:00,53.4,45.7,29.71,West,270,10.3,10.3,75,0.00,,,0.00,VWS V14.01,2013-04-08 02:28:00,
2013-04-07 19:29:00,53.4,45.7,29.71,WSW,248,13.9,13.9,75,0.00,,,0.00,VWS V14.01,2013-04-08 02:29:00,
2013-04-07 19:30:00,53.4,45.7,29.71,WSW,248,17.2,17.2,75,0.00,,,0.00,VWS V14.01,2013-04-08 02:30:00,
2013-04-07 19:31:00,53.4,45.7,29.71,WSW,248,17.2,17.2,75,0.00,,,0.00,VWS V14.01,2013-04-08 02:31:00,
2013-04-07 19:32:00,53.4,45.7,29.71,West,270,18.6,18.6,75,0.00,,,0.00,VWS V14.01,2013-04-08 02:32:00,
2013-04-07 19:33:00,53.4,45.7,29.71,WSW,248,10.5,10.5,75,0.00,,,0.00,VWS V14.01,2013-04-08 02:33:00,
2013-04-07 19:34:00,53.4,45.7,29.71,WSW,248,10.5,10.5,75,0.00,,,0.00,VWS V14.01,2013-04-08 02:34:00,
2013-04-07 19:35:00,53.4,45.7,29.71,WSW,248,17.2,17.2,75,0.00,,,0.00,VWS V14.01,2013-04-08 02:35:00,
2013-04-07 19:36:00,53.4,45.7,29.71,WSW,248,17.2,17.2,75,0.00,,,0.00,VWS V14.01,2013-04-08 02:36:00,
2013-04-07 19:37:00,53.2,45.9,29.71,WNW,292,4.3,4.3,76,0.00,,,0.00,VWS V14.01,2013-04-08 02:37:00,
2013-04-07 19:38:00,53.2,45.9,29.71,WSW,248,18.6,18.6,76,0.00,,,0.00,VWS V14.01,2013-04-08 02:38:00,
2013-04-07 19:39:00,53.2,45.9,29.71,WSW,248,11.0,11.0,76,0.00,,,0.00,VWS V14.01,2013-04-08 02:39:00,
2013-04-07 19:40:00,53.2,45.9,29.71,WSW,248,10.7,10.7,76,0.00,,,0.00,VWS V14.01,2013-04-08 02:40:00,
2013-04-07 19:41:00,53.2,45.9,29.71,WSW,248,10.7,10.7,76,0.00,,,0.00,VWS V14.01,2013-04-08 02:41:00,
2013-04-07 19:42:00,53.2,45.9,29.71,WNW,292,6.9,6.9,76,0.00,,,0.00,VWS V14.01,2013-04-08 02:42:00,
2013-04-07 19:43:00,53.2,45.9,29.71,WSW,248,7.8,7.8,76,0.00,,,0.00,VWS V14.01,2013-04-08 02:43:00,
2013-04-07 19:44:00,53.4,46.4,29.71,WNW,292,10.3,10.3,77,0.00,,,0.00,VWS V14.01,2013-04-08 02:44:00,
2013-04-07 19:45:00,53.2,46.2,29.71,WSW,248,4.3,4.3,77,0.00,,,0.00,VWS V14.01,2013-04-08 02:45:00,
2013-04-07 19:46:00,53.2,46.2,29.71,WSW,248,4.3,4.3,77,0.00,,,0.00,VWS V14.01,2013-04-08 02:46:00,
2013-04-07 19:47:00,53.2,46.2,29.71,WSW,248,5.8,5.8,77,0.00,,,0.00,VWS V14.01,2013-04-08 02:47:00,
2013-04-07 19:48:00,53.2,46.2,29.71,WNW,292,12.3,12.3,77,0.00,,,0.00,VWS V14.01,2013-04-08 02:48:00,
2013-04-07 19:49:00,53.2,46.6,29.71,West,270,9.4,9.4,78,0.00,,,0.00,VWS V14.01,2013-04-08 02:49:00,
2013-04-07 19:50:00,53.2,46.6,29.71,West,270,5.8,5.8,78,0.00,,,0.00,VWS V14.01,2013-04-08 02:50:00,
2013-04-07 19:51:00,53.2,46.6,29.71,WSW,248,7.4,7.4,78,0.00,,,0.00,VWS V14.01,2013-04-08 02:51:00,
2013-04-07 19:52:00,53.2,46.6,29.71,SSW,202,5.4,5.4,78,0.00,,,0.00,VWS V14.01,2013-04-08 02:52:00,
2013-04-07 19:53:00,53.2,46.6,29.71,SSE,158,6.0,6.0,78,0.00,,,0.00,VWS V14.01,2013-04-08 02:53:00,
2013-04-07 19:54:00,53.2,46.6,29.71,SW,225,8.1,8.1,78,0.00,,,0.00,VWS V14.01,2013-04-08 02:54:00,
2013-04-07 19:55:00,53.2,46.6,29.71,WSW,248,8.7,8.7,78,0.00,,,0.00,VWS V14.01,2013-04-08 02:55:00,
2013-04-07 19:56:00,53.4,46.7,29.71,SSW,202,5.4,5.4,78,0.00,,,0.00,VWS V14.01,2013-04-08 02:56:00,
2013-04-07 19:57:00,53.4,46.7,29.71,WSW,248,10.3,10.3,78,0.00,,,0.00,VWS V14.01,2013-04-08 02:57:00,
2013-04-07 19:58:00,53.2,46.9,29.71,SW,225,10.3,10.3,79,0.00,,,0.00,VWS V14.01,2013-04-08 02:58:00,
2013-04-07 19:59:00,53.2,46.9,29.71,SW,225,7.6,7.6,79,0.00,,,0.00,VWS V14.01,2013-04-08 02:59:00,
2013-04-07 20:00:00,53.2,46.9,29.71,WSW,248,6.5,6.5,79,0.00,,,0.00,VWS V14.01,2013-04-08 03:00:00,
2013-04-07 20:01:00,53.2,46.9,29.71,SSW,202,5.6,5.6,79,0.00,,,0.00,VWS V14.01,2013-04-08 03:01:00,
2013-04-07 20:02:00,53.4,47.1,29.71,WSW,248,5.6,5.6,79,0.00,,,0.00,VWS V14.01,2013-04-08 03:02:00,
2013-04-07 20:03:00,53.2,46.9,29.71,WSW,248,8.1,8.1,79,0.00,,,0.00,VWS V14.01,2013-04-08 03:03:00,
2013-04-07 20:04:00,53.2,46.9,29.71,SW,225,8.5,8.5,79,0.00,,,0.00,VWS V14.01,2013-04-08 03:04:00,
2013-04-07 20:05:00,53.2,46.9,29.71,SW,225,10.1,10.1,79,0.00,,,0.00,VWS V14.01,2013-04-08 03:05:00,
2013-04-07 20:06:00,53.2,46.9,29.71,WSW,248,13.2,13.2,79,0.00,,,0.00,VWS V14.01,2013-04-08 03:06:00,
2013-04-07 20:07:00,53.2,47.2,29.71,WSW,248,12.5,12.5,80,0.00,,,0.00,VWS V14.01,2013-04-08 03:07:00,
2013-04-07 20:08:00,53.2,47.2,29.71,WSW,248,17.2,17.2,80,0.00,,,0.00,VWS V14.01,2013-04-08 03:08:00,
2013-04-07 20:09:00,53.1,47.1,29.71,WSW,248,11.0,11.0,80,0.00,,,0.00,VWS V14.01,2013-04-08 03:09:00,
2013-04-07 20:10:00,53.1,47.1,29.71,WSW,248,12.1,12.1,80,0.00,,,0.00,VWS V14.01,2013-04-08 03:10:00,
2013-04-07 20:11:00,53.1,47.1,29.71,WSW,248,6.0,6.0,80,0.00,,,0.00,VWS V14.01,2013-04-08 03:11:00,
2013-04-07 20:12:00,53.1,47.1,29.71,West,270,3.8,3.8,80,0.00,,,0.00,VWS V14.01,2013-04-08 03:12:00,
2013-04-07 20:13:00,53.1,47.1,29.71,West,270,9.4,9.4,80,0.00,,,0.00,VWS V14.01,2013-04-08 03:13:00,
2013-04-07 20:14:00,53.1,47.1,29.71,WSW,248,8.7,8.7,80,0.00,,,0.00,VWS V14.01,2013-04-08 03:14:00,
2013-04-07 20:15:00,53.1,47.1,29.71,West,270,8.1,8.1,80,0.00,,,0.00,VWS V14.01,2013-04-08 03:15:00,
2013-04-07 20:16:00,53.1,47.1,29.71,WSW,248,8.5,8.5,80,0.00,,,0.00,VWS V14.01,2013-04-08 03:16:00,
2013-04-07 20:17:00,53.1,47.1,29.71,WSW,248,5.8,5.8,80,0.00,,,0.00,VWS V14.01,2013-04-08 03:17:00,
2013-04-07 20:18:00,53.1,47.1,29.71,West,270,8.5,8.5,80,0.00,,,0.00,VWS V14.01,2013-04-08 03:18:00,
2013-04-07 20:19:00,53.1,47.4,29.71,West,270,8.5,8.5,81,0.00,,,0.00,VWS V14.01,2013-04-08 03:19:00,
2013-04-07 20:20:00,53.1,47.4,29.71,SW,225,8.1,8.1,81,0.00,,,0.00,VWS V14.01,2013-04-08 03:20:00,
2013-04-07 20:21:00,53.1,47.4,29.71,WSW,248,5.6,5.6,81,0.00,,,0.00,VWS V14.01,2013-04-08 03:21:00,
2013-04-07 20:22:00,53.1,47.4,29.71,WNW,292,7.8,7.8,81,0.00,,,0.00,VWS V14.01,2013-04-08 03:22:00,
2013-04-07 20:23:00,53.1,47.4,29.71,NW,315,9.6,9.6,81,0.00,,,0.00,VWS V14.01,2013-04-08 03:23:00,
2013-04-07 20:24:00,53.1,47.4,29.71,WSW,248,8.7,8.7,81,0.00,,,0.00,VWS V14.01,2013-04-08 03:24:00,
2013-04-07 20:25:00,53.1,47.4,29.71,WSW,248,12.1,12.1,81,0.00,,,0.00,VWS V14.01,2013-04-08 03:25:00,
2013-04-07 20:26:00,53.1,47.4,29.71,WSW,248,4.9,4.9,81,0.00,,,0.00,VWS V14.01,2013-04-08 03:26:00,
2013-04-07 20:27:00,53.1,47.4,29.71,WSW,248,4.9,4.9,81,0.00,,,0.00,VWS V14.01,2013-04-08 03:27:00,
2013-04-07 20:28:00,53.1,47.4,29.71,WNW,292,12.5,12.5,81,0.00,,,0.00,VWS V14.01,2013-04-08 03:28:00,
2013-04-07 20:29:00,53.1,47.4,29.71,WSW,248,3.8,3.8,81,0.00,,,0.00,VWS V14.01,2013-04-08 03:29:00,
2013-04-07 20:30:00,53.1,47.4,29.71,WSW,248,7.6,7.6,81,0.00,,,0.00,VWS V14.01,2013-04-08 03:30:00,
2013-04-07 20:31:00,53.1,47.4,29.71,WSW,248,7.8,7.8,81,0.00,,,0.00,VWS V14.01,2013-04-08 03:31:00,
2013-04-07 20:32:00,53.2,47.9,29.71,WSW,248,5.4,5.4,82,0.00,,,0.00,VWS V14.01,2013-04-08 03:32:00,
2013-04-07 20:33:00,53.2,47.9,29.71,WSW,248,6.3,6.3,82,0.00,,,0.00,VWS V14.01,2013-04-08 03:33:00,
2013-04-07 20:34:00,53.2,47.9,29.71,WSW,248,6.3,6.3,82,0.00,,,0.00,VWS V14.01,2013-04-08 03:34:00,
2013-04-07 20:35:00,53.2,47.9,29.71,West,270,7.6,7.6,82,0.00,,,0.00,VWS V14.01,2013-04-08 03:35:00,
2013-04-07 20:36:00,53.2,47.9,29.71,SW,225,6.3,6.3,82,0.00,,,0.00,VWS V14.01,2013-04-08 03:36:00,
2013-04-07 20:37:00,53.2,47.9,29.71,SW,225,7.2,7.2,82,0.00,,,0.00,VWS V14.01,2013-04-08 03:37:00,
2013-04-07 20:38:00,53.2,47.9,29.71,WSW,248,7.8,7.8,82,0.00,,,0.00,VWS V14.01,2013-04-08 03:38:00,
2013-04-07 20:39:00,53.1,48.0,29.71,West,270,8.1,8.1,83,0.00,,,0.00,VWS V14.01,2013-04-08 03:39:00,
2013-04-07 20:40:00,53.1,48.0,29.71,WSW,248,6.5,6.5,83,0.00,,,0.00,VWS V14.01,2013-04-08 03:40:00,
2013-04-07 20:41:00,53.1,48.0,29.71,WSW,248,10.5,10.5,83,0.00,,,0.00,VWS V14.01,2013-04-08 03:41:00,
2013-04-07 20:42:00,53.1,48.4,29.71,SSE,158,7.6,7.6,84,0.00,,,0.00,VWS V14.01,2013-04-08 03:42:00,
2013-04-07 20:43:00,53.1,48.4,29.71,SW,225,6.3,6.3,84,0.00,,,0.00,VWS V14.01,2013-04-08 03:43:00,
2013-04-07 20:44:00,53.1,48.4,29.71,WNW,292,12.5,12.5,84,0.00,,,0.00,VWS V14.01,2013-04-08 03:44:00,
2013-04-07 20:45:00,53.1,48.4,29.71,WSW,248,10.5,10.5,84,0.00,,,0.00,VWS V14.01,2013-04-08 03:45:00,
2013-04-07 20:46:00,53.1,48.4,29.71,WSW,248,11.0,11.0,84,0.00,,,0.00,VWS V14.01,2013-04-08 03:46:00,
2013-04-07 20:47:00,53.1,48.7,29.71,WNW,292,11.0,11.0,85,0.00,,,0.00,VWS V14.01,2013-04-08 03:47:00,
2013-04-07 20:48:00,53.1,48.7,29.71,WNW,292,11.0,11.0,85,0.00,,,0.00,VWS V14.01,2013-04-08 03:48:00,
2013-04-07 20:49:00,53.1,48.7,29.71,WSW,248,9.8,9.8,85,0.00,,,0.00,VWS V14.01,2013-04-08 03:49:00,
2013-04-07 20:50:00,53.1,48.7,29.71,NNW,338,10.5,10.5,85,0.00,,,0.00,VWS V14.01,2013-04-08 03:50:00,
2013-04-07 20:51:00,52.9,48.5,29.71,SSW,202,12.1,12.1,85,0.00,,,0.00,VWS V14.01,2013-04-08 03:51:00,
2013-04-07 20:52:00,52.9,48.5,29.71,WSW,248,13.0,13.0,85,0.00,,,0.00,VWS V14.01,2013-04-08 03:52:00,
2013-04-07 20:53:00,52.9,48.5,29.71,WSW,248,13.0,13.0,85,0.00,,,0.00,VWS V14.01,2013-04-08 03:53:00,
2013-04-07 20:54:00,52.9,48.5,29.71,West,270,4.3,4.3,85,0.00,,,0.00,VWS V14.01,2013-04-08 03:54:00,
2013-04-07 20:55:00,52.9,48.8,29.71,West,270,7.8,7.8,86,0.00,,,0.00,VWS V14.01,2013-04-08 03:55:00,
2013-04-07 20:56:00,52.7,49.0,29.71,West,270,8.5,8.5,87,0.00,,,0.00,VWS V14.01,2013-04-08 03:56:00,
2013-04-07 20:57:00,52.7,49.0,29.71,WSW,248,10.1,10.1,87,0.00,,,0.00,VWS V14.01,2013-04-08 03:57:00,
2013-04-07 20:58:00,52.7,49.0,29.71,West,270,9.6,9.6,87,0.00,,,0.00,VWS V14.01,2013-04-08 03:58:00,
2013-04-07 20:59:00,52.7,49.0,29.71,WSW,248,7.6,7.6,87,0.00,,,0.00,VWS V14.01,2013-04-08 03:59:00,
2013-04-07 21:00:00,52.7,49.2,29.71,WSW,248,7.6,7.6,88,0.00,,,0.00,VWS V14.01,2013-04-08 04:00:00,
2013-04-07 21:01:00,52.7,49.2,29.71,West,270,5.6,5.6,88,0.00,,,0.00,VWS V14.01,2013-04-08 04:01:00,
2013-04-07 21:02:00,52.7,49.2,29.71,NW,315,10.1,10.1,88,0.00,,,0.00,VWS V14.01,2013-04-08 04:02:00,
2013-04-07 21:03:00,52.7,49.2,29.71,WSW,248,6.5,6.5,88,0.00,,,0.00,VWS V14.01,2013-04-08 04:03:00,
2013-04-07 21:04:00,52.5,49.1,29.71,WSW,248,11.0,11.0,88,0.00,,,0.00,VWS V14.01,2013-04-08 04:04:00,
2013-04-07 21:05:00,52.5,49.4,29.71,SW,225,8.1,8.1,89,0.00,,,0.00,VWS V14.01,2013-04-08 04:05:00,
2013-04-07 21:06:00,52.5,49.4,29.71,WSW,248,6.3,6.3,89,0.00,,,0.00,VWS V14.01,2013-04-08 04:06:00,
2013-04-07 21:07:00,52.5,49.4,29.71,WSW,248,6.3,6.3,89,0.00,,,0.00,VWS V14.01,2013-04-08 04:07:00,
2013-04-07 21:08:00,52.5,49.4,29.71,SW,225,6.5,6.5,89,0.00,,,0.00,VWS V14.01,2013-04-08 04:08:00,
2013-04-07 21:09:00,52.5,49.4,29.71,SSW,202,4.7,4.7,89,0.00,,,0.00,VWS V14.01,2013-04-08 04:09:00,
2013-04-07 21:10:00,52.5,49.4,29.71,SW,225,12.5,12.5,89,0.00,,,0.00,VWS V14.01,2013-04-08 04:10:00,
2013-04-07 21:11:00,52.5,49.4,29.68,NW,315,6.0,6.0,89,0.00,,,0.00,VWS V14.01,2013-04-08 04:11:00,
2013-04-07 21:12:00,52.5,49.7,29.68,NW,315,5.8,5.8,90,0.00,,,0.00,VWS V14.01,2013-04-08 04:12:00,
2013-04-07 21:13:00,52.5,49.7,29.68,West,270,4.3,4.3,90,0.00,,,0.00,VWS V14.01,2013-04-08 04:13:00,
2013-04-07 21:14:00,52.5,49.7,29.68,WSW,248,4.3,4.3,90,0.00,,,0.00,VWS V14.01,2013-04-08 04:14:00,
2013-04-07 21:15:00,52.5,49.7,29.68,SSW,202,1.6,1.6,90,0.00,,,0.00,VWS V14.01,2013-04-08 04:15:00,
2013-04-07 21:16:00,52.5,49.7,29.68,SW,225,3.8,3.8,90,0.00,,,0.00,VWS V14.01,2013-04-08 04:16:00,
2013-04-07 21:17:00,52.5,49.7,29.68,WSW,248,10.3,10.3,90,0.00,,,0.00,VWS V14.01,2013-04-08 04:17:00,
2013-04-07 21:18:00,52.3,49.5,29.68,WSW,248,6.0,6.0,90,0.00,,,0.00,VWS V14.01,2013-04-08 04:18:00,
2013-04-07 21:19:00,52.3,49.5,29.68,SW,225,3.8,3.8,90,0.00,,,0.00,VWS V14.01,2013-04-08 04:19:00,
2013-04-07 21:20:00,52.3,49.5,29.68,WSW,248,5.8,5.8,90,0.00,,,0.00,VWS V14.01,2013-04-08 04:20:00,
2013-04-07 21:21:00,52.3,49.8,29.68,SW,225,7.8,7.8,91,0.00,,,0.00,VWS V14.01,2013-04-08 04:21:00,
2013-04-07 21:22:00,52.3,49.8,29.68,SW,225,7.8,7.8,91,0.00,,,0.00,VWS V14.01,2013-04-08 04:22:00,
2013-04-07 21:23:00,52.3,49.8,29.68,WSW,248,3.8,3.8,91,0.00,,,0.00,VWS V14.01,2013-04-08 04:23:00,
2013-04-07 21:24:00,52.3,49.8,29.68,West,270,8.5,8.5,91,0.00,,,0.00,VWS V14.01,2013-04-08 04:24:00,
2013-04-07 21:25:00,52.3,49.8,29.68,SSW,202,7.8,7.8,91,0.00,,,0.00,VWS V14.01,2013-04-08 04:25:00,
2013-04-07 21:26:00,52.3,49.8,29.68,SW,225,9.4,9.4,91,0.00,,,0.00,VWS V14.01,2013-04-08 04:26:00,
2013-04-07 21:27:00,52.3,50.1,29.68,SSW,202,12.5,12.5,92,0.00,,,0.00,VWS V14.01,2013-04-08 04:27:00,
2013-04-07 21:28:00,52.3,50.1,29.68,SSW,202,9.6,9.6,92,0.00,,,0.00,VWS V14.01,2013-04-08 04:28:00,
2013-04-07 21:29:00,52.3,50.1,29.68,WNW,292,9.6,9.6,92,0.00,,,0.00,VWS V14.01,2013-04-08 04:29:00,
2013-04-07 21:30:00,52.3,50.1,29.68,WSW,248,8.5,8.5,92,0.00,,,0.00,VWS V14.01,2013-04-08 04:30:00,
2013-04-07 21:31:00,52.3,50.1,29.68,SSW,202,7.6,7.6,92,0.00,,,0.00,VWS V14.01,2013-04-08 04:31:00,
2013-04-07 21:32:00,52.3,50.1,29.68,WSW,248,7.2,7.2,92,0.00,,,0.00,VWS V14.01,2013-04-08 04:32:00,
2013-04-07 21:33:00,52.3,50.1,29.68,WSW,248,9.6,9.6,92,0.00,,,0.00,VWS V14.01,2013-04-08 04:33:00,
2013-04-07 21:34:00,52.3,50.1,29.68,WSW,248,9.6,9.6,92,0.00,,,0.00,VWS V14.01,2013-04-08 04:34:00,
2013-04-07 21:35:00,52.3,50.4,29.68,WNW,292,10.3,10.3,93,0.00,,,0.00,VWS V14.01,2013-04-08 04:35:00,
2013-04-07 21:36:00,52.3,50.4,29.68,WSW,248,7.4,7.4,93,0.00,,,0.00,VWS V14.01,2013-04-08 04:36:00,
2013-04-07 21:37:00,52.3,50.4,29.68,SW,225,8.1,8.1,93,0.00,,,0.00,VWS V14.01,2013-04-08 04:37:00,
2013-04-07 21:38:00,52.3,50.4,29.68,SW,225,9.6,9.6,93,0.00,,,0.00,VWS V14.01,2013-04-08 04:38:00,
2013-04-07 21:39:00,52.3,50.4,29.68,SSW,202,10.7,10.7,93,0.00,,,0.00,VWS V14.01,2013-04-08 04:39:00,
2013-04-07 21:40:00,52.3,50.4,29.68,SSW,202,12.5,12.5,93,0.00,,,0.00,VWS V14.01,2013-04-08 04:40:00,
2013-04-07 21:41:00,52.3,50.4,29.68,SSW,202,12.5,12.5,93,0.00,,,0.00,VWS V14.01,2013-04-08 04:41:00,
2013-04-07 21:42:00,52.3,50.4,29.68,SW,225,12.1,12.1,93,0.00,,,0.00,VWS V14.01,2013-04-08 04:42:00,
2013-04-07 21:43:00,52.3,50.4,29.68,SSW,202,7.8,7.8,93,0.00,,,0.00,VWS V14.01,2013-04-08 04:43:00,
2013-04-07 21:44:00,52.3,50.4,29.68,SSW,202,7.8,7.8,93,0.00,,,0.00,VWS V14.01,2013-04-08 04:44:00,
2013-04-07 21:45:00,52.3,50.4,29.68,NW,315,10.7,10.7,93,0.00,,,0.00,VWS V14.01,2013-04-08 04:45:00,
2013-04-07 21:46:00,52.2,50.2,29.68,WSW,248,4.9,4.9,93,0.00,,,0.00,VWS V14.01,2013-04-08 04:46:00,
2013-04-07 21:47:00,52.2,50.2,29.68,WSW,248,10.7,10.7,93,0.00,,,0.00,VWS V14.01,2013-04-08 04:47:00,
2013-04-07 21:48:00,52.2,50.5,29.68,SW,225,4.3,4.3,94,0.00,,,0.00,VWS V14.01,2013-04-08 04:48:00,
2013-04-07 21:49:00,52.2,50.5,29.68,SSW,202,6.5,6.5,94,0.00,,,0.00,VWS V14.01,2013-04-08 04:49:00,
2013-04-07 21:50:00,52.2,50.5,29.68,South,180,5.4,5.4,94,0.00,,,0.00,VWS V14.01,2013-04-08 04:50:00,
2013-04-07 21:51:00,52.2,50.5,29.68,SSW,202,9.8,9.8,94,0.00,,,0.00,VWS V14.01,2013-04-08 04:51:00,
2013-04-07 21:52:00,52.2,50.5,29.68,WSW,248,10.7,10.7,94,0.00,,,0.00,VWS V14.01,2013-04-08 04:52:00,
2013-04-07 21:53:00,52.2,50.5,29.68,SSW,202,8.1,8.1,94,0.00,,,0.00,VWS V14.01,2013-04-08 04:53:00,
2013-04-07 21:54:00,52.2,50.5,29.68,SW,225,12.5,12.5,94,0.00,,,0.00,VWS V14.01,2013-04-08 04:54:00,
2013-04-07 21:55:00,52.2,50.5,29.68,SSW,202,5.6,5.6,94,0.00,,,0.00,VWS V14.01,2013-04-08 04:55:00,
2013-04-07 21:56:00,52.2,50.5,29.65,WSW,248,6.3,6.3,94,0.00,,,0.00,VWS V14.01,2013-04-08 04:56:00,
2013-04-07 21:57:00,52.2,50.5,29.65,West,270,11.4,11.4,94,0.00,,,0.00,VWS V14.01,2013-04-08 04:57:00,
2013-04-07 21:58:00,52.2,50.8,29.65,WSW,248,12.5,12.5,95,0.00,,,0.00,VWS V14.01,2013-04-08 04:58:00,
2013-04-07 21:59:00,52.2,50.8,29.65,WSW,248,13.2,13.2,95,0.00,,,0.00,VWS V14.01,2013-04-08 04:59:00,
2013-04-07 22:00:00,52.2,50.8,29.65,WSW,248,10.1,10.1,95,0.00,,,0.00,VWS V14.01,2013-04-08 05:00:00,
2013-04-07 22:01:00,52.2,50.8,29.65,WSW,248,10.1,10.1,95,0.00,,,0.00,VWS V14.01,2013-04-08 05:01:00,
2013-04-07 22:02:00,52.2,50.8,29.65,SSW,202,7.8,7.8,95,0.00,,,0.00,VWS V14.01,2013-04-08 05:02:00,
2013-04-07 22:03:00,52.2,50.8,29.65,WSW,248,6.5,6.5,95,0.00,,,0.00,VWS V14.01,2013-04-08 05:03:00,
2013-04-07 22:04:00,52.3,51.0,29.65,West,270,12.8,12.8,95,0.00,,,0.00,VWS V14.01,2013-04-08 05:04:00,
2013-04-07 22:06:00,52.3,51.0,29.65,WSW,248,5.4,5.4,95,0.00,,,0.00,VWS V14.01,2013-04-08 05:06:00,
2013-04-07 22:07:00,52.3,51.0,29.65,West,270,8.5,8.5,95,0.00,,,0.00,VWS V14.01,2013-04-08 05:07:00,
2013-04-07 22:08:00,52.3,51.0,29.65,WSW,248,10.5,10.5,95,0.00,,,0.00,VWS V14.01,2013-04-08 05:08:00,
2013-04-07 22:09:00,52.3,51.0,29.65,WSW,248,6.0,6.0,95,0.00,,,0.00,VWS V14.01,2013-04-08 05:09:00,
2013-04-07 22:10:00,52.3,51.0,29.65,SW,225,10.7,10.7,95,0.00,,,0.00,VWS V14.01,2013-04-08 05:10:00,
2013-04-07 22:11:00,52.3,51.0,29.65,SW,225,5.8,5.8,95,0.00,,,0.00,VWS V14.01,2013-04-08 05:11:00,
2013-04-07 22:12:00,52.3,51.0,29.65,SSW,202,11.0,11.0,95,0.00,,,0.00,VWS V14.01,2013-04-08 05:12:00,
2013-04-07 22:13:00,52.3,51.0,29.65,SW,225,12.8,12.8,95,0.00,,,0.00,VWS V14.01,2013-04-08 05:13:00,
2013-04-07 22:14:00,52.3,51.2,29.65,WSW,248,8.1,8.1,96,0.00,,,0.00,VWS V14.01,2013-04-08 05:14:00,
2013-04-07 22:15:00,52.3,51.2,29.65,WSW,248,12.8,12.8,96,0.00,,,0.00,VWS V14.01,2013-04-08 05:15:00,
2013-04-07 22:16:00,52.5,51.4,29.65,SSW,202,12.3,12.3,96,0.00,,,0.00,VWS V14.01,2013-04-08 05:16:00,
2013-04-07 22:18:00,52.5,51.4,29.65,SSW,202,10.3,10.3,96,0.00,,,0.00,VWS V14.01,2013-04-08 05:18:00,
2013-04-07 22:19:00,52.5,51.4,29.65,WSW,248,11.0,11.0,96,0.00,,,0.00,VWS V14.01,2013-04-08 05:19:00,
2013-04-07 22:20:00,52.3,51.5,29.65,SW,225,6.5,6.5,97,0.00,,,0.00,VWS V14.01,2013-04-08 05:20:00,
2013-04-07 22:21:00,52.3,51.5,29.65,SW,225,12.1,12.1,97,0.00,,,0.00,VWS V14.01,2013-04-08 05:21:00,
2013-04-07 22:22:00,52.3,51.5,29.65,SW,225,12.1,12.1,97,0.00,,,0.00,VWS V14.01,2013-04-08 05:22:00,
2013-04-07 22:23:00,52.3,51.5,29.65,SW,225,9.4,9.4,97,0.00,,,0.00,VWS V14.01,2013-04-08 05:23:00,
2013-04-07 22:24:00,52.3,51.5,29.65,SW,225,22.6,22.6,97,0.00,,,0.00,VWS V14.01,2013-04-08 05:24:00,
2013-04-07 22:25:00,52.3,51.5,29.65,SW,225,15.4,15.4,97,0.00,,,0.00,VWS V14.01,2013-04-08 05:25:00,
2013-04-07 22:26:00,52.3,51.5,29.62,WSW,248,13.2,13.2,97,0.00,,,0.00,VWS V14.01,2013-04-08 05:26:00,
2013-04-07 22:27:00,52.3,51.5,29.62,SSW,202,9.8,9.8,97,0.00,,,0.00,VWS V14.01,2013-04-08 05:27:00,
2013-04-07 22:28:00,52.3,51.8,29.62,WSW,248,5.6,5.6,98,0.00,,,0.00,VWS V14.01,2013-04-08 05:28:00,
2013-04-07 22:29:00,52.3,51.8,29.62,WSW,248,15.2,15.2,98,0.00,,,0.00,VWS V14.01,2013-04-08 05:29:00,
2013-04-07 22:30:00,52.3,51.8,29.62,WSW,248,15.4,15.4,98,0.00,,,0.00,VWS V14.01,2013-04-08 05:30:00,
2013-04-07 22:31:00,52.3,51.8,29.62,SW,225,17.2,17.2,98,0.00,,,0.00,VWS V14.01,2013-04-08 05:31:00,
2013-04-07 22:32:00,52.3,51.8,29.62,SW,225,6.5,6.5,98,0.00,,,0.00,VWS V14.01,2013-04-08 05:32:00,
2013-04-07 22:33:00,52.3,51.8,29.62,WSW,248,4.9,4.9,98,0.00,,,0.00,VWS V14.01,2013-04-08 05:33:00,
2013-04-07 22:34:00,52.3,51.8,29.62,SW,225,9.8,9.8,98,0.00,,,0.00,VWS V14.01,2013-04-08 05:34:00,
2013-04-07 22:35:00,52.5,52.0,29.62,SW,225,9.8,9.8,98,0.00,,,0.00,VWS V14.01,2013-04-08 05:35:00,
2013-04-07 22:36:00,52.5,52.0,29.62,SW,225,25.1,25.1,98,0.00,,,0.00,VWS V14.01,2013-04-08 05:36:00,
2013-04-07 22:37:00,52.5,52.0,29.62,SW,225,8.1,8.1,98,0.00,,,0.00,VWS V14.01,2013-04-08 05:37:00,
2013-04-07 22:38:00,52.5,52.0,29.62,WSW,248,9.2,9.2,98,0.00,,,0.00,VWS V14.01,2013-04-08 05:38:00,
2013-04-07 22:39:00,52.5,52.0,29.62,SW,225,14.1,14.1,98,0.00,,,0.00,VWS V14.01,2013-04-08 05:39:00,
2013-04-07 22:40:00,52.5,52.0,29.62,WSW,248,18.8,18.8,98,0.04,,,0.04,VWS V14.01,2013-04-08 05:40:00,
2013-04-07 22:41:00,52.5,52.0,29.62,West,270,15.4,15.4,98,0.04,,,0.04,VWS V14.01,2013-04-08 05:41:00,
2013-04-07 22:42:00,52.5,52.0,29.62,SW,225,22.8,22.8,98,0.04,,,0.04,VWS V14.01,2013-04-08 05:42:00,
2013-04-07 22:43:00,52.5,52.0,29.62,WSW,248,15.4,15.4,98,0.04,,,0.04,VWS V14.01,2013-04-08 05:43:00,
2013-04-07 22:44:00,52.5,52.0,29.62,SW,225,11.0,11.0,98,0.04,,,0.04,VWS V14.01,2013-04-08 05:44:00,
2013-04-07 22:45:00,52.5,52.0,29.62,SW,225,11.0,11.0,98,0.04,,,0.04,VWS V14.01,2013-04-08 05:45:00,
2013-04-07 22:46:00,52.7,52.2,29.62,SW,225,9.4,9.4,98,0.04,,,0.04,VWS V14.01,2013-04-08 05:46:00,
2013-04-07 22:47:00,52.7,52.2,29.62,WSW,248,8.7,8.7,98,0.04,,,0.04,VWS V14.01,2013-04-08 05:47:00,
2013-04-07 22:48:00,52.7,52.2,29.62,WNW,292,10.1,10.1,98,0.04,,,0.04,VWS V14.01,2013-04-08 05:48:00,
2013-04-07 22:49:00,52.7,52.2,29.62,SSW,202,8.5,8.5,98,0.04,,,0.04,VWS V14.01,2013-04-08 05:49:00,
2013-04-07 22:50:00,52.7,52.2,29.62,WSW,248,14.5,14.5,98,0.04,,,0.04,VWS V14.01,2013-04-08 05:50:00,
2013-04-07 22:51:00,52.7,52.2,29.62,WSW,248,21.3,21.3,98,0.04,,,0.04,VWS V14.01,2013-04-08 05:51:00,
2013-04-07 22:52:00,52.7,52.2,29.62,WSW,248,10.7,10.7,98,0.04,,,0.04,VWS V14.01,2013-04-08 05:52:00,
2013-04-07 22:53:00,52.7,52.2,29.62,WSW,248,14.3,14.3,98,0.04,,,0.04,VWS V14.01,2013-04-08 05:53:00,
2013-04-07 22:54:00,52.7,52.2,29.62,WSW,248,5.6,5.6,98,0.04,,,0.04,VWS V14.01,2013-04-08 05:54:00,
2013-04-07 22:55:00,52.7,52.2,29.59,WSW,248,5.6,5.6,98,0.04,,,0.04,VWS V14.01,2013-04-08 05:55:00,
2013-04-07 22:56:00,52.7,52.2,29.59,WSW,248,15.9,15.9,98,0.04,,,0.04,VWS V14.01,2013-04-08 05:56:00,
2013-04-07 22:57:00,52.9,52.3,29.59,SSW,202,16.1,16.1,98,0.04,,,0.04,VWS V14.01,2013-04-08 05:57:00,
2013-04-07 22:58:00,52.9,52.3,29.59,SW,225,11.0,11.0,98,0.04,,,0.04,VWS V14.01,2013-04-08 05:58:00,
2013-04-07 23:00:00,52.9,52.3,29.59,SW,225,11.0,11.0,98,0.04,,,0.04,VWS V14.01,2013-04-08 06:00:00,
2013-04-07 23:01:00,52.9,52.3,29.59,WSW,248,27.7,27.7,98,0.04,,,0.04,VWS V14.01,2013-04-08 06:01:00,
2013-04-07 23:02:00,52.9,52.3,29.59,WSW,248,26.2,26.2,98,0.12,,,0.12,VWS V14.01,2013-04-08 06:02:00,
2013-04-07 23:03:00,52.9,52.3,29.59,SSW,202,23.0,23.0,98,0.12,,,0.12,VWS V14.01,2013-04-08 06:03:00,
2013-04-07 23:04:00,52.9,52.3,29.59,WSW,248,39.8,39.8,98,0.12,,,0.12,VWS V14.01,2013-04-08 06:04:00,
2013-04-07 23:05:00,53.1,52.5,29.59,SW,225,13.0,13.0,98,0.12,,,0.12,VWS V14.01,2013-04-08 06:05:00,
2013-04-07 23:06:00,53.1,52.5,29.59,WSW,248,15.2,15.2,98,0.12,,,0.12,VWS V14.01,2013-04-08 06:06:00,
2013-04-07 23:07:00,53.1,52.5,29.59,WSW,248,19.7,19.7,98,0.12,,,0.12,VWS V14.01,2013-04-08 06:07:00,
2013-04-07 23:08:00,53.1,52.5,29.59,WNW,292,12.5,12.5,98,0.12,,,0.12,VWS V14.01,2013-04-08 06:08:00,
2013-04-07 23:09:00,53.1,52.5,29.59,WSW,248,6.3,6.3,98,0.12,,,0.12,VWS V14.01,2013-04-08 06:09:00,
2013-04-07 23:10:00,53.1,52.5,29.59,WSW,248,27.5,27.5,98,0.12,,,0.12,VWS V14.01,2013-04-08 06:10:00,
2013-04-07 23:11:00,53.1,52.5,29.59,NNW,338,27.7,27.7,98,0.12,,,0.12,VWS V14.01,2013-04-08 06:11:00,
2013-04-07 23:12:00,53.1,52.5,29.59,West,270,19.9,19.9,98,0.12,,,0.12,VWS V14.01,2013-04-08 06:12:00,
2013-04-07 23:13:00,52.9,52.3,29.59,WSW,248,22.2,22.2,98,0.12,,,0.12,VWS V14.01,2013-04-08 06:13:00,
2013-04-07 23:14:00,52.9,52.3,29.59,WNW,292,15.7,15.7,98,0.12,,,0.12,VWS V14.01,2013-04-08 06:14:00,
2013-04-07 23:15:00,52.9,52.3,29.59,WSW,248,22.2,22.2,98,0.12,,,0.12,VWS V14.01,2013-04-08 06:15:00,
2013-04-07 23:16:00,52.9,52.3,29.59,WSW,248,27.3,27.3,98,0.12,,,0.12,VWS V14.01,2013-04-08 06:16:00,
2013-04-07 23:17:00,52.9,52.3,29.59,WSW,248,30.0,30.0,98,0.12,,,0.12,VWS V14.01,2013-04-08 06:17:00,
2013-04-07 23:18:00,52.9,52.3,29.59,West,270,23.0,23.0,98,0.12,,,0.12,VWS V14.01,2013-04-08 06:18:00,
2013-04-07 23:19:00,52.9,52.3,29.59,WSW,248,23.3,23.3,98,0.12,,,0.12,VWS V14.01,2013-04-08 06:19:00,
2013-04-07 23:20:00,52.9,52.3,29.59,WNW,292,26.2,26.2,98,0.12,,,0.12,VWS V14.01,2013-04-08 06:20:00,
2013-04-07 23:21:00,52.9,52.3,29.59,West,270,19.9,19.9,98,0.12,,,0.12,VWS V14.01,2013-04-08 06:21:00,
2013-04-07 23:22:00,52.7,52.2,29.59,WSW,248,16.6,16.6,98,0.12,,,0.12,VWS V14.01,2013-04-08 06:22:00,
2013-04-07 23:23:00,52.7,52.2,29.59,WNW,292,11.9,11.9,98,0.12,,,0.12,VWS V14.01,2013-04-08 06:23:00,
2013-04-07 23:24:00,52.7,52.2,29.59,WNW,292,19.5,19.5,98,0.12,,,0.12,VWS V14.01,2013-04-08 06:24:00,
2013-04-07 23:25:00,52.7,52.2,29.59,WNW,292,18.8,18.8,98,0.12,,,0.12,VWS V14.01,2013-04-08 06:25:00,
2013-04-07 23:26:00,52.7,52.2,29.59,WNW,292,23.3,23.3,98,0.12,,,0.12,VWS V14.01,2013-04-08 06:26:00,
2013-04-07 23:27:00,52.7,52.2,29.59,SW,225,13.0,13.0,98,0.12,,,0.12,VWS V14.01,2013-04-08 06:27:00,
2013-04-07 23:28:00,52.7,52.2,29.59,NNW,338,15.2,15.2,98,0.12,,,0.12,VWS V14.01,2013-04-08 06:28:00,
2013-04-07 23:29:00,52.7,52.2,29.59,WSW,248,23.9,23.9,98,0.12,,,0.12,VWS V14.01,2013-04-08 06:29:00,
2013-04-07 23:30:00,52.7,52.2,29.59,West,270,23.3,23.3,98,0.12,,,0.12,VWS V14.01,2013-04-08 06:30:00,
2013-04-07 23:31:00,52.9,52.3,29.59,WNW,292,25.3,25.3,98,0.12,,,0.12,VWS V14.01,2013-04-08 06:31:00,
2013-04-07 23:32:00,52.9,52.3,29.59,SSW,202,15.9,15.9,98,0.12,,,0.12,VWS V14.01,2013-04-08 06:32:00,
2013-04-07 23:33:00,52.9,52.3,29.59,WNW,292,12.1,12.1,98,0.12,,,0.12,VWS V14.01,2013-04-08 06:33:00,
2013-04-07 23:34:00,52.9,52.3,29.59,WSW,248,15.4,15.4,98,0.12,,,0.12,VWS V14.01,2013-04-08 06:34:00,
2013-04-07 23:35:00,53.1,52.5,29.59,NW,315,15.4,15.4,98,0.12,,,0.12,VWS V14.01,2013-04-08 06:35:00,
2013-04-07 23:36:00,52.9,52.1,29.59,WNW,292,24.2,24.2,97,0.12,,,0.12,VWS V14.01,2013-04-08 06:36:00,
2013-04-07 23:37:00,52.9,52.0,29.59,NW,315,16.8,16.8,97,0.12,,,0.12,VWS V14.01,2013-04-08 06:37:00,
2013-04-07 23:38:00,53.1,51.7,29.59,WSW,248,14.3,14.3,95,0.12,,,0.12,VWS V14.01,2013-04-08 06:38:00,
2013-04-07 23:39:00,53.1,51.7,29.59,WNW,292,13.0,13.0,95,0.12,,,0.12,VWS V14.01,2013-04-08 06:39:00,
2013-04-07 23:40:00,53.1,51.4,29.59,NW,315,23.3,23.3,94,0.12,,,0.12,VWS V14.01,2013-04-08 06:40:00,
2013-04-07 23:41:00,53.1,51.4,29.62,WNW,292,28.4,28.4,94,0.08,,,0.12,VWS V14.01,2013-04-08 06:41:00,
2013-04-07 23:42:00,53.1,50.8,29.62,WNW,292,22.8,22.8,92,0.08,,,0.12,VWS V14.01,2013-04-08 06:42:00,
2013-04-07 23:43:00,53.1,50.8,29.62,WNW,292,19.9,19.9,92,0.08,,,0.12,VWS V14.01,2013-04-08 06:43:00,
2013-04-07 23:44:00,53.1,50.8,29.62,WNW,292,19.9,19.9,92,0.08,,,0.12,VWS V14.01,2013-04-08 06:44:00,
2013-04-07 23:45:00,53.2,50.1,29.62,NW,315,14.3,14.3,89,0.08,,,0.12,VWS V14.01,2013-04-08 06:45:00,
2013-04-07 23:46:00,53.2,50.1,29.62,NW,315,22.8,22.8,89,0.08,,,0.12,VWS V14.01,2013-04-08 06:46:00,
2013-04-07 23:47:00,53.2,50.1,29.62,NW,315,12.5,12.5,89,0.08,,,0.12,VWS V14.01,2013-04-08 06:47:00,
2013-04-07 23:48:00,53.2,50.1,29.62,West,270,22.8,22.8,89,0.08,,,0.12,VWS V14.01,2013-04-08 06:48:00,
2013-04-07 23:49:00,53.2,50.1,29.62,WNW,292,30.0,30.0,89,0.08,,,0.12,VWS V14.01,2013-04-08 06:49:00,
2013-04-07 23:50:00,53.2,49.5,29.62,WNW,292,25.7,25.7,87,0.08,,,0.12,VWS V14.01,2013-04-08 06:50:00,
2013-04-07 23:51:00,53.2,49.5,29.62,WNW,292,11.0,11.0,87,0.08,,,0.12,VWS V14.01,2013-04-08 06:51:00,
2013-04-07 23:52:00,53.2,49.2,29.62,NW,315,17.5,17.5,86,0.08,,,0.12,VWS V14.01,2013-04-08 06:52:00,
2013-04-07 23:53:00,53.2,49.2,29.62,WNW,292,19.7,19.7,86,0.08,,,0.12,VWS V14.01,2013-04-08 06:53:00,
2013-04-07 23:54:00,53.2,49.5,29.62,WNW,292,15.4,15.4,87,0.08,,,0.12,VWS V14.01,2013-04-08 06:54:00,
2013-04-07 23:55:00,53.2,49.5,29.62,West,270,25.5,25.5,87,0.08,,,0.12,VWS V14.01,2013-04-08 06:55:00,
2013-04-07 23:56:00,53.2,49.2,29.59,WNW,292,27.3,27.3,86,0.08,,,0.12,VWS V14.01,2013-04-08 06:56:00,
2013-04-07 23:57:00,53.2,49.2,29.59,WSW,248,17.2,17.2,86,0.08,,,0.12,VWS V14.01,2013-04-08 06:57:00,
2013-04-07 23:58:00,53.2,49.2,29.59,West,270,23.9,23.9,86,0.08,,,0.12,VWS V14.01,2013-04-08 06:58:00,
2013-04-07 23:59:00,53.1,48.7,29.59,NNW,338,16.8,16.8,85,0.08,,,0.12,VWS V14.01,2013-04-08 06:59:00,